<?xml version="1.0" encoding="UTF-8" standalone="no" ?>
<gpx xmlns="http://www.topografix.com/GPX/1/1" xmlns:xsi="http://www.w3.org/2001/XMLSchema-instance" xsi:schemaLocation="http://www.topografix.com/GPX/1/1 http://www.topografix.com/GPX/1/1/gpx.xsd" version="1.1" creator="VisuGPX - https://www.visugpx.com">
  <metadata>
    <name>Presle</name>
    <desc><![CDATA[2009-05-27_Presle Dist.122Km Asc.1671m 5h07.gpx]]></desc>
  </metadata>
  <trk>
    <name><![CDATA[Presle]]></name>
    <trkseg>
      <trkpt lat="45.11612" lon="4.96592">
        <ele>187.03700256348</ele>
        <time>2009-05-27T11:20:58Z</time>
      </trkpt>
      <trkpt lat="45.1162" lon="4.96613">
        <ele>187.04800415039</ele>
        <time>2009-05-27T11:21:01Z</time>
      </trkpt>
      <trkpt lat="45.11658" lon="4.96714">
        <ele>187.55400085449</ele>
        <time>2009-05-27T11:21:16Z</time>
      </trkpt>
      <trkpt lat="45.11665" lon="4.96727">
        <ele>188.92199707031</ele>
        <time>2009-05-27T11:21:18Z</time>
      </trkpt>
      <trkpt lat="45.11691" lon="4.96776">
        <ele>189.53700256348</ele>
        <time>2009-05-27T11:21:26Z</time>
      </trkpt>
      <trkpt lat="45.11722" lon="4.96827">
        <ele>189.52299499512</ele>
        <time>2009-05-27T11:21:35Z</time>
      </trkpt>
      <trkpt lat="45.11731" lon="4.96854">
        <ele>189.69000244141</ele>
        <time>2009-05-27T11:21:39Z</time>
      </trkpt>
      <trkpt lat="45.11761" lon="4.96892">
        <ele>189.94099426269</ele>
        <time>2009-05-27T11:21:47Z</time>
      </trkpt>
      <trkpt lat="45.11765" lon="4.96898">
        <ele>189.69299316406</ele>
        <time>2009-05-27T11:21:48Z</time>
      </trkpt>
      <trkpt lat="45.1183" lon="4.96998">
        <ele>190.2200012207</ele>
        <time>2009-05-27T11:22:06Z</time>
      </trkpt>
      <trkpt lat="45.11874" lon="4.97056">
        <ele>190.50199890137</ele>
        <time>2009-05-27T11:22:17Z</time>
      </trkpt>
      <trkpt lat="45.11879" lon="4.97083">
        <ele>190.13900756836</ele>
        <time>2009-05-27T11:22:21Z</time>
      </trkpt>
      <trkpt lat="45.11879" lon="4.97098">
        <ele>189.125</ele>
        <time>2009-05-27T11:22:23Z</time>
      </trkpt>
      <trkpt lat="45.11873" lon="4.9713">
        <ele>189.6549987793</ele>
        <time>2009-05-27T11:22:27Z</time>
      </trkpt>
      <trkpt lat="45.11874" lon="4.97168">
        <ele>188.8809967041</ele>
        <time>2009-05-27T11:22:31Z</time>
      </trkpt>
      <trkpt lat="45.11911" lon="4.97378">
        <ele>188.22799682617</ele>
        <time>2009-05-27T11:22:52Z</time>
      </trkpt>
      <trkpt lat="45.11936" lon="4.97527">
        <ele>189.93200683594</ele>
        <time>2009-05-27T11:23:09Z</time>
      </trkpt>
      <trkpt lat="45.11945" lon="4.97584">
        <ele>190.57200622559</ele>
        <time>2009-05-27T11:23:16Z</time>
      </trkpt>
      <trkpt lat="45.11947" lon="4.97601">
        <ele>190.91200256348</ele>
        <time>2009-05-27T11:23:18Z</time>
      </trkpt>
      <trkpt lat="45.11971" lon="4.97733">
        <ele>190.88299560547</ele>
        <time>2009-05-27T11:23:34Z</time>
      </trkpt>
      <trkpt lat="45.12003" lon="4.9792">
        <ele>191.76600646973</ele>
        <time>2009-05-27T11:23:56Z</time>
      </trkpt>
      <trkpt lat="45.12046" lon="4.98086">
        <ele>194.52499389648</ele>
        <time>2009-05-27T11:24:16Z</time>
      </trkpt>
      <trkpt lat="45.12065" lon="4.98239">
        <ele>196.77000427246</ele>
        <time>2009-05-27T11:24:34Z</time>
      </trkpt>
      <trkpt lat="45.12045" lon="4.98374">
        <ele>198.28700256348</ele>
        <time>2009-05-27T11:24:50Z</time>
      </trkpt>
      <trkpt lat="45.1204" lon="4.98388">
        <ele>198.58200073242</ele>
        <time>2009-05-27T11:24:52Z</time>
      </trkpt>
      <trkpt lat="45.12033" lon="4.98403">
        <ele>198.84199523926</ele>
        <time>2009-05-27T11:24:55Z</time>
      </trkpt>
      <trkpt lat="45.12024" lon="4.98445">
        <ele>198.66600036621</ele>
        <time>2009-05-27T11:25:02Z</time>
      </trkpt>
      <trkpt lat="45.12021" lon="4.9846">
        <ele>198.37399291992</ele>
        <time>2009-05-27T11:25:04Z</time>
      </trkpt>
      <trkpt lat="45.12013" lon="4.98602">
        <ele>197.69400024414</ele>
        <time>2009-05-27T11:25:19Z</time>
      </trkpt>
      <trkpt lat="45.12024" lon="4.98701">
        <ele>197.34399414062</ele>
        <time>2009-05-27T11:25:29Z</time>
      </trkpt>
      <trkpt lat="45.12058" lon="4.98828">
        <ele>198.56100463867</ele>
        <time>2009-05-27T11:25:44Z</time>
      </trkpt>
      <trkpt lat="45.12124" lon="4.9896">
        <ele>199.625</ele>
        <time>2009-05-27T11:26:02Z</time>
      </trkpt>
      <trkpt lat="45.12186" lon="4.99035">
        <ele>203.98500061035</ele>
        <time>2009-05-27T11:26:17Z</time>
      </trkpt>
      <trkpt lat="45.12202" lon="4.99053">
        <ele>204.6309967041</ele>
        <time>2009-05-27T11:26:21Z</time>
      </trkpt>
      <trkpt lat="45.12209" lon="4.99109">
        <ele>203.83299255371</ele>
        <time>2009-05-27T11:26:29Z</time>
      </trkpt>
      <trkpt lat="45.12164" lon="4.99282">
        <ele>202.05900573731</ele>
        <time>2009-05-27T11:26:48Z</time>
      </trkpt>
      <trkpt lat="45.12114" lon="4.9945">
        <ele>202.90899658203</ele>
        <time>2009-05-27T11:27:06Z</time>
      </trkpt>
      <trkpt lat="45.12046" lon="4.99575">
        <ele>204.76800537109</ele>
        <time>2009-05-27T11:27:23Z</time>
      </trkpt>
      <trkpt lat="45.11956" lon="4.99736">
        <ele>203.83200073242</ele>
        <time>2009-05-27T11:27:43Z</time>
      </trkpt>
      <trkpt lat="45.11876" lon="4.99837">
        <ele>207.81900024414</ele>
        <time>2009-05-27T11:27:59Z</time>
      </trkpt>
      <trkpt lat="45.1187" lon="4.99842">
        <ele>208.27499389648</ele>
        <time>2009-05-27T11:28:00Z</time>
      </trkpt>
      <trkpt lat="45.11797" lon="4.99877">
        <ele>213.60499572754</ele>
        <time>2009-05-27T11:28:12Z</time>
      </trkpt>
      <trkpt lat="45.11791" lon="4.9988">
        <ele>213.79100036621</ele>
        <time>2009-05-27T11:28:13Z</time>
      </trkpt>
      <trkpt lat="45.11774" lon="4.99887">
        <ele>215.08500671387</ele>
        <time>2009-05-27T11:28:16Z</time>
      </trkpt>
      <trkpt lat="45.11741" lon="4.999">
        <ele>217.85699462891</ele>
        <time>2009-05-27T11:28:22Z</time>
      </trkpt>
      <trkpt lat="45.11682" lon="4.99928">
        <ele>222.14500427246</ele>
        <time>2009-05-27T11:28:34Z</time>
      </trkpt>
      <trkpt lat="45.11613" lon="4.99998">
        <ele>226.53799438477</ele>
        <time>2009-05-27T11:28:52Z</time>
      </trkpt>
      <trkpt lat="45.11523" lon="5.00107">
        <ele>229.30499267578</ele>
        <time>2009-05-27T11:29:12Z</time>
      </trkpt>
      <trkpt lat="45.11421" lon="5.00203">
        <ele>229.25199890137</ele>
        <time>2009-05-27T11:29:29Z</time>
      </trkpt>
      <trkpt lat="45.11337" lon="5.00279">
        <ele>231.32699584961</ele>
        <time>2009-05-27T11:29:41Z</time>
      </trkpt>
      <trkpt lat="45.11205" lon="5.00361">
        <ele>234.91299438477</ele>
        <time>2009-05-27T11:29:58Z</time>
      </trkpt>
      <trkpt lat="45.11184" lon="5.00372">
        <ele>236.80499267578</ele>
        <time>2009-05-27T11:30:01Z</time>
      </trkpt>
      <trkpt lat="45.11095" lon="5.00419">
        <ele>240.71499633789</ele>
        <time>2009-05-27T11:30:15Z</time>
      </trkpt>
      <trkpt lat="45.11084" lon="5.00426">
        <ele>242.58700561523</ele>
        <time>2009-05-27T11:30:17Z</time>
      </trkpt>
      <trkpt lat="45.11031" lon="5.0046">
        <ele>245.69299316406</ele>
        <time>2009-05-27T11:30:27Z</time>
      </trkpt>
      <trkpt lat="45.10925" lon="5.00537">
        <ele>250.57000732422</ele>
        <time>2009-05-27T11:30:48Z</time>
      </trkpt>
      <trkpt lat="45.10878" lon="5.00559">
        <ele>249.02699279785</ele>
        <time>2009-05-27T11:30:55Z</time>
      </trkpt>
      <trkpt lat="45.10799" lon="5.00575">
        <ele>244.52099609375</ele>
        <time>2009-05-27T11:31:04Z</time>
      </trkpt>
      <trkpt lat="45.10708" lon="5.00592">
        <ele>236.98399353027</ele>
        <time>2009-05-27T11:31:12Z</time>
      </trkpt>
      <trkpt lat="45.1067" lon="5.00605">
        <ele>233.90100097656</ele>
        <time>2009-05-27T11:31:15Z</time>
      </trkpt>
      <trkpt lat="45.10632" lon="5.00625">
        <ele>231.97900390625</ele>
        <time>2009-05-27T11:31:18Z</time>
      </trkpt>
      <trkpt lat="45.10596" lon="5.0065">
        <ele>230.58099365234</ele>
        <time>2009-05-27T11:31:21Z</time>
      </trkpt>
      <trkpt lat="45.10548" lon="5.00688">
        <ele>227.56300354004</ele>
        <time>2009-05-27T11:31:25Z</time>
      </trkpt>
      <trkpt lat="45.105" lon="5.00727">
        <ele>225.15100097656</ele>
        <time>2009-05-27T11:31:29Z</time>
      </trkpt>
      <trkpt lat="45.10351" lon="5.00843">
        <ele>225.34700012207</ele>
        <time>2009-05-27T11:31:43Z</time>
      </trkpt>
      <trkpt lat="45.10324" lon="5.00865">
        <ele>226.69999694824</ele>
        <time>2009-05-27T11:31:46Z</time>
      </trkpt>
      <trkpt lat="45.10198" lon="5.00983">
        <ele>229.03399658203</ele>
        <time>2009-05-27T11:32:03Z</time>
      </trkpt>
      <trkpt lat="45.10126" lon="5.01094">
        <ele>231.3809967041</ele>
        <time>2009-05-27T11:32:18Z</time>
      </trkpt>
      <trkpt lat="45.10094" lon="5.01183">
        <ele>231.98399353027</ele>
        <time>2009-05-27T11:32:29Z</time>
      </trkpt>
      <trkpt lat="45.1007" lon="5.01359">
        <ele>232.10200500488</ele>
        <time>2009-05-27T11:32:46Z</time>
      </trkpt>
      <trkpt lat="45.10051" lon="5.01593">
        <ele>229.06799316406</ele>
        <time>2009-05-27T11:33:09Z</time>
      </trkpt>
      <trkpt lat="45.10048" lon="5.01623">
        <ele>231.06199645996</ele>
        <time>2009-05-27T11:33:12Z</time>
      </trkpt>
      <trkpt lat="45.10006" lon="5.01772">
        <ele>231.56799316406</ele>
        <time>2009-05-27T11:33:28Z</time>
      </trkpt>
      <trkpt lat="45.09969" lon="5.01878">
        <ele>235.1369934082</ele>
        <time>2009-05-27T11:33:43Z</time>
      </trkpt>
      <trkpt lat="45.09928" lon="5.01996">
        <ele>236.97300720215</ele>
        <time>2009-05-27T11:33:58Z</time>
      </trkpt>
      <trkpt lat="45.09903" lon="5.02067">
        <ele>240.41700744629</ele>
        <time>2009-05-27T11:34:07Z</time>
      </trkpt>
      <trkpt lat="45.0989" lon="5.02104">
        <ele>241.90800476074</ele>
        <time>2009-05-27T11:34:12Z</time>
      </trkpt>
      <trkpt lat="45.09864" lon="5.02179">
        <ele>243.9940032959</ele>
        <time>2009-05-27T11:34:24Z</time>
      </trkpt>
      <trkpt lat="45.09842" lon="5.02259">
        <ele>248.02900695801</ele>
        <time>2009-05-27T11:34:38Z</time>
      </trkpt>
      <trkpt lat="45.09843" lon="5.02277">
        <ele>248.67599487305</ele>
        <time>2009-05-27T11:34:41Z</time>
      </trkpt>
      <trkpt lat="45.09859" lon="5.0235">
        <ele>251.74099731445</ele>
        <time>2009-05-27T11:34:54Z</time>
      </trkpt>
      <trkpt lat="45.09877" lon="5.02421">
        <ele>252.58999633789</ele>
        <time>2009-05-27T11:35:05Z</time>
      </trkpt>
      <trkpt lat="45.09882" lon="5.02436">
        <ele>251.69000244141</ele>
        <time>2009-05-27T11:35:07Z</time>
      </trkpt>
      <trkpt lat="45.09898" lon="5.02469">
        <ele>249.52900695801</ele>
        <time>2009-05-27T11:35:11Z</time>
      </trkpt>
      <trkpt lat="45.09908" lon="5.02499">
        <ele>248.38800048828</ele>
        <time>2009-05-27T11:35:14Z</time>
      </trkpt>
      <trkpt lat="45.09953" lon="5.02562">
        <ele>242.74699401856</ele>
        <time>2009-05-27T11:35:21Z</time>
      </trkpt>
      <trkpt lat="45.09973" lon="5.0261">
        <ele>240.9049987793</ele>
        <time>2009-05-27T11:35:25Z</time>
      </trkpt>
      <trkpt lat="45.09977" lon="5.02623">
        <ele>240.63499450684</ele>
        <time>2009-05-27T11:35:26Z</time>
      </trkpt>
      <trkpt lat="45.09985" lon="5.02648">
        <ele>239.35400390625</ele>
        <time>2009-05-27T11:35:28Z</time>
      </trkpt>
      <trkpt lat="45.10026" lon="5.02708">
        <ele>233.56700134277</ele>
        <time>2009-05-27T11:35:34Z</time>
      </trkpt>
      <trkpt lat="45.1004" lon="5.02725">
        <ele>233.52099609375</ele>
        <time>2009-05-27T11:35:36Z</time>
      </trkpt>
      <trkpt lat="45.10052" lon="5.02813">
        <ele>230.44500732422</ele>
        <time>2009-05-27T11:35:43Z</time>
      </trkpt>
      <trkpt lat="45.10039" lon="5.02844">
        <ele>228.61399841309</ele>
        <time>2009-05-27T11:35:46Z</time>
      </trkpt>
      <trkpt lat="45.10037" lon="5.02905">
        <ele>224.84700012207</ele>
        <time>2009-05-27T11:35:51Z</time>
      </trkpt>
      <trkpt lat="45.10018" lon="5.02974">
        <ele>221.15800476074</ele>
        <time>2009-05-27T11:35:56Z</time>
      </trkpt>
      <trkpt lat="45.10001" lon="5.03033">
        <ele>218.67399597168</ele>
        <time>2009-05-27T11:36:00Z</time>
      </trkpt>
      <trkpt lat="45.0996" lon="5.0318">
        <ele>216.33299255371</ele>
        <time>2009-05-27T11:36:10Z</time>
      </trkpt>
      <trkpt lat="45.09925" lon="5.03312">
        <ele>209.5890045166</ele>
        <time>2009-05-27T11:36:19Z</time>
      </trkpt>
      <trkpt lat="45.09899" lon="5.03406">
        <ele>207.09199523926</ele>
        <time>2009-05-27T11:36:25Z</time>
      </trkpt>
      <trkpt lat="45.09823" lon="5.0353">
        <ele>209.2619934082</ele>
        <time>2009-05-27T11:36:35Z</time>
      </trkpt>
      <trkpt lat="45.09798" lon="5.03575">
        <ele>208.95799255371</ele>
        <time>2009-05-27T11:36:39Z</time>
      </trkpt>
      <trkpt lat="45.09785" lon="5.03649">
        <ele>209.41900634766</ele>
        <time>2009-05-27T11:36:45Z</time>
      </trkpt>
      <trkpt lat="45.09824" lon="5.03845">
        <ele>205.54899597168</ele>
        <time>2009-05-27T11:37:01Z</time>
      </trkpt>
      <trkpt lat="45.09877" lon="5.03979">
        <ele>206.1549987793</ele>
        <time>2009-05-27T11:37:14Z</time>
      </trkpt>
      <trkpt lat="45.0988" lon="5.04048">
        <ele>207.19500732422</ele>
        <time>2009-05-27T11:37:20Z</time>
      </trkpt>
      <trkpt lat="45.09864" lon="5.04116">
        <ele>205.76100158691</ele>
        <time>2009-05-27T11:37:26Z</time>
      </trkpt>
      <trkpt lat="45.09835" lon="5.0417">
        <ele>207.0059967041</ele>
        <time>2009-05-27T11:37:32Z</time>
      </trkpt>
      <trkpt lat="45.09707" lon="5.04297">
        <ele>208.9640045166</ele>
        <time>2009-05-27T11:37:53Z</time>
      </trkpt>
      <trkpt lat="45.09647" lon="5.04388">
        <ele>210.56500244141</ele>
        <time>2009-05-27T11:38:07Z</time>
      </trkpt>
      <trkpt lat="45.09618" lon="5.04481">
        <ele>208.01400756836</ele>
        <time>2009-05-27T11:38:17Z</time>
      </trkpt>
      <trkpt lat="45.09605" lon="5.0453">
        <ele>207.48199462891</ele>
        <time>2009-05-27T11:38:22Z</time>
      </trkpt>
      <trkpt lat="45.09576" lon="5.04586">
        <ele>205.68600463867</ele>
        <time>2009-05-27T11:38:28Z</time>
      </trkpt>
      <trkpt lat="45.0953" lon="5.04624">
        <ele>203.99200439453</ele>
        <time>2009-05-27T11:38:34Z</time>
      </trkpt>
      <trkpt lat="45.09522" lon="5.04629">
        <ele>203.89100646973</ele>
        <time>2009-05-27T11:38:35Z</time>
      </trkpt>
      <trkpt lat="45.09418" lon="5.04672">
        <ele>201.66499328613</ele>
        <time>2009-05-27T11:38:47Z</time>
      </trkpt>
      <trkpt lat="45.09364" lon="5.04707">
        <ele>200.28799438477</ele>
        <time>2009-05-27T11:38:53Z</time>
      </trkpt>
      <trkpt lat="45.09312" lon="5.0475">
        <ele>198.40400695801</ele>
        <time>2009-05-27T11:39:00Z</time>
      </trkpt>
      <trkpt lat="45.09303" lon="5.04793">
        <ele>197.9700012207</ele>
        <time>2009-05-27T11:39:04Z</time>
      </trkpt>
      <trkpt lat="45.09296" lon="5.0487">
        <ele>197.27900695801</ele>
        <time>2009-05-27T11:39:11Z</time>
      </trkpt>
      <trkpt lat="45.09293" lon="5.04889">
        <ele>197.80700683594</ele>
        <time>2009-05-27T11:39:13Z</time>
      </trkpt>
      <trkpt lat="45.0929" lon="5.04897">
        <ele>198.07299804688</ele>
        <time>2009-05-27T11:39:14Z</time>
      </trkpt>
      <trkpt lat="45.09283" lon="5.04912">
        <ele>199.21499633789</ele>
        <time>2009-05-27T11:39:16Z</time>
      </trkpt>
      <trkpt lat="45.09275" lon="5.04927">
        <ele>199.50500488281</ele>
        <time>2009-05-27T11:39:18Z</time>
      </trkpt>
      <trkpt lat="45.09248" lon="5.04965">
        <ele>200.86500549316</ele>
        <time>2009-05-27T11:39:24Z</time>
      </trkpt>
      <trkpt lat="45.09236" lon="5.04994">
        <ele>201.91700744629</ele>
        <time>2009-05-27T11:39:28Z</time>
      </trkpt>
      <trkpt lat="45.0924" lon="5.05047">
        <ele>203.47300720215</ele>
        <time>2009-05-27T11:39:34Z</time>
      </trkpt>
      <trkpt lat="45.09262" lon="5.05107">
        <ele>204.99699401856</ele>
        <time>2009-05-27T11:39:42Z</time>
      </trkpt>
      <trkpt lat="45.09282" lon="5.05149">
        <ele>205.62899780273</ele>
        <time>2009-05-27T11:39:48Z</time>
      </trkpt>
      <trkpt lat="45.09311" lon="5.052">
        <ele>205.49499511719</ele>
        <time>2009-05-27T11:39:55Z</time>
      </trkpt>
      <trkpt lat="45.09388" lon="5.05332">
        <ele>204.73699951172</ele>
        <time>2009-05-27T11:40:12Z</time>
      </trkpt>
      <trkpt lat="45.09424" lon="5.05454">
        <ele>206.37300109863</ele>
        <time>2009-05-27T11:40:27Z</time>
      </trkpt>
      <trkpt lat="45.09432" lon="5.05642">
        <ele>207.51800537109</ele>
        <time>2009-05-27T11:40:48Z</time>
      </trkpt>
      <trkpt lat="45.09404" lon="5.05802">
        <ele>205.56599426269</ele>
        <time>2009-05-27T11:41:03Z</time>
      </trkpt>
      <trkpt lat="45.09373" lon="5.05972">
        <ele>205.32800292969</ele>
        <time>2009-05-27T11:41:19Z</time>
      </trkpt>
      <trkpt lat="45.09365" lon="5.06166">
        <ele>206.45899963379</ele>
        <time>2009-05-27T11:41:40Z</time>
      </trkpt>
      <trkpt lat="45.09368" lon="5.06309">
        <ele>207.70700073242</ele>
        <time>2009-05-27T11:41:59Z</time>
      </trkpt>
      <trkpt lat="45.09373" lon="5.06476">
        <ele>208.61399841309</ele>
        <time>2009-05-27T11:42:19Z</time>
      </trkpt>
      <trkpt lat="45.09374" lon="5.0662">
        <ele>210.16299438477</ele>
        <time>2009-05-27T11:42:35Z</time>
      </trkpt>
      <trkpt lat="45.09363" lon="5.06776">
        <ele>211.94299316406</ele>
        <time>2009-05-27T11:42:53Z</time>
      </trkpt>
      <trkpt lat="45.09372" lon="5.06934">
        <ele>212.94400024414</ele>
        <time>2009-05-27T11:43:12Z</time>
      </trkpt>
      <trkpt lat="45.09381" lon="5.07094">
        <ele>216.14799499512</ele>
        <time>2009-05-27T11:43:32Z</time>
      </trkpt>
      <trkpt lat="45.09381" lon="5.07155">
        <ele>217.18600463867</ele>
        <time>2009-05-27T11:43:40Z</time>
      </trkpt>
      <trkpt lat="45.09357" lon="5.07203">
        <ele>218.23199462891</ele>
        <time>2009-05-27T11:43:48Z</time>
      </trkpt>
      <trkpt lat="45.09346" lon="5.07209">
        <ele>218.28700256348</ele>
        <time>2009-05-27T11:43:50Z</time>
      </trkpt>
      <trkpt lat="45.09321" lon="5.07241">
        <ele>217.41499328613</ele>
        <time>2009-05-27T11:43:55Z</time>
      </trkpt>
      <trkpt lat="45.09251" lon="5.0739">
        <ele>217.84599304199</ele>
        <time>2009-05-27T11:44:11Z</time>
      </trkpt>
      <trkpt lat="45.09175" lon="5.0755">
        <ele>220.65199279785</ele>
        <time>2009-05-27T11:44:30Z</time>
      </trkpt>
      <trkpt lat="45.09113" lon="5.07669">
        <ele>223.79600524902</ele>
        <time>2009-05-27T11:44:48Z</time>
      </trkpt>
      <trkpt lat="45.09034" lon="5.0775">
        <ele>224.70599365234</ele>
        <time>2009-05-27T11:45:05Z</time>
      </trkpt>
      <trkpt lat="45.08946" lon="5.07811">
        <ele>223.48399353027</ele>
        <time>2009-05-27T11:45:18Z</time>
      </trkpt>
      <trkpt lat="45.0888" lon="5.07854">
        <ele>220.27400207519</ele>
        <time>2009-05-27T11:45:26Z</time>
      </trkpt>
      <trkpt lat="45.08851" lon="5.07894">
        <ele>218.20899963379</ele>
        <time>2009-05-27T11:45:30Z</time>
      </trkpt>
      <trkpt lat="45.08833" lon="5.07947">
        <ele>216.17999267578</ele>
        <time>2009-05-27T11:45:34Z</time>
      </trkpt>
      <trkpt lat="45.0882" lon="5.08016">
        <ele>214.29699707031</ele>
        <time>2009-05-27T11:45:39Z</time>
      </trkpt>
      <trkpt lat="45.08807" lon="5.08086">
        <ele>212.74099731445</ele>
        <time>2009-05-27T11:45:44Z</time>
      </trkpt>
      <trkpt lat="45.08802" lon="5.08115">
        <ele>211.90899658203</ele>
        <time>2009-05-27T11:45:46Z</time>
      </trkpt>
      <trkpt lat="45.08767" lon="5.08328">
        <ele>203.35699462891</ele>
        <time>2009-05-27T11:46:00Z</time>
      </trkpt>
      <trkpt lat="45.08764" lon="5.08359">
        <ele>201.89999389648</ele>
        <time>2009-05-27T11:46:02Z</time>
      </trkpt>
      <trkpt lat="45.0876" lon="5.0839">
        <ele>200.9880065918</ele>
        <time>2009-05-27T11:46:04Z</time>
      </trkpt>
      <trkpt lat="45.08747" lon="5.08486">
        <ele>198.7380065918</ele>
        <time>2009-05-27T11:46:10Z</time>
      </trkpt>
      <trkpt lat="45.08733" lon="5.0858">
        <ele>194.95700073242</ele>
        <time>2009-05-27T11:46:16Z</time>
      </trkpt>
      <trkpt lat="45.08725" lon="5.08653">
        <ele>194.77499389648</ele>
        <time>2009-05-27T11:46:21Z</time>
      </trkpt>
      <trkpt lat="45.08691" lon="5.08796">
        <ele>192.20199584961</ele>
        <time>2009-05-27T11:46:31Z</time>
      </trkpt>
      <trkpt lat="45.0862" lon="5.08981">
        <ele>189.95300292969</ele>
        <time>2009-05-27T11:46:45Z</time>
      </trkpt>
      <trkpt lat="45.08568" lon="5.09133">
        <ele>189.43699645996</ele>
        <time>2009-05-27T11:46:57Z</time>
      </trkpt>
      <trkpt lat="45.08548" lon="5.09209">
        <ele>186.69400024414</ele>
        <time>2009-05-27T11:47:03Z</time>
      </trkpt>
      <trkpt lat="45.08496" lon="5.09291">
        <ele>186.93899536133</ele>
        <time>2009-05-27T11:47:11Z</time>
      </trkpt>
      <trkpt lat="45.08466" lon="5.09379">
        <ele>185.88499450684</ele>
        <time>2009-05-27T11:47:18Z</time>
      </trkpt>
      <trkpt lat="45.0845" lon="5.09537">
        <ele>186.24800109863</ele>
        <time>2009-05-27T11:47:30Z</time>
      </trkpt>
      <trkpt lat="45.08452" lon="5.09561">
        <ele>185.70199584961</ele>
        <time>2009-05-27T11:47:32Z</time>
      </trkpt>
      <trkpt lat="45.08464" lon="5.09606">
        <ele>185.53399658203</ele>
        <time>2009-05-27T11:47:36Z</time>
      </trkpt>
      <trkpt lat="45.08506" lon="5.09705">
        <ele>186.81500244141</ele>
        <time>2009-05-27T11:47:46Z</time>
      </trkpt>
      <trkpt lat="45.08546" lon="5.09819">
        <ele>188.00199890137</ele>
        <time>2009-05-27T11:47:58Z</time>
      </trkpt>
      <trkpt lat="45.08583" lon="5.09952">
        <ele>187.62399291992</ele>
        <time>2009-05-27T11:48:11Z</time>
      </trkpt>
      <trkpt lat="45.08618" lon="5.10079">
        <ele>191.19700622559</ele>
        <time>2009-05-27T11:48:26Z</time>
      </trkpt>
      <trkpt lat="45.08654" lon="5.10249">
        <ele>190.86399841309</ele>
        <time>2009-05-27T11:48:45Z</time>
      </trkpt>
      <trkpt lat="45.08699" lon="5.10407">
        <ele>189.71099853516</ele>
        <time>2009-05-27T11:49:02Z</time>
      </trkpt>
      <trkpt lat="45.08731" lon="5.10524">
        <ele>188.62100219727</ele>
        <time>2009-05-27T11:49:15Z</time>
      </trkpt>
      <trkpt lat="45.08771" lon="5.10695">
        <ele>188.58599853516</ele>
        <time>2009-05-27T11:49:33Z</time>
      </trkpt>
      <trkpt lat="45.08781" lon="5.10833">
        <ele>189.12600708008</ele>
        <time>2009-05-27T11:49:47Z</time>
      </trkpt>
      <trkpt lat="45.08796" lon="5.11023">
        <ele>188.94900512695</ele>
        <time>2009-05-27T11:50:06Z</time>
      </trkpt>
      <trkpt lat="45.08832" lon="5.11248">
        <ele>191.04200744629</ele>
        <time>2009-05-27T11:50:29Z</time>
      </trkpt>
      <trkpt lat="45.08852" lon="5.11482">
        <ele>191.91000366211</ele>
        <time>2009-05-27T11:50:54Z</time>
      </trkpt>
      <trkpt lat="45.08865" lon="5.11646">
        <ele>192.7559967041</ele>
        <time>2009-05-27T11:51:11Z</time>
      </trkpt>
      <trkpt lat="45.0888" lon="5.11859">
        <ele>192.74800109863</ele>
        <time>2009-05-27T11:51:32Z</time>
      </trkpt>
      <trkpt lat="45.08894" lon="5.12049">
        <ele>194.32899475098</ele>
        <time>2009-05-27T11:51:51Z</time>
      </trkpt>
      <trkpt lat="45.08907" lon="5.12292">
        <ele>198.29600524902</ele>
        <time>2009-05-27T11:52:18Z</time>
      </trkpt>
      <trkpt lat="45.08914" lon="5.12474">
        <ele>201.11599731445</ele>
        <time>2009-05-27T11:52:40Z</time>
      </trkpt>
      <trkpt lat="45.08894" lon="5.12567">
        <ele>202.84100341797</ele>
        <time>2009-05-27T11:52:52Z</time>
      </trkpt>
      <trkpt lat="45.08841" lon="5.12737">
        <ele>200.5890045166</ele>
        <time>2009-05-27T11:53:10Z</time>
      </trkpt>
      <trkpt lat="45.0881" lon="5.12865">
        <ele>199.79699707031</ele>
        <time>2009-05-27T11:53:22Z</time>
      </trkpt>
      <trkpt lat="45.08797" lon="5.12956">
        <ele>197.46699523926</ele>
        <time>2009-05-27T11:53:30Z</time>
      </trkpt>
      <trkpt lat="45.08795" lon="5.12978">
        <ele>197.25900268555</ele>
        <time>2009-05-27T11:53:32Z</time>
      </trkpt>
      <trkpt lat="45.08799" lon="5.13029">
        <ele>196.41900634766</ele>
        <time>2009-05-27T11:53:37Z</time>
      </trkpt>
      <trkpt lat="45.08794" lon="5.13066">
        <ele>196.76899719238</ele>
        <time>2009-05-27T11:53:41Z</time>
      </trkpt>
      <trkpt lat="45.08775" lon="5.13151">
        <ele>197.29100036621</ele>
        <time>2009-05-27T11:53:50Z</time>
      </trkpt>
      <trkpt lat="45.08724" lon="5.13256">
        <ele>197.89199829102</ele>
        <time>2009-05-27T11:54:03Z</time>
      </trkpt>
      <trkpt lat="45.08659" lon="5.13407">
        <ele>198.88999938965</ele>
        <time>2009-05-27T11:54:21Z</time>
      </trkpt>
      <trkpt lat="45.08632" lon="5.13472">
        <ele>198.36099243164</ele>
        <time>2009-05-27T11:54:29Z</time>
      </trkpt>
      <trkpt lat="45.08627" lon="5.13479">
        <ele>198.23699951172</ele>
        <time>2009-05-27T11:54:32Z</time>
      </trkpt>
      <trkpt lat="45.08624" lon="5.13483">
        <ele>198.09800720215</ele>
        <time>2009-05-27T11:54:33Z</time>
      </trkpt>
      <trkpt lat="45.08588" lon="5.13571">
        <ele>197.61399841309</ele>
        <time>2009-05-27T11:54:44Z</time>
      </trkpt>
      <trkpt lat="45.08564" lon="5.13612">
        <ele>198.08399963379</ele>
        <time>2009-05-27T11:54:49Z</time>
      </trkpt>
      <trkpt lat="45.08427" lon="5.13792">
        <ele>198.33399963379</ele>
        <time>2009-05-27T11:55:12Z</time>
      </trkpt>
      <trkpt lat="45.08369" lon="5.13871">
        <ele>198.81900024414</ele>
        <time>2009-05-27T11:55:22Z</time>
      </trkpt>
      <trkpt lat="45.0832" lon="5.14008">
        <ele>197.9049987793</ele>
        <time>2009-05-27T11:55:34Z</time>
      </trkpt>
      <trkpt lat="45.0827" lon="5.14179">
        <ele>198.86500549316</ele>
        <time>2009-05-27T11:55:49Z</time>
      </trkpt>
      <trkpt lat="45.08228" lon="5.14318">
        <ele>201.03799438477</ele>
        <time>2009-05-27T11:56:04Z</time>
      </trkpt>
      <trkpt lat="45.08176" lon="5.14474">
        <ele>201.58700561523</ele>
        <time>2009-05-27T11:56:21Z</time>
      </trkpt>
      <trkpt lat="45.08142" lon="5.14597">
        <ele>199.3450012207</ele>
        <time>2009-05-27T11:56:34Z</time>
      </trkpt>
      <trkpt lat="45.0808" lon="5.14763">
        <ele>196.62699890137</ele>
        <time>2009-05-27T11:56:49Z</time>
      </trkpt>
      <trkpt lat="45.08036" lon="5.14909">
        <ele>197.69799804688</ele>
        <time>2009-05-27T11:57:03Z</time>
      </trkpt>
      <trkpt lat="45.08" lon="5.15048">
        <ele>201.49699401856</ele>
        <time>2009-05-27T11:57:19Z</time>
      </trkpt>
      <trkpt lat="45.07978" lon="5.15179">
        <ele>200.37699890137</ele>
        <time>2009-05-27T11:57:33Z</time>
      </trkpt>
      <trkpt lat="45.07945" lon="5.15357">
        <ele>201.10099792481</ele>
        <time>2009-05-27T11:57:49Z</time>
      </trkpt>
      <trkpt lat="45.07935" lon="5.15396">
        <ele>200.40299987793</ele>
        <time>2009-05-27T11:57:53Z</time>
      </trkpt>
      <trkpt lat="45.07893" lon="5.15577">
        <ele>199.42999267578</ele>
        <time>2009-05-27T11:58:10Z</time>
      </trkpt>
      <trkpt lat="45.07868" lon="5.15714">
        <ele>196.91200256348</ele>
        <time>2009-05-27T11:58:21Z</time>
      </trkpt>
      <trkpt lat="45.07855" lon="5.15777">
        <ele>196.76499938965</ele>
        <time>2009-05-27T11:58:26Z</time>
      </trkpt>
      <trkpt lat="45.07804" lon="5.15972">
        <ele>194.97700500488</ele>
        <time>2009-05-27T11:58:42Z</time>
      </trkpt>
      <trkpt lat="45.07781" lon="5.1606">
        <ele>192.81900024414</ele>
        <time>2009-05-27T11:58:49Z</time>
      </trkpt>
      <trkpt lat="45.07764" lon="5.16099">
        <ele>190.89500427246</ele>
        <time>2009-05-27T11:58:52Z</time>
      </trkpt>
      <trkpt lat="45.07716" lon="5.16179">
        <ele>187.16200256348</ele>
        <time>2009-05-27T11:58:59Z</time>
      </trkpt>
      <trkpt lat="45.07695" lon="5.16214">
        <ele>186.51899719238</ele>
        <time>2009-05-27T11:59:03Z</time>
      </trkpt>
      <trkpt lat="45.07672" lon="5.16251">
        <ele>187.24000549316</ele>
        <time>2009-05-27T11:59:08Z</time>
      </trkpt>
      <trkpt lat="45.07669" lon="5.16254">
        <ele>187.35800170898</ele>
        <time>2009-05-27T11:59:09Z</time>
      </trkpt>
      <trkpt lat="45.07665" lon="5.1626">
        <ele>187.31599426269</ele>
        <time>2009-05-27T11:59:11Z</time>
      </trkpt>
      <trkpt lat="45.07672" lon="5.16315">
        <ele>186.54200744629</ele>
        <time>2009-05-27T11:59:18Z</time>
      </trkpt>
      <trkpt lat="45.0768" lon="5.16354">
        <ele>186.59300231934</ele>
        <time>2009-05-27T11:59:22Z</time>
      </trkpt>
      <trkpt lat="45.07687" lon="5.16384">
        <ele>186.5</ele>
        <time>2009-05-27T11:59:25Z</time>
      </trkpt>
      <trkpt lat="45.07719" lon="5.1653">
        <ele>187.20799255371</ele>
        <time>2009-05-27T11:59:40Z</time>
      </trkpt>
      <trkpt lat="45.07751" lon="5.16672">
        <ele>187.02299499512</ele>
        <time>2009-05-27T11:59:53Z</time>
      </trkpt>
      <trkpt lat="45.07796" lon="5.16869">
        <ele>185.47099304199</ele>
        <time>2009-05-27T12:00:11Z</time>
      </trkpt>
      <trkpt lat="45.07861" lon="5.17051">
        <ele>183.22599792481</ele>
        <time>2009-05-27T12:00:29Z</time>
      </trkpt>
      <trkpt lat="45.07887" lon="5.17103">
        <ele>183.10200500488</ele>
        <time>2009-05-27T12:00:35Z</time>
      </trkpt>
      <trkpt lat="45.07901" lon="5.1714">
        <ele>182.85000610352</ele>
        <time>2009-05-27T12:00:39Z</time>
      </trkpt>
      <trkpt lat="45.07944" lon="5.17213">
        <ele>181.55700683594</ele>
        <time>2009-05-27T12:00:47Z</time>
      </trkpt>
      <trkpt lat="45.07975" lon="5.17266">
        <ele>179.52600097656</ele>
        <time>2009-05-27T12:00:52Z</time>
      </trkpt>
      <trkpt lat="45.08043" lon="5.1736">
        <ele>174.10400390625</ele>
        <time>2009-05-27T12:01:01Z</time>
      </trkpt>
      <trkpt lat="45.08139" lon="5.1752">
        <ele>170.3690032959</ele>
        <time>2009-05-27T12:01:15Z</time>
      </trkpt>
      <trkpt lat="45.08263" lon="5.17699">
        <ele>167.60899353027</ele>
        <time>2009-05-27T12:01:33Z</time>
      </trkpt>
      <trkpt lat="45.08381" lon="5.17851">
        <ele>166.22099304199</ele>
        <time>2009-05-27T12:01:50Z</time>
      </trkpt>
      <trkpt lat="45.08477" lon="5.18033">
        <ele>161.58500671387</ele>
        <time>2009-05-27T12:02:06Z</time>
      </trkpt>
      <trkpt lat="45.08519" lon="5.18157">
        <ele>160.2200012207</ele>
        <time>2009-05-27T12:02:16Z</time>
      </trkpt>
      <trkpt lat="45.08534" lon="5.18204">
        <ele>159.68400573731</ele>
        <time>2009-05-27T12:02:21Z</time>
      </trkpt>
      <trkpt lat="45.08541" lon="5.18225">
        <ele>159.67700195312</ele>
        <time>2009-05-27T12:02:24Z</time>
      </trkpt>
      <trkpt lat="45.08551" lon="5.1826">
        <ele>158.44099426269</ele>
        <time>2009-05-27T12:02:31Z</time>
      </trkpt>
      <trkpt lat="45.08554" lon="5.18271">
        <ele>158.93699645996</ele>
        <time>2009-05-27T12:02:35Z</time>
      </trkpt>
      <trkpt lat="45.08556" lon="5.18281">
        <ele>158.29299926758</ele>
        <time>2009-05-27T12:02:40Z</time>
      </trkpt>
      <trkpt lat="45.08557" lon="5.18286">
        <ele>158.14799499512</ele>
        <time>2009-05-27T12:02:42Z</time>
      </trkpt>
      <trkpt lat="45.08559" lon="5.18293">
        <ele>157.99299621582</ele>
        <time>2009-05-27T12:02:46Z</time>
      </trkpt>
      <trkpt lat="45.08559" lon="5.18293">
        <ele>158.13400268555</ele>
        <time>2009-05-27T12:02:49Z</time>
      </trkpt>
      <trkpt lat="45.08564" lon="5.1831">
        <ele>157.69900512695</ele>
        <time>2009-05-27T12:03:18Z</time>
      </trkpt>
      <trkpt lat="45.08567" lon="5.1834">
        <ele>155.17300415039</ele>
        <time>2009-05-27T12:03:22Z</time>
      </trkpt>
      <trkpt lat="45.08568" lon="5.18377">
        <ele>154.27799987793</ele>
        <time>2009-05-27T12:03:26Z</time>
      </trkpt>
      <trkpt lat="45.08569" lon="5.18388">
        <ele>153.76100158691</ele>
        <time>2009-05-27T12:03:27Z</time>
      </trkpt>
      <trkpt lat="45.08569" lon="5.184">
        <ele>153.92199707031</ele>
        <time>2009-05-27T12:03:28Z</time>
      </trkpt>
      <trkpt lat="45.0857" lon="5.18434">
        <ele>152.11599731445</ele>
        <time>2009-05-27T12:03:31Z</time>
      </trkpt>
      <trkpt lat="45.08569" lon="5.18589">
        <ele>151.11199951172</ele>
        <time>2009-05-27T12:03:44Z</time>
      </trkpt>
      <trkpt lat="45.08566" lon="5.18745">
        <ele>150.42799377441</ele>
        <time>2009-05-27T12:03:58Z</time>
      </trkpt>
      <trkpt lat="45.08564" lon="5.18755">
        <ele>150.8690032959</ele>
        <time>2009-05-27T12:03:59Z</time>
      </trkpt>
      <trkpt lat="45.08543" lon="5.18822">
        <ele>151.62300109863</ele>
        <time>2009-05-27T12:04:07Z</time>
      </trkpt>
      <trkpt lat="45.08546" lon="5.18831">
        <ele>151.98699951172</ele>
        <time>2009-05-27T12:04:08Z</time>
      </trkpt>
      <trkpt lat="45.08557" lon="5.18877">
        <ele>152.53900146484</ele>
        <time>2009-05-27T12:04:13Z</time>
      </trkpt>
      <trkpt lat="45.08541" lon="5.19094">
        <ele>152.73199462891</ele>
        <time>2009-05-27T12:04:33Z</time>
      </trkpt>
      <trkpt lat="45.08524" lon="5.19342">
        <ele>153.83799743652</ele>
        <time>2009-05-27T12:04:56Z</time>
      </trkpt>
      <trkpt lat="45.08511" lon="5.19512">
        <ele>157.17399597168</ele>
        <time>2009-05-27T12:05:15Z</time>
      </trkpt>
      <trkpt lat="45.08507" lon="5.19585">
        <ele>159.2140045166</ele>
        <time>2009-05-27T12:05:24Z</time>
      </trkpt>
      <trkpt lat="45.08505" lon="5.1976">
        <ele>160.50399780273</ele>
        <time>2009-05-27T12:05:43Z</time>
      </trkpt>
      <trkpt lat="45.08502" lon="5.19954">
        <ele>161.87699890137</ele>
        <time>2009-05-27T12:06:03Z</time>
      </trkpt>
      <trkpt lat="45.08505" lon="5.20147">
        <ele>161.43299865723</ele>
        <time>2009-05-27T12:06:22Z</time>
      </trkpt>
      <trkpt lat="45.08509" lon="5.20348">
        <ele>162.58500671387</ele>
        <time>2009-05-27T12:06:42Z</time>
      </trkpt>
      <trkpt lat="45.08512" lon="5.20548">
        <ele>163.05000305176</ele>
        <time>2009-05-27T12:07:02Z</time>
      </trkpt>
      <trkpt lat="45.08516" lon="5.20756">
        <ele>163.06399536133</ele>
        <time>2009-05-27T12:07:23Z</time>
      </trkpt>
      <trkpt lat="45.08519" lon="5.20972">
        <ele>163.34100341797</ele>
        <time>2009-05-27T12:07:44Z</time>
      </trkpt>
      <trkpt lat="45.08503" lon="5.21069">
        <ele>165.93200683594</ele>
        <time>2009-05-27T12:07:57Z</time>
      </trkpt>
      <trkpt lat="45.0848" lon="5.21135">
        <ele>168.98699951172</ele>
        <time>2009-05-27T12:08:08Z</time>
      </trkpt>
      <trkpt lat="45.08477" lon="5.21147">
        <ele>169.36199951172</ele>
        <time>2009-05-27T12:08:10Z</time>
      </trkpt>
      <trkpt lat="45.08472" lon="5.21172">
        <ele>169.875</ele>
        <time>2009-05-27T12:08:14Z</time>
      </trkpt>
      <trkpt lat="45.0847" lon="5.21198">
        <ele>171.3869934082</ele>
        <time>2009-05-27T12:08:18Z</time>
      </trkpt>
      <trkpt lat="45.08438" lon="5.21277">
        <ele>172.50500488281</ele>
        <time>2009-05-27T12:08:31Z</time>
      </trkpt>
      <trkpt lat="45.08429" lon="5.21326">
        <ele>175.36199951172</ele>
        <time>2009-05-27T12:08:41Z</time>
      </trkpt>
      <trkpt lat="45.08424" lon="5.21348">
        <ele>177.30499267578</ele>
        <time>2009-05-27T12:08:46Z</time>
      </trkpt>
      <trkpt lat="45.08422" lon="5.21358">
        <ele>177.49299621582</ele>
        <time>2009-05-27T12:08:48Z</time>
      </trkpt>
      <trkpt lat="45.08418" lon="5.21375">
        <ele>177.40899658203</ele>
        <time>2009-05-27T12:08:51Z</time>
      </trkpt>
      <trkpt lat="45.08386" lon="5.21446">
        <ele>177.24499511719</ele>
        <time>2009-05-27T12:09:02Z</time>
      </trkpt>
      <trkpt lat="45.08383" lon="5.21484">
        <ele>177.95700073242</ele>
        <time>2009-05-27T12:09:07Z</time>
      </trkpt>
      <trkpt lat="45.08386" lon="5.21497">
        <ele>178.06599426269</ele>
        <time>2009-05-27T12:09:09Z</time>
      </trkpt>
      <trkpt lat="45.08383" lon="5.21521">
        <ele>178.80099487305</ele>
        <time>2009-05-27T12:09:13Z</time>
      </trkpt>
      <trkpt lat="45.08374" lon="5.21538">
        <ele>179.20399475098</ele>
        <time>2009-05-27T12:09:16Z</time>
      </trkpt>
      <trkpt lat="45.08367" lon="5.21548">
        <ele>179.5</ele>
        <time>2009-05-27T12:09:18Z</time>
      </trkpt>
      <trkpt lat="45.08369" lon="5.2161">
        <ele>179.71899414062</ele>
        <time>2009-05-27T12:09:27Z</time>
      </trkpt>
      <trkpt lat="45.08379" lon="5.21618">
        <ele>180.11000061035</ele>
        <time>2009-05-27T12:09:29Z</time>
      </trkpt>
      <trkpt lat="45.084" lon="5.2163">
        <ele>180.80900573731</ele>
        <time>2009-05-27T12:09:33Z</time>
      </trkpt>
      <trkpt lat="45.08423" lon="5.21689">
        <ele>184.24699401856</ele>
        <time>2009-05-27T12:09:43Z</time>
      </trkpt>
      <trkpt lat="45.08426" lon="5.217">
        <ele>185.06599426269</ele>
        <time>2009-05-27T12:09:45Z</time>
      </trkpt>
      <trkpt lat="45.08431" lon="5.21726">
        <ele>187.14100646973</ele>
        <time>2009-05-27T12:09:50Z</time>
      </trkpt>
      <trkpt lat="45.08431" lon="5.21746">
        <ele>188.99200439453</ele>
        <time>2009-05-27T12:09:54Z</time>
      </trkpt>
      <trkpt lat="45.08432" lon="5.21772">
        <ele>190.59399414062</ele>
        <time>2009-05-27T12:09:59Z</time>
      </trkpt>
      <trkpt lat="45.08437" lon="5.21782">
        <ele>190.03799438477</ele>
        <time>2009-05-27T12:10:01Z</time>
      </trkpt>
      <trkpt lat="45.08498" lon="5.2184">
        <ele>189.87100219727</ele>
        <time>2009-05-27T12:10:14Z</time>
      </trkpt>
      <trkpt lat="45.08514" lon="5.21848">
        <ele>190.22799682617</ele>
        <time>2009-05-27T12:10:17Z</time>
      </trkpt>
      <trkpt lat="45.08516" lon="5.21879">
        <ele>190.49200439453</ele>
        <time>2009-05-27T12:10:23Z</time>
      </trkpt>
      <trkpt lat="45.08498" lon="5.21918">
        <ele>190.90400695801</ele>
        <time>2009-05-27T12:10:29Z</time>
      </trkpt>
      <trkpt lat="45.08491" lon="5.21937">
        <ele>191.2440032959</ele>
        <time>2009-05-27T12:10:32Z</time>
      </trkpt>
      <trkpt lat="45.08475" lon="5.21982">
        <ele>191.56599426269</ele>
        <time>2009-05-27T12:10:39Z</time>
      </trkpt>
      <trkpt lat="45.08438" lon="5.22062">
        <ele>192.51499938965</ele>
        <time>2009-05-27T12:10:51Z</time>
      </trkpt>
      <trkpt lat="45.08371" lon="5.22174">
        <ele>191.90800476074</ele>
        <time>2009-05-27T12:11:07Z</time>
      </trkpt>
      <trkpt lat="45.08329" lon="5.22329">
        <ele>191.21099853516</ele>
        <time>2009-05-27T12:11:22Z</time>
      </trkpt>
      <trkpt lat="45.08289" lon="5.22499">
        <ele>190.10499572754</ele>
        <time>2009-05-27T12:11:38Z</time>
      </trkpt>
      <trkpt lat="45.08213" lon="5.22608">
        <ele>190.89399719238</ele>
        <time>2009-05-27T12:11:51Z</time>
      </trkpt>
      <trkpt lat="45.08146" lon="5.227">
        <ele>194.78399658203</ele>
        <time>2009-05-27T12:12:03Z</time>
      </trkpt>
      <trkpt lat="45.08104" lon="5.22768">
        <ele>198.125</ele>
        <time>2009-05-27T12:12:12Z</time>
      </trkpt>
      <trkpt lat="45.0804" lon="5.22934">
        <ele>200.73199462891</ele>
        <time>2009-05-27T12:12:31Z</time>
      </trkpt>
      <trkpt lat="45.08009" lon="5.23083">
        <ele>201.52799987793</ele>
        <time>2009-05-27T12:12:46Z</time>
      </trkpt>
      <trkpt lat="45.07943" lon="5.23272">
        <ele>202.97700500488</ele>
        <time>2009-05-27T12:13:06Z</time>
      </trkpt>
      <trkpt lat="45.07881" lon="5.23405">
        <ele>202.97399902344</ele>
        <time>2009-05-27T12:13:20Z</time>
      </trkpt>
      <trkpt lat="45.07834" lon="5.2357">
        <ele>203.21299743652</ele>
        <time>2009-05-27T12:13:36Z</time>
      </trkpt>
      <trkpt lat="45.07771" lon="5.23786">
        <ele>202.91999816894</ele>
        <time>2009-05-27T12:13:56Z</time>
      </trkpt>
      <trkpt lat="45.07708" lon="5.23994">
        <ele>201.42300415039</ele>
        <time>2009-05-27T12:14:15Z</time>
      </trkpt>
      <trkpt lat="45.07657" lon="5.24034">
        <ele>202.00700378418</ele>
        <time>2009-05-27T12:14:22Z</time>
      </trkpt>
      <trkpt lat="45.0744" lon="5.24054">
        <ele>200.24499511719</ele>
        <time>2009-05-27T12:14:45Z</time>
      </trkpt>
      <trkpt lat="45.07306" lon="5.24067">
        <ele>198.97900390625</ele>
        <time>2009-05-27T12:15:00Z</time>
      </trkpt>
      <trkpt lat="45.07258" lon="5.24071">
        <ele>197.13999938965</ele>
        <time>2009-05-27T12:15:05Z</time>
      </trkpt>
      <trkpt lat="45.07172" lon="5.24068">
        <ele>191.52299499512</ele>
        <time>2009-05-27T12:15:13Z</time>
      </trkpt>
      <trkpt lat="45.07131" lon="5.24053">
        <ele>191.20199584961</ele>
        <time>2009-05-27T12:15:17Z</time>
      </trkpt>
      <trkpt lat="45.07093" lon="5.24088">
        <ele>190.67500305176</ele>
        <time>2009-05-27T12:15:22Z</time>
      </trkpt>
      <trkpt lat="45.0709" lon="5.241">
        <ele>190.76499938965</ele>
        <time>2009-05-27T12:15:23Z</time>
      </trkpt>
      <trkpt lat="45.07062" lon="5.24243">
        <ele>192.11399841309</ele>
        <time>2009-05-27T12:15:35Z</time>
      </trkpt>
      <trkpt lat="45.07056" lon="5.24265">
        <ele>192.11700439453</ele>
        <time>2009-05-27T12:15:37Z</time>
      </trkpt>
      <trkpt lat="45.07032" lon="5.24324">
        <ele>192.03300476074</ele>
        <time>2009-05-27T12:15:43Z</time>
      </trkpt>
      <trkpt lat="45.06987" lon="5.24387">
        <ele>191.41700744629</ele>
        <time>2009-05-27T12:15:51Z</time>
      </trkpt>
      <trkpt lat="45.06946" lon="5.24394">
        <ele>189.55499267578</ele>
        <time>2009-05-27T12:15:56Z</time>
      </trkpt>
      <trkpt lat="45.06801" lon="5.24337">
        <ele>182.47799682617</ele>
        <time>2009-05-27T12:16:10Z</time>
      </trkpt>
      <trkpt lat="45.06571" lon="5.24245">
        <ele>179.70799255371</ele>
        <time>2009-05-27T12:16:32Z</time>
      </trkpt>
      <trkpt lat="45.06544" lon="5.24204">
        <ele>182.19000244141</ele>
        <time>2009-05-27T12:16:37Z</time>
      </trkpt>
      <trkpt lat="45.06538" lon="5.24186">
        <ele>182.75199890137</ele>
        <time>2009-05-27T12:16:39Z</time>
      </trkpt>
      <trkpt lat="45.06528" lon="5.24148">
        <ele>184.7859954834</ele>
        <time>2009-05-27T12:16:43Z</time>
      </trkpt>
      <trkpt lat="45.06517" lon="5.24122">
        <ele>185.84599304199</ele>
        <time>2009-05-27T12:16:47Z</time>
      </trkpt>
      <trkpt lat="45.06516" lon="5.2412">
        <ele>186.125</ele>
        <time>2009-05-27T12:16:48Z</time>
      </trkpt>
      <trkpt lat="45.06516" lon="5.24119">
        <ele>186.27699279785</ele>
        <time>2009-05-27T12:16:49Z</time>
      </trkpt>
      <trkpt lat="45.06515" lon="5.24119">
        <ele>186.32299804688</ele>
        <time>2009-05-27T12:16:51Z</time>
      </trkpt>
      <trkpt lat="45.06486" lon="5.24126">
        <ele>186.49600219727</ele>
        <time>2009-05-27T12:17:08Z</time>
      </trkpt>
      <trkpt lat="45.06409" lon="5.24174">
        <ele>187.92100524902</ele>
        <time>2009-05-27T12:17:23Z</time>
      </trkpt>
      <trkpt lat="45.06299" lon="5.24242">
        <ele>188.40199279785</ele>
        <time>2009-05-27T12:17:43Z</time>
      </trkpt>
      <trkpt lat="45.06203" lon="5.24255">
        <ele>186.49800109863</ele>
        <time>2009-05-27T12:17:57Z</time>
      </trkpt>
      <trkpt lat="45.06086" lon="5.24272">
        <ele>184.16600036621</ele>
        <time>2009-05-27T12:18:11Z</time>
      </trkpt>
      <trkpt lat="45.06052" lon="5.24288">
        <ele>183.12899780273</ele>
        <time>2009-05-27T12:18:15Z</time>
      </trkpt>
      <trkpt lat="45.06004" lon="5.2435">
        <ele>181.05700683594</ele>
        <time>2009-05-27T12:18:22Z</time>
      </trkpt>
      <trkpt lat="45.05983" lon="5.24395">
        <ele>180.04400634766</ele>
        <time>2009-05-27T12:18:26Z</time>
      </trkpt>
      <trkpt lat="45.0598" lon="5.24448">
        <ele>179.32000732422</ele>
        <time>2009-05-27T12:18:30Z</time>
      </trkpt>
      <trkpt lat="45.05991" lon="5.24632">
        <ele>174.92300415039</ele>
        <time>2009-05-27T12:18:44Z</time>
      </trkpt>
      <trkpt lat="45.05994" lon="5.24657">
        <ele>173.92900085449</ele>
        <time>2009-05-27T12:18:46Z</time>
      </trkpt>
      <trkpt lat="45.06044" lon="5.24703">
        <ele>172.76499938965</ele>
        <time>2009-05-27T12:18:54Z</time>
      </trkpt>
      <trkpt lat="45.0605" lon="5.24706">
        <ele>172.70399475098</ele>
        <time>2009-05-27T12:18:55Z</time>
      </trkpt>
      <trkpt lat="45.06156" lon="5.24754">
        <ele>170.34899902344</ele>
        <time>2009-05-27T12:19:09Z</time>
      </trkpt>
      <trkpt lat="45.06179" lon="5.24792">
        <ele>171.59800720215</ele>
        <time>2009-05-27T12:19:14Z</time>
      </trkpt>
      <trkpt lat="45.06189" lon="5.2488">
        <ele>172.75999450684</ele>
        <time>2009-05-27T12:19:23Z</time>
      </trkpt>
      <trkpt lat="45.06193" lon="5.25003">
        <ele>174.13600158691</ele>
        <time>2009-05-27T12:19:36Z</time>
      </trkpt>
      <trkpt lat="45.06174" lon="5.25176">
        <ele>176.44599914551</ele>
        <time>2009-05-27T12:19:55Z</time>
      </trkpt>
      <trkpt lat="45.06161" lon="5.25259">
        <ele>177.62600708008</ele>
        <time>2009-05-27T12:20:04Z</time>
      </trkpt>
      <trkpt lat="45.0614" lon="5.25392">
        <ele>179.23300170898</ele>
        <time>2009-05-27T12:20:19Z</time>
      </trkpt>
      <trkpt lat="45.06131" lon="5.25462">
        <ele>180.00100708008</ele>
        <time>2009-05-27T12:20:27Z</time>
      </trkpt>
      <trkpt lat="45.06129" lon="5.25479">
        <ele>180.56799316406</ele>
        <time>2009-05-27T12:20:29Z</time>
      </trkpt>
      <trkpt lat="45.06147" lon="5.2561">
        <ele>181.73699951172</ele>
        <time>2009-05-27T12:20:44Z</time>
      </trkpt>
      <trkpt lat="45.0617" lon="5.25722">
        <ele>183.44200134277</ele>
        <time>2009-05-27T12:20:58Z</time>
      </trkpt>
      <trkpt lat="45.06197" lon="5.25889">
        <ele>184.9109954834</ele>
        <time>2009-05-27T12:21:18Z</time>
      </trkpt>
      <trkpt lat="45.06217" lon="5.26037">
        <ele>186.9049987793</ele>
        <time>2009-05-27T12:21:35Z</time>
      </trkpt>
      <trkpt lat="45.06232" lon="5.26222">
        <ele>189.77299499512</ele>
        <time>2009-05-27T12:21:56Z</time>
      </trkpt>
      <trkpt lat="45.06253" lon="5.26405">
        <ele>191.72099304199</ele>
        <time>2009-05-27T12:22:17Z</time>
      </trkpt>
      <trkpt lat="45.06304" lon="5.26491">
        <ele>192.9940032959</ele>
        <time>2009-05-27T12:22:30Z</time>
      </trkpt>
      <trkpt lat="45.06351" lon="5.26598">
        <ele>194.24200439453</ele>
        <time>2009-05-27T12:22:44Z</time>
      </trkpt>
      <trkpt lat="45.06411" lon="5.26771">
        <ele>196.11799621582</ele>
        <time>2009-05-27T12:23:07Z</time>
      </trkpt>
      <trkpt lat="45.06413" lon="5.26779">
        <ele>196.12899780273</ele>
        <time>2009-05-27T12:23:08Z</time>
      </trkpt>
      <trkpt lat="45.06398" lon="5.26819">
        <ele>196.33700561523</ele>
        <time>2009-05-27T12:23:14Z</time>
      </trkpt>
      <trkpt lat="45.06385" lon="5.26823">
        <ele>196.30400085449</ele>
        <time>2009-05-27T12:23:16Z</time>
      </trkpt>
      <trkpt lat="45.06308" lon="5.26858">
        <ele>197.17100524902</ele>
        <time>2009-05-27T12:23:28Z</time>
      </trkpt>
      <trkpt lat="45.06281" lon="5.26906">
        <ele>196.8690032959</ele>
        <time>2009-05-27T12:23:34Z</time>
      </trkpt>
      <trkpt lat="45.06231" lon="5.27062">
        <ele>194.57600402832</ele>
        <time>2009-05-27T12:23:49Z</time>
      </trkpt>
      <trkpt lat="45.06206" lon="5.27101">
        <ele>192.83999633789</ele>
        <time>2009-05-27T12:23:53Z</time>
      </trkpt>
      <trkpt lat="45.06113" lon="5.27277">
        <ele>186.86599731445</ele>
        <time>2009-05-27T12:24:09Z</time>
      </trkpt>
      <trkpt lat="45.06109" lon="5.2729">
        <ele>186.62300109863</ele>
        <time>2009-05-27T12:24:10Z</time>
      </trkpt>
      <trkpt lat="45.06081" lon="5.27451">
        <ele>182.08200073242</ele>
        <time>2009-05-27T12:24:21Z</time>
      </trkpt>
      <trkpt lat="45.06089" lon="5.27582">
        <ele>179.3390045166</ele>
        <time>2009-05-27T12:24:30Z</time>
      </trkpt>
      <trkpt lat="45.06093" lon="5.27596">
        <ele>178.47200012207</ele>
        <time>2009-05-27T12:24:31Z</time>
      </trkpt>
      <trkpt lat="45.061" lon="5.27626">
        <ele>177.81399536133</ele>
        <time>2009-05-27T12:24:33Z</time>
      </trkpt>
      <trkpt lat="45.06102" lon="5.27674">
        <ele>176.90199279785</ele>
        <time>2009-05-27T12:24:36Z</time>
      </trkpt>
      <trkpt lat="45.061" lon="5.27704">
        <ele>176.65600585938</ele>
        <time>2009-05-27T12:24:38Z</time>
      </trkpt>
      <trkpt lat="45.06115" lon="5.27815">
        <ele>174.09899902344</ele>
        <time>2009-05-27T12:24:46Z</time>
      </trkpt>
      <trkpt lat="45.06125" lon="5.27851">
        <ele>173.74899291992</ele>
        <time>2009-05-27T12:24:49Z</time>
      </trkpt>
      <trkpt lat="45.06144" lon="5.27894">
        <ele>173.30599975586</ele>
        <time>2009-05-27T12:24:53Z</time>
      </trkpt>
      <trkpt lat="45.06154" lon="5.27954">
        <ele>173.01600646973</ele>
        <time>2009-05-27T12:24:58Z</time>
      </trkpt>
      <trkpt lat="45.06124" lon="5.28115">
        <ele>174.34599304199</ele>
        <time>2009-05-27T12:25:12Z</time>
      </trkpt>
      <trkpt lat="45.06102" lon="5.28184">
        <ele>175.64399719238</ele>
        <time>2009-05-27T12:25:20Z</time>
      </trkpt>
      <trkpt lat="45.061" lon="5.28243">
        <ele>176.03300476074</ele>
        <time>2009-05-27T12:25:26Z</time>
      </trkpt>
      <trkpt lat="45.06094" lon="5.28287">
        <ele>176.625</ele>
        <time>2009-05-27T12:25:31Z</time>
      </trkpt>
      <trkpt lat="45.06087" lon="5.28312">
        <ele>177.38000488281</ele>
        <time>2009-05-27T12:25:34Z</time>
      </trkpt>
      <trkpt lat="45.06081" lon="5.28336">
        <ele>177.75799560547</ele>
        <time>2009-05-27T12:25:37Z</time>
      </trkpt>
      <trkpt lat="45.06076" lon="5.28371">
        <ele>177.83599853516</ele>
        <time>2009-05-27T12:25:41Z</time>
      </trkpt>
      <trkpt lat="45.06076" lon="5.28526">
        <ele>178.4049987793</ele>
        <time>2009-05-27T12:25:57Z</time>
      </trkpt>
      <trkpt lat="45.06116" lon="5.28691">
        <ele>178.44700622559</ele>
        <time>2009-05-27T12:26:14Z</time>
      </trkpt>
      <trkpt lat="45.06179" lon="5.28843">
        <ele>178.72700500488</ele>
        <time>2009-05-27T12:26:32Z</time>
      </trkpt>
      <trkpt lat="45.06251" lon="5.2896">
        <ele>179.29299926758</ele>
        <time>2009-05-27T12:26:48Z</time>
      </trkpt>
      <trkpt lat="45.0633" lon="5.29004">
        <ele>179.68800354004</ele>
        <time>2009-05-27T12:27:00Z</time>
      </trkpt>
      <trkpt lat="45.06386" lon="5.29098">
        <ele>179.49200439453</ele>
        <time>2009-05-27T12:27:12Z</time>
      </trkpt>
      <trkpt lat="45.06409" lon="5.29227">
        <ele>179.5890045166</ele>
        <time>2009-05-27T12:27:25Z</time>
      </trkpt>
      <trkpt lat="45.06409" lon="5.29277">
        <ele>180.46200561523</ele>
        <time>2009-05-27T12:27:30Z</time>
      </trkpt>
      <trkpt lat="45.064" lon="5.29407">
        <ele>179.9940032959</ele>
        <time>2009-05-27T12:27:44Z</time>
      </trkpt>
      <trkpt lat="45.06392" lon="5.29582">
        <ele>180.5950012207</ele>
        <time>2009-05-27T12:28:03Z</time>
      </trkpt>
      <trkpt lat="45.06385" lon="5.29764">
        <ele>180.80099487305</ele>
        <time>2009-05-27T12:28:23Z</time>
      </trkpt>
      <trkpt lat="45.06377" lon="5.29932">
        <ele>183.88000488281</ele>
        <time>2009-05-27T12:28:44Z</time>
      </trkpt>
      <trkpt lat="45.06374" lon="5.29991">
        <ele>185.82499694824</ele>
        <time>2009-05-27T12:28:52Z</time>
      </trkpt>
      <trkpt lat="45.06346" lon="5.30098">
        <ele>188.8809967041</ele>
        <time>2009-05-27T12:29:08Z</time>
      </trkpt>
      <trkpt lat="45.06331" lon="5.30129">
        <ele>189.65800476074</ele>
        <time>2009-05-27T12:29:13Z</time>
      </trkpt>
      <trkpt lat="45.06304" lon="5.30196">
        <ele>191.17199707031</ele>
        <time>2009-05-27T12:29:24Z</time>
      </trkpt>
      <trkpt lat="45.06291" lon="5.30227">
        <ele>191.74000549316</ele>
        <time>2009-05-27T12:29:29Z</time>
      </trkpt>
      <trkpt lat="45.06289" lon="5.30242">
        <ele>191.90100097656</ele>
        <time>2009-05-27T12:29:31Z</time>
      </trkpt>
      <trkpt lat="45.06275" lon="5.30274">
        <ele>191.52600097656</ele>
        <time>2009-05-27T12:29:35Z</time>
      </trkpt>
      <trkpt lat="45.06263" lon="5.3033">
        <ele>192.0950012207</ele>
        <time>2009-05-27T12:29:42Z</time>
      </trkpt>
      <trkpt lat="45.06259" lon="5.30345">
        <ele>192.08999633789</ele>
        <time>2009-05-27T12:29:44Z</time>
      </trkpt>
      <trkpt lat="45.06223" lon="5.30414">
        <ele>193.02699279785</ele>
        <time>2009-05-27T12:29:55Z</time>
      </trkpt>
      <trkpt lat="45.06219" lon="5.3042">
        <ele>193.32299804688</ele>
        <time>2009-05-27T12:29:56Z</time>
      </trkpt>
      <trkpt lat="45.06211" lon="5.30434">
        <ele>193.42900085449</ele>
        <time>2009-05-27T12:29:58Z</time>
      </trkpt>
      <trkpt lat="45.062" lon="5.30453">
        <ele>193.83500671387</ele>
        <time>2009-05-27T12:30:01Z</time>
      </trkpt>
      <trkpt lat="45.06184" lon="5.30481">
        <ele>194.00399780273</ele>
        <time>2009-05-27T12:30:05Z</time>
      </trkpt>
      <trkpt lat="45.06178" lon="5.30494">
        <ele>194.46499633789</ele>
        <time>2009-05-27T12:30:07Z</time>
      </trkpt>
      <trkpt lat="45.06166" lon="5.30528">
        <ele>194.63200378418</ele>
        <time>2009-05-27T12:30:11Z</time>
      </trkpt>
      <trkpt lat="45.06158" lon="5.30555">
        <ele>194.88200378418</ele>
        <time>2009-05-27T12:30:14Z</time>
      </trkpt>
      <trkpt lat="45.061" lon="5.30678">
        <ele>196.72900390625</ele>
        <time>2009-05-27T12:30:30Z</time>
      </trkpt>
      <trkpt lat="45.06046" lon="5.3076">
        <ele>197.50500488281</ele>
        <time>2009-05-27T12:30:43Z</time>
      </trkpt>
      <trkpt lat="45.06029" lon="5.30777">
        <ele>197.6369934082</ele>
        <time>2009-05-27T12:30:46Z</time>
      </trkpt>
      <trkpt lat="45.05962" lon="5.30825">
        <ele>198.50999450684</ele>
        <time>2009-05-27T12:30:58Z</time>
      </trkpt>
      <trkpt lat="45.05938" lon="5.30831">
        <ele>198.875</ele>
        <time>2009-05-27T12:31:02Z</time>
      </trkpt>
      <trkpt lat="45.05906" lon="5.30839">
        <ele>199.94000244141</ele>
        <time>2009-05-27T12:31:08Z</time>
      </trkpt>
      <trkpt lat="45.05901" lon="5.30843">
        <ele>199.98699951172</ele>
        <time>2009-05-27T12:31:09Z</time>
      </trkpt>
      <trkpt lat="45.05895" lon="5.30847">
        <ele>199.81900024414</ele>
        <time>2009-05-27T12:31:10Z</time>
      </trkpt>
      <trkpt lat="45.05874" lon="5.30864">
        <ele>199.94000244141</ele>
        <time>2009-05-27T12:31:14Z</time>
      </trkpt>
      <trkpt lat="45.05846" lon="5.30874">
        <ele>199.79200744629</ele>
        <time>2009-05-27T12:31:19Z</time>
      </trkpt>
      <trkpt lat="45.05818" lon="5.30867">
        <ele>200.69999694824</ele>
        <time>2009-05-27T12:31:24Z</time>
      </trkpt>
      <trkpt lat="45.0574" lon="5.3083">
        <ele>202.2200012207</ele>
        <time>2009-05-27T12:31:38Z</time>
      </trkpt>
      <trkpt lat="45.05695" lon="5.30815">
        <ele>202.70799255371</ele>
        <time>2009-05-27T12:31:45Z</time>
      </trkpt>
      <trkpt lat="45.05613" lon="5.3084">
        <ele>203.91000366211</ele>
        <time>2009-05-27T12:31:57Z</time>
      </trkpt>
      <trkpt lat="45.05582" lon="5.30857">
        <ele>204.40899658203</ele>
        <time>2009-05-27T12:32:02Z</time>
      </trkpt>
      <trkpt lat="45.05561" lon="5.3088">
        <ele>204.63400268555</ele>
        <time>2009-05-27T12:32:06Z</time>
      </trkpt>
      <trkpt lat="45.05546" lon="5.3091">
        <ele>205.01400756836</ele>
        <time>2009-05-27T12:32:10Z</time>
      </trkpt>
      <trkpt lat="45.05521" lon="5.30972">
        <ele>206.30700683594</ele>
        <time>2009-05-27T12:32:18Z</time>
      </trkpt>
      <trkpt lat="45.05474" lon="5.31105">
        <ele>208.44099426269</ele>
        <time>2009-05-27T12:32:36Z</time>
      </trkpt>
      <trkpt lat="45.05459" lon="5.31232">
        <ele>210.29899597168</ele>
        <time>2009-05-27T12:32:52Z</time>
      </trkpt>
      <trkpt lat="45.0546" lon="5.31349">
        <ele>212.71299743652</ele>
        <time>2009-05-27T12:33:07Z</time>
      </trkpt>
      <trkpt lat="45.05502" lon="5.31465">
        <ele>214.47900390625</ele>
        <time>2009-05-27T12:33:23Z</time>
      </trkpt>
      <trkpt lat="45.05526" lon="5.31581">
        <ele>215.78799438477</ele>
        <time>2009-05-27T12:33:38Z</time>
      </trkpt>
      <trkpt lat="45.05521" lon="5.31737">
        <ele>219.33399963379</ele>
        <time>2009-05-27T12:33:57Z</time>
      </trkpt>
      <trkpt lat="45.05523" lon="5.3181">
        <ele>220.06500244141</ele>
        <time>2009-05-27T12:34:06Z</time>
      </trkpt>
      <trkpt lat="45.05566" lon="5.31862">
        <ele>221.39599609375</ele>
        <time>2009-05-27T12:34:16Z</time>
      </trkpt>
      <trkpt lat="45.05683" lon="5.319">
        <ele>223.625</ele>
        <time>2009-05-27T12:34:35Z</time>
      </trkpt>
      <trkpt lat="45.05749" lon="5.31964">
        <ele>224.76699829102</ele>
        <time>2009-05-27T12:34:48Z</time>
      </trkpt>
      <trkpt lat="45.05809" lon="5.32058">
        <ele>224.45199584961</ele>
        <time>2009-05-27T12:35:02Z</time>
      </trkpt>
      <trkpt lat="45.05817" lon="5.32124">
        <ele>223.55299377441</ele>
        <time>2009-05-27T12:35:09Z</time>
      </trkpt>
      <trkpt lat="45.05812" lon="5.32176">
        <ele>223.46800231934</ele>
        <time>2009-05-27T12:35:14Z</time>
      </trkpt>
      <trkpt lat="45.05838" lon="5.32248">
        <ele>222.39500427246</ele>
        <time>2009-05-27T12:35:22Z</time>
      </trkpt>
      <trkpt lat="45.05844" lon="5.32254">
        <ele>222.33200073242</ele>
        <time>2009-05-27T12:35:23Z</time>
      </trkpt>
      <trkpt lat="45.05864" lon="5.32273">
        <ele>221.66600036621</ele>
        <time>2009-05-27T12:35:26Z</time>
      </trkpt>
      <trkpt lat="45.0589" lon="5.32327">
        <ele>220.94900512695</ele>
        <time>2009-05-27T12:35:32Z</time>
      </trkpt>
      <trkpt lat="45.05901" lon="5.32475">
        <ele>219.50500488281</ele>
        <time>2009-05-27T12:35:45Z</time>
      </trkpt>
      <trkpt lat="45.059" lon="5.32523">
        <ele>218.63499450684</ele>
        <time>2009-05-27T12:35:49Z</time>
      </trkpt>
      <trkpt lat="45.05885" lon="5.32605">
        <ele>217.63200378418</ele>
        <time>2009-05-27T12:35:56Z</time>
      </trkpt>
      <trkpt lat="45.05904" lon="5.32665">
        <ele>216.75700378418</ele>
        <time>2009-05-27T12:36:02Z</time>
      </trkpt>
      <trkpt lat="45.0592" lon="5.32673">
        <ele>216.68600463867</ele>
        <time>2009-05-27T12:36:04Z</time>
      </trkpt>
      <trkpt lat="45.05945" lon="5.32679">
        <ele>215.93800354004</ele>
        <time>2009-05-27T12:36:07Z</time>
      </trkpt>
      <trkpt lat="45.0603" lon="5.32763">
        <ele>214.01499938965</ele>
        <time>2009-05-27T12:36:19Z</time>
      </trkpt>
      <trkpt lat="45.06064" lon="5.32834">
        <ele>213.10200500488</ele>
        <time>2009-05-27T12:36:26Z</time>
      </trkpt>
      <trkpt lat="45.06073" lon="5.32881">
        <ele>212.05000305176</ele>
        <time>2009-05-27T12:36:30Z</time>
      </trkpt>
      <trkpt lat="45.06075" lon="5.32969">
        <ele>211.46800231934</ele>
        <time>2009-05-27T12:36:37Z</time>
      </trkpt>
      <trkpt lat="45.06118" lon="5.33104">
        <ele>209.2380065918</ele>
        <time>2009-05-27T12:36:49Z</time>
      </trkpt>
      <trkpt lat="45.0616" lon="5.33257">
        <ele>207.77099609375</ele>
        <time>2009-05-27T12:37:02Z</time>
      </trkpt>
      <trkpt lat="45.06225" lon="5.33397">
        <ele>206.49499511719</ele>
        <time>2009-05-27T12:37:16Z</time>
      </trkpt>
      <trkpt lat="45.0624" lon="5.33419">
        <ele>206.49499511719</ele>
        <time>2009-05-27T12:37:19Z</time>
      </trkpt>
      <trkpt lat="45.06272" lon="5.33439">
        <ele>206.07899475098</ele>
        <time>2009-05-27T12:37:24Z</time>
      </trkpt>
      <trkpt lat="45.06286" lon="5.33445">
        <ele>205.9109954834</ele>
        <time>2009-05-27T12:37:26Z</time>
      </trkpt>
      <trkpt lat="45.06374" lon="5.33473">
        <ele>204.15199279785</ele>
        <time>2009-05-27T12:37:37Z</time>
      </trkpt>
      <trkpt lat="45.06427" lon="5.33528">
        <ele>202.70799255371</ele>
        <time>2009-05-27T12:37:45Z</time>
      </trkpt>
      <trkpt lat="45.0644" lon="5.33545">
        <ele>202.64999389648</ele>
        <time>2009-05-27T12:37:47Z</time>
      </trkpt>
      <trkpt lat="45.06444" lon="5.33603">
        <ele>201.24499511719</ele>
        <time>2009-05-27T12:37:52Z</time>
      </trkpt>
      <trkpt lat="45.06415" lon="5.33684">
        <ele>201.07800292969</ele>
        <time>2009-05-27T12:38:00Z</time>
      </trkpt>
      <trkpt lat="45.06366" lon="5.33782">
        <ele>201.28900146484</ele>
        <time>2009-05-27T12:38:12Z</time>
      </trkpt>
      <trkpt lat="45.06301" lon="5.33899">
        <ele>202.20599365234</ele>
        <time>2009-05-27T12:38:28Z</time>
      </trkpt>
      <trkpt lat="45.06274" lon="5.33976">
        <ele>201.99899291992</ele>
        <time>2009-05-27T12:38:37Z</time>
      </trkpt>
      <trkpt lat="45.06269" lon="5.33993">
        <ele>202.03700256348</ele>
        <time>2009-05-27T12:38:39Z</time>
      </trkpt>
      <trkpt lat="45.06241" lon="5.34071">
        <ele>203.01600646973</ele>
        <time>2009-05-27T12:38:48Z</time>
      </trkpt>
      <trkpt lat="45.06236" lon="5.34088">
        <ele>203.19000244141</ele>
        <time>2009-05-27T12:38:50Z</time>
      </trkpt>
      <trkpt lat="45.06234" lon="5.34104">
        <ele>203.62600708008</ele>
        <time>2009-05-27T12:38:52Z</time>
      </trkpt>
      <trkpt lat="45.06233" lon="5.3412">
        <ele>204.02099609375</ele>
        <time>2009-05-27T12:38:54Z</time>
      </trkpt>
      <trkpt lat="45.06232" lon="5.34136">
        <ele>203.86599731445</ele>
        <time>2009-05-27T12:38:56Z</time>
      </trkpt>
      <trkpt lat="45.06219" lon="5.34179">
        <ele>204.58099365234</ele>
        <time>2009-05-27T12:39:01Z</time>
      </trkpt>
      <trkpt lat="45.06215" lon="5.34194">
        <ele>204.73500061035</ele>
        <time>2009-05-27T12:39:03Z</time>
      </trkpt>
      <trkpt lat="45.0621" lon="5.34217">
        <ele>205.32800292969</ele>
        <time>2009-05-27T12:39:06Z</time>
      </trkpt>
      <trkpt lat="45.06206" lon="5.34237">
        <ele>205.7799987793</ele>
        <time>2009-05-27T12:39:09Z</time>
      </trkpt>
      <trkpt lat="45.06181" lon="5.34303">
        <ele>207.61500549316</ele>
        <time>2009-05-27T12:39:19Z</time>
      </trkpt>
      <trkpt lat="45.0617" lon="5.34325">
        <ele>208.25700378418</ele>
        <time>2009-05-27T12:39:23Z</time>
      </trkpt>
      <trkpt lat="45.06155" lon="5.34342">
        <ele>208.63600158691</ele>
        <time>2009-05-27T12:39:26Z</time>
      </trkpt>
      <trkpt lat="45.06144" lon="5.34357">
        <ele>208.26800537109</ele>
        <time>2009-05-27T12:39:29Z</time>
      </trkpt>
      <trkpt lat="45.06123" lon="5.34393">
        <ele>206.56100463867</ele>
        <time>2009-05-27T12:39:34Z</time>
      </trkpt>
      <trkpt lat="45.06112" lon="5.34409">
        <ele>205.65199279785</ele>
        <time>2009-05-27T12:39:36Z</time>
      </trkpt>
      <trkpt lat="45.06105" lon="5.34428">
        <ele>204.87699890137</ele>
        <time>2009-05-27T12:39:38Z</time>
      </trkpt>
      <trkpt lat="45.061" lon="5.34459">
        <ele>205.48199462891</ele>
        <time>2009-05-27T12:39:41Z</time>
      </trkpt>
      <trkpt lat="45.06098" lon="5.34497">
        <ele>206.93800354004</ele>
        <time>2009-05-27T12:39:45Z</time>
      </trkpt>
      <trkpt lat="45.061" lon="5.3457">
        <ele>209.84700012207</ele>
        <time>2009-05-27T12:39:53Z</time>
      </trkpt>
      <trkpt lat="45.06104" lon="5.34591">
        <ele>210.36000061035</ele>
        <time>2009-05-27T12:39:56Z</time>
      </trkpt>
      <trkpt lat="45.06057" lon="5.34641">
        <ele>212.19999694824</ele>
        <time>2009-05-27T12:40:05Z</time>
      </trkpt>
      <trkpt lat="45.0605" lon="5.34658">
        <ele>213.83700561523</ele>
        <time>2009-05-27T12:40:12Z</time>
      </trkpt>
      <trkpt lat="45.06048" lon="5.34664">
        <ele>214.01699829102</ele>
        <time>2009-05-27T12:40:13Z</time>
      </trkpt>
      <trkpt lat="45.06068" lon="5.34734">
        <ele>214.75700378418</ele>
        <time>2009-05-27T12:40:22Z</time>
      </trkpt>
      <trkpt lat="45.06071" lon="5.3474">
        <ele>215.27299499512</ele>
        <time>2009-05-27T12:40:23Z</time>
      </trkpt>
      <trkpt lat="45.06095" lon="5.34784">
        <ele>215.84399414062</ele>
        <time>2009-05-27T12:40:30Z</time>
      </trkpt>
      <trkpt lat="45.0616" lon="5.34867">
        <ele>217.71000671387</ele>
        <time>2009-05-27T12:40:46Z</time>
      </trkpt>
      <trkpt lat="45.06174" lon="5.349">
        <ele>218.66900634766</ele>
        <time>2009-05-27T12:40:52Z</time>
      </trkpt>
      <trkpt lat="45.06181" lon="5.34915">
        <ele>218.94700622559</ele>
        <time>2009-05-27T12:40:55Z</time>
      </trkpt>
      <trkpt lat="45.06184" lon="5.34923">
        <ele>219.23500061035</ele>
        <time>2009-05-27T12:40:57Z</time>
      </trkpt>
      <trkpt lat="45.06189" lon="5.34925">
        <ele>219.46600341797</ele>
        <time>2009-05-27T12:40:58Z</time>
      </trkpt>
      <trkpt lat="45.06194" lon="5.34932">
        <ele>219.59700012207</ele>
        <time>2009-05-27T12:41:00Z</time>
      </trkpt>
      <trkpt lat="45.06197" lon="5.34934">
        <ele>219.7140045166</ele>
        <time>2009-05-27T12:41:01Z</time>
      </trkpt>
      <trkpt lat="45.06202" lon="5.34941">
        <ele>220.10899353027</ele>
        <time>2009-05-27T12:41:03Z</time>
      </trkpt>
      <trkpt lat="45.06207" lon="5.34948">
        <ele>220.62199401856</ele>
        <time>2009-05-27T12:41:05Z</time>
      </trkpt>
      <trkpt lat="45.06211" lon="5.34961">
        <ele>221.15199279785</ele>
        <time>2009-05-27T12:41:08Z</time>
      </trkpt>
      <trkpt lat="45.06212" lon="5.34965">
        <ele>221.23300170898</ele>
        <time>2009-05-27T12:41:09Z</time>
      </trkpt>
      <trkpt lat="45.06214" lon="5.34969">
        <ele>221.50900268555</ele>
        <time>2009-05-27T12:41:10Z</time>
      </trkpt>
      <trkpt lat="45.06218" lon="5.34977">
        <ele>221.35099792481</ele>
        <time>2009-05-27T12:41:12Z</time>
      </trkpt>
      <trkpt lat="45.06222" lon="5.34985">
        <ele>221.80599975586</ele>
        <time>2009-05-27T12:41:14Z</time>
      </trkpt>
      <trkpt lat="45.06224" lon="5.3499">
        <ele>222.01100158691</ele>
        <time>2009-05-27T12:41:15Z</time>
      </trkpt>
      <trkpt lat="45.06223" lon="5.34996">
        <ele>222.13900756836</ele>
        <time>2009-05-27T12:41:16Z</time>
      </trkpt>
      <trkpt lat="45.06248" lon="5.35018">
        <ele>223.47900390625</ele>
        <time>2009-05-27T12:41:21Z</time>
      </trkpt>
      <trkpt lat="45.06252" lon="5.35022">
        <ele>223.42300415039</ele>
        <time>2009-05-27T12:41:22Z</time>
      </trkpt>
      <trkpt lat="45.06261" lon="5.3503">
        <ele>224.02699279785</ele>
        <time>2009-05-27T12:41:24Z</time>
      </trkpt>
      <trkpt lat="45.0627" lon="5.35039">
        <ele>224.35400390625</ele>
        <time>2009-05-27T12:41:26Z</time>
      </trkpt>
      <trkpt lat="45.06281" lon="5.35042">
        <ele>224.58000183106</ele>
        <time>2009-05-27T12:41:27Z</time>
      </trkpt>
      <trkpt lat="45.06305" lon="5.35048">
        <ele>224.81500244141</ele>
        <time>2009-05-27T12:41:29Z</time>
      </trkpt>
      <trkpt lat="45.06426" lon="5.35148">
        <ele>228.15299987793</ele>
        <time>2009-05-27T12:41:47Z</time>
      </trkpt>
      <trkpt lat="45.0643" lon="5.35154">
        <ele>228.43600463867</ele>
        <time>2009-05-27T12:41:48Z</time>
      </trkpt>
      <trkpt lat="45.06459" lon="5.35201">
        <ele>228.80900573731</ele>
        <time>2009-05-27T12:41:55Z</time>
      </trkpt>
      <trkpt lat="45.06483" lon="5.35276">
        <ele>229.92799377441</ele>
        <time>2009-05-27T12:42:05Z</time>
      </trkpt>
      <trkpt lat="45.06478" lon="5.35288">
        <ele>229.89199829102</ele>
        <time>2009-05-27T12:42:06Z</time>
      </trkpt>
      <trkpt lat="45.06488" lon="5.35323">
        <ele>230.88499450684</ele>
        <time>2009-05-27T12:42:11Z</time>
      </trkpt>
      <trkpt lat="45.06497" lon="5.35356">
        <ele>231.35200500488</ele>
        <time>2009-05-27T12:42:16Z</time>
      </trkpt>
      <trkpt lat="45.06495" lon="5.35399">
        <ele>231.40899658203</ele>
        <time>2009-05-27T12:42:22Z</time>
      </trkpt>
      <trkpt lat="45.06491" lon="5.35413">
        <ele>231.125</ele>
        <time>2009-05-27T12:42:24Z</time>
      </trkpt>
      <trkpt lat="45.06487" lon="5.35437">
        <ele>232.79800415039</ele>
        <time>2009-05-27T12:42:29Z</time>
      </trkpt>
      <trkpt lat="45.06476" lon="5.35482">
        <ele>234.62100219727</ele>
        <time>2009-05-27T12:42:40Z</time>
      </trkpt>
      <trkpt lat="45.06474" lon="5.35501">
        <ele>235.14199829102</ele>
        <time>2009-05-27T12:42:44Z</time>
      </trkpt>
      <trkpt lat="45.06459" lon="5.35553">
        <ele>237.0950012207</ele>
        <time>2009-05-27T12:42:53Z</time>
      </trkpt>
      <trkpt lat="45.06441" lon="5.35645">
        <ele>239.16400146484</ele>
        <time>2009-05-27T12:43:08Z</time>
      </trkpt>
      <trkpt lat="45.0644" lon="5.35663">
        <ele>239.72599792481</ele>
        <time>2009-05-27T12:43:11Z</time>
      </trkpt>
      <trkpt lat="45.06439" lon="5.35676">
        <ele>240.20799255371</ele>
        <time>2009-05-27T12:43:13Z</time>
      </trkpt>
      <trkpt lat="45.0644" lon="5.35709">
        <ele>240.74800109863</ele>
        <time>2009-05-27T12:43:18Z</time>
      </trkpt>
      <trkpt lat="45.06442" lon="5.35728">
        <ele>241.26600646973</ele>
        <time>2009-05-27T12:43:21Z</time>
      </trkpt>
      <trkpt lat="45.06445" lon="5.35755">
        <ele>241.875</ele>
        <time>2009-05-27T12:43:25Z</time>
      </trkpt>
      <trkpt lat="45.06455" lon="5.35817">
        <ele>245.01100158691</ele>
        <time>2009-05-27T12:43:35Z</time>
      </trkpt>
      <trkpt lat="45.06469" lon="5.35884">
        <ele>249.10800170898</ele>
        <time>2009-05-27T12:43:48Z</time>
      </trkpt>
      <trkpt lat="45.06495" lon="5.35929">
        <ele>252.83500671387</ele>
        <time>2009-05-27T12:43:59Z</time>
      </trkpt>
      <trkpt lat="45.06516" lon="5.35944">
        <ele>255.00199890137</ele>
        <time>2009-05-27T12:44:05Z</time>
      </trkpt>
      <trkpt lat="45.06524" lon="5.35974">
        <ele>257.18200683594</ele>
        <time>2009-05-27T12:44:11Z</time>
      </trkpt>
      <trkpt lat="45.06523" lon="5.35989">
        <ele>258.42498779297</ele>
        <time>2009-05-27T12:44:14Z</time>
      </trkpt>
      <trkpt lat="45.06538" lon="5.36044">
        <ele>262.37399291992</ele>
        <time>2009-05-27T12:44:26Z</time>
      </trkpt>
      <trkpt lat="45.06544" lon="5.36074">
        <ele>264.7919921875</ele>
        <time>2009-05-27T12:44:32Z</time>
      </trkpt>
      <trkpt lat="45.06535" lon="5.3613">
        <ele>268.79000854492</ele>
        <time>2009-05-27T12:44:44Z</time>
      </trkpt>
      <trkpt lat="45.06504" lon="5.36175">
        <ele>272.89199829102</ele>
        <time>2009-05-27T12:44:58Z</time>
      </trkpt>
      <trkpt lat="45.06495" lon="5.36228">
        <ele>276.95999145508</ele>
        <time>2009-05-27T12:45:11Z</time>
      </trkpt>
      <trkpt lat="45.0648" lon="5.36289">
        <ele>281.61199951172</ele>
        <time>2009-05-27T12:45:26Z</time>
      </trkpt>
      <trkpt lat="45.06448" lon="5.36356">
        <ele>287.51400756836</ele>
        <time>2009-05-27T12:45:43Z</time>
      </trkpt>
      <trkpt lat="45.06438" lon="5.36359">
        <ele>288.73498535156</ele>
        <time>2009-05-27T12:45:46Z</time>
      </trkpt>
      <trkpt lat="45.06385" lon="5.3638">
        <ele>294.14199829102</ele>
        <time>2009-05-27T12:46:04Z</time>
      </trkpt>
      <trkpt lat="45.06352" lon="5.36421">
        <ele>298.08999633789</ele>
        <time>2009-05-27T12:46:19Z</time>
      </trkpt>
      <trkpt lat="45.06336" lon="5.36452">
        <ele>301.22900390625</ele>
        <time>2009-05-27T12:46:31Z</time>
      </trkpt>
      <trkpt lat="45.06314" lon="5.36487">
        <ele>304.88500976562</ele>
        <time>2009-05-27T12:46:45Z</time>
      </trkpt>
      <trkpt lat="45.06284" lon="5.36523">
        <ele>308.65100097656</ele>
        <time>2009-05-27T12:47:00Z</time>
      </trkpt>
      <trkpt lat="45.06253" lon="5.36551">
        <ele>312.37799072266</ele>
        <time>2009-05-27T12:47:14Z</time>
      </trkpt>
      <trkpt lat="45.06237" lon="5.36591">
        <ele>316.5</ele>
        <time>2009-05-27T12:47:29Z</time>
      </trkpt>
      <trkpt lat="45.06214" lon="5.3662">
        <ele>319.57901000977</ele>
        <time>2009-05-27T12:47:42Z</time>
      </trkpt>
      <trkpt lat="45.0619" lon="5.3664">
        <ele>322.13000488281</ele>
        <time>2009-05-27T12:47:54Z</time>
      </trkpt>
      <trkpt lat="45.06159" lon="5.36656">
        <ele>325.69400024414</ele>
        <time>2009-05-27T12:48:06Z</time>
      </trkpt>
      <trkpt lat="45.06099" lon="5.3667">
        <ele>331.95599365234</ele>
        <time>2009-05-27T12:48:26Z</time>
      </trkpt>
      <trkpt lat="45.06058" lon="5.36666">
        <ele>335.84201049805</ele>
        <time>2009-05-27T12:48:42Z</time>
      </trkpt>
      <trkpt lat="45.05996" lon="5.3666">
        <ele>341.50201416016</ele>
        <time>2009-05-27T12:49:04Z</time>
      </trkpt>
      <trkpt lat="45.05954" lon="5.36688">
        <ele>346.0419921875</ele>
        <time>2009-05-27T12:49:19Z</time>
      </trkpt>
      <trkpt lat="45.05906" lon="5.36706">
        <ele>350.41000366211</ele>
        <time>2009-05-27T12:49:35Z</time>
      </trkpt>
      <trkpt lat="45.05865" lon="5.36729">
        <ele>354.74798583984</ele>
        <time>2009-05-27T12:49:48Z</time>
      </trkpt>
      <trkpt lat="45.05811" lon="5.36733">
        <ele>359.51699829102</ele>
        <time>2009-05-27T12:50:04Z</time>
      </trkpt>
      <trkpt lat="45.05772" lon="5.3675">
        <ele>363.50299072266</ele>
        <time>2009-05-27T12:50:17Z</time>
      </trkpt>
      <trkpt lat="45.05778" lon="5.36718">
        <ele>366.3630065918</ele>
        <time>2009-05-27T12:50:26Z</time>
      </trkpt>
      <trkpt lat="45.0578" lon="5.36715">
        <ele>366.62899780273</ele>
        <time>2009-05-27T12:50:27Z</time>
      </trkpt>
      <trkpt lat="45.05832" lon="5.36667">
        <ele>371.91299438477</ele>
        <time>2009-05-27T12:50:47Z</time>
      </trkpt>
      <trkpt lat="45.05872" lon="5.36628">
        <ele>375.42498779297</ele>
        <time>2009-05-27T12:51:04Z</time>
      </trkpt>
      <trkpt lat="45.05915" lon="5.36588">
        <ele>381.23001098633</ele>
        <time>2009-05-27T12:51:21Z</time>
      </trkpt>
      <trkpt lat="45.05925" lon="5.36541">
        <ele>384.99899291992</ele>
        <time>2009-05-27T12:51:35Z</time>
      </trkpt>
      <trkpt lat="45.05922" lon="5.36487">
        <ele>388.78698730469</ele>
        <time>2009-05-27T12:51:50Z</time>
      </trkpt>
      <trkpt lat="45.05923" lon="5.36455">
        <ele>391.12600708008</ele>
        <time>2009-05-27T12:52:00Z</time>
      </trkpt>
      <trkpt lat="45.05929" lon="5.36418">
        <ele>393.82299804688</ele>
        <time>2009-05-27T12:52:11Z</time>
      </trkpt>
      <trkpt lat="45.05948" lon="5.36405">
        <ele>395.67498779297</ele>
        <time>2009-05-27T12:52:18Z</time>
      </trkpt>
      <trkpt lat="45.05984" lon="5.36367">
        <ele>399.19100952148</ele>
        <time>2009-05-27T12:52:31Z</time>
      </trkpt>
      <trkpt lat="45.05988" lon="5.36302">
        <ele>402.50299072266</ele>
        <time>2009-05-27T12:52:44Z</time>
      </trkpt>
      <trkpt lat="45.05993" lon="5.36231">
        <ele>406.97100830078</ele>
        <time>2009-05-27T12:52:59Z</time>
      </trkpt>
      <trkpt lat="45.06005" lon="5.36173">
        <ele>409.94299316406</ele>
        <time>2009-05-27T12:53:13Z</time>
      </trkpt>
      <trkpt lat="45.06026" lon="5.36123">
        <ele>413.49499511719</ele>
        <time>2009-05-27T12:53:27Z</time>
      </trkpt>
      <trkpt lat="45.06025" lon="5.36119">
        <ele>414.10900878906</ele>
        <time>2009-05-27T12:53:28Z</time>
      </trkpt>
      <trkpt lat="45.06022" lon="5.36114">
        <ele>414.80099487305</ele>
        <time>2009-05-27T12:53:30Z</time>
      </trkpt>
      <trkpt lat="45.06015" lon="5.36121">
        <ele>415.32400512695</ele>
        <time>2009-05-27T12:53:34Z</time>
      </trkpt>
      <trkpt lat="45.05993" lon="5.3616">
        <ele>417.43399047852</ele>
        <time>2009-05-27T12:53:46Z</time>
      </trkpt>
      <trkpt lat="45.05941" lon="5.36246">
        <ele>422.46899414062</ele>
        <time>2009-05-27T12:54:09Z</time>
      </trkpt>
      <trkpt lat="45.05897" lon="5.36313">
        <ele>426.64401245117</ele>
        <time>2009-05-27T12:54:27Z</time>
      </trkpt>
      <trkpt lat="45.05863" lon="5.36379">
        <ele>430.68600463867</ele>
        <time>2009-05-27T12:54:43Z</time>
      </trkpt>
      <trkpt lat="45.0583" lon="5.36447">
        <ele>434.55499267578</ele>
        <time>2009-05-27T12:54:59Z</time>
      </trkpt>
      <trkpt lat="45.05787" lon="5.36477">
        <ele>438.09698486328</ele>
        <time>2009-05-27T12:55:13Z</time>
      </trkpt>
      <trkpt lat="45.05733" lon="5.36477">
        <ele>442.49301147461</ele>
        <time>2009-05-27T12:55:29Z</time>
      </trkpt>
      <trkpt lat="45.0569" lon="5.36472">
        <ele>445.79901123047</ele>
        <time>2009-05-27T12:55:41Z</time>
      </trkpt>
      <trkpt lat="45.05655" lon="5.3647">
        <ele>449.50201416016</ele>
        <time>2009-05-27T12:55:51Z</time>
      </trkpt>
      <trkpt lat="45.05606" lon="5.36491">
        <ele>454.20999145508</ele>
        <time>2009-05-27T12:56:07Z</time>
      </trkpt>
      <trkpt lat="45.05596" lon="5.36536">
        <ele>457.14700317383</ele>
        <time>2009-05-27T12:56:18Z</time>
      </trkpt>
      <trkpt lat="45.05572" lon="5.36593">
        <ele>461.17401123047</ele>
        <time>2009-05-27T12:56:32Z</time>
      </trkpt>
      <trkpt lat="45.05541" lon="5.36663">
        <ele>466.51501464844</ele>
        <time>2009-05-27T12:56:49Z</time>
      </trkpt>
      <trkpt lat="45.05532" lon="5.36704">
        <ele>470.22601318359</ele>
        <time>2009-05-27T12:56:59Z</time>
      </trkpt>
      <trkpt lat="45.05533" lon="5.36753">
        <ele>473.53698730469</ele>
        <time>2009-05-27T12:57:10Z</time>
      </trkpt>
      <trkpt lat="45.05528" lon="5.36813">
        <ele>477.08700561523</ele>
        <time>2009-05-27T12:57:24Z</time>
      </trkpt>
      <trkpt lat="45.05561" lon="5.36833">
        <ele>480.79699707031</ele>
        <time>2009-05-27T12:57:37Z</time>
      </trkpt>
      <trkpt lat="45.05607" lon="5.36859">
        <ele>484.9289855957</ele>
        <time>2009-05-27T12:57:54Z</time>
      </trkpt>
      <trkpt lat="45.05616" lon="5.36894">
        <ele>487.8210144043</ele>
        <time>2009-05-27T12:58:04Z</time>
      </trkpt>
      <trkpt lat="45.05606" lon="5.36979">
        <ele>493.13101196289</ele>
        <time>2009-05-27T12:58:23Z</time>
      </trkpt>
      <trkpt lat="45.05587" lon="5.37062">
        <ele>498.50698852539</ele>
        <time>2009-05-27T12:58:41Z</time>
      </trkpt>
      <trkpt lat="45.05559" lon="5.37102">
        <ele>501.71499633789</ele>
        <time>2009-05-27T12:58:54Z</time>
      </trkpt>
      <trkpt lat="45.05539" lon="5.37153">
        <ele>505.36401367188</ele>
        <time>2009-05-27T12:59:07Z</time>
      </trkpt>
      <trkpt lat="45.05534" lon="5.37178">
        <ele>506.85501098633</ele>
        <time>2009-05-27T12:59:13Z</time>
      </trkpt>
      <trkpt lat="45.05521" lon="5.37156">
        <ele>508.65899658203</ele>
        <time>2009-05-27T12:59:22Z</time>
      </trkpt>
      <trkpt lat="45.05522" lon="5.37147">
        <ele>508.92001342773</ele>
        <time>2009-05-27T12:59:24Z</time>
      </trkpt>
      <trkpt lat="45.05533" lon="5.37091">
        <ele>510.86199951172</ele>
        <time>2009-05-27T12:59:37Z</time>
      </trkpt>
      <trkpt lat="45.05544" lon="5.37028">
        <ele>513.34600830078</ele>
        <time>2009-05-27T12:59:51Z</time>
      </trkpt>
      <trkpt lat="45.05527" lon="5.36968">
        <ele>516.06896972656</ele>
        <time>2009-05-27T13:00:05Z</time>
      </trkpt>
      <trkpt lat="45.05481" lon="5.36961">
        <ele>518.26599121094</ele>
        <time>2009-05-27T13:00:17Z</time>
      </trkpt>
      <trkpt lat="45.05444" lon="5.36955">
        <ele>520.24401855469</ele>
        <time>2009-05-27T13:00:26Z</time>
      </trkpt>
      <trkpt lat="45.05425" lon="5.3694">
        <ele>521.56402587891</ele>
        <time>2009-05-27T13:00:31Z</time>
      </trkpt>
      <trkpt lat="45.05406" lon="5.36917">
        <ele>523.20098876953</ele>
        <time>2009-05-27T13:00:37Z</time>
      </trkpt>
      <trkpt lat="45.05387" lon="5.36886">
        <ele>525.33502197266</ele>
        <time>2009-05-27T13:00:44Z</time>
      </trkpt>
      <trkpt lat="45.05378" lon="5.36861">
        <ele>526.75201416016</ele>
        <time>2009-05-27T13:00:49Z</time>
      </trkpt>
      <trkpt lat="45.05371" lon="5.3683">
        <ele>528.11499023438</ele>
        <time>2009-05-27T13:00:55Z</time>
      </trkpt>
      <trkpt lat="45.05364" lon="5.36809">
        <ele>529.30700683594</ele>
        <time>2009-05-27T13:00:59Z</time>
      </trkpt>
      <trkpt lat="45.05343" lon="5.36781">
        <ele>531.83898925781</ele>
        <time>2009-05-27T13:01:06Z</time>
      </trkpt>
      <trkpt lat="45.0533" lon="5.36778">
        <ele>532.96600341797</ele>
        <time>2009-05-27T13:01:10Z</time>
      </trkpt>
      <trkpt lat="45.05329" lon="5.36773">
        <ele>532.76397705078</ele>
        <time>2009-05-27T13:01:13Z</time>
      </trkpt>
      <trkpt lat="45.05331" lon="5.36781">
        <ele>532.66302490234</ele>
        <time>2009-05-27T13:01:19Z</time>
      </trkpt>
      <trkpt lat="45.05319" lon="5.36818">
        <ele>534.66998291016</ele>
        <time>2009-05-27T13:01:31Z</time>
      </trkpt>
      <trkpt lat="45.05312" lon="5.36828">
        <ele>536.02099609375</ele>
        <time>2009-05-27T13:01:34Z</time>
      </trkpt>
      <trkpt lat="45.05284" lon="5.36868">
        <ele>540.11297607422</ele>
        <time>2009-05-27T13:01:45Z</time>
      </trkpt>
      <trkpt lat="45.05272" lon="5.3689">
        <ele>542.26702880859</ele>
        <time>2009-05-27T13:01:51Z</time>
      </trkpt>
      <trkpt lat="45.05254" lon="5.36953">
        <ele>546.541015625</ele>
        <time>2009-05-27T13:02:05Z</time>
      </trkpt>
      <trkpt lat="45.05263" lon="5.37036">
        <ele>551.01000976562</ele>
        <time>2009-05-27T13:02:21Z</time>
      </trkpt>
      <trkpt lat="45.0527" lon="5.37105">
        <ele>555.17401123047</ele>
        <time>2009-05-27T13:02:37Z</time>
      </trkpt>
      <trkpt lat="45.05251" lon="5.37144">
        <ele>557.2919921875</ele>
        <time>2009-05-27T13:02:47Z</time>
      </trkpt>
      <trkpt lat="45.05206" lon="5.37182">
        <ele>560.94201660156</ele>
        <time>2009-05-27T13:03:01Z</time>
      </trkpt>
      <trkpt lat="45.05203" lon="5.37185">
        <ele>561.22998046875</ele>
        <time>2009-05-27T13:03:02Z</time>
      </trkpt>
      <trkpt lat="45.05183" lon="5.37254">
        <ele>563.20697021484</ele>
        <time>2009-05-27T13:03:16Z</time>
      </trkpt>
      <trkpt lat="45.05181" lon="5.37282">
        <ele>563.77398681641</ele>
        <time>2009-05-27T13:03:20Z</time>
      </trkpt>
      <trkpt lat="45.0516" lon="5.37353">
        <ele>563.95697021484</ele>
        <time>2009-05-27T13:03:29Z</time>
      </trkpt>
      <trkpt lat="45.05115" lon="5.37382">
        <ele>565.04302978516</ele>
        <time>2009-05-27T13:03:39Z</time>
      </trkpt>
      <trkpt lat="45.0509" lon="5.37389">
        <ele>566.35998535156</ele>
        <time>2009-05-27T13:03:44Z</time>
      </trkpt>
      <trkpt lat="45.05072" lon="5.37378">
        <ele>566.16900634766</ele>
        <time>2009-05-27T13:03:48Z</time>
      </trkpt>
      <trkpt lat="45.05051" lon="5.37354">
        <ele>568.708984375</ele>
        <time>2009-05-27T13:03:54Z</time>
      </trkpt>
      <trkpt lat="45.05009" lon="5.37336">
        <ele>573.85302734375</ele>
        <time>2009-05-27T13:04:06Z</time>
      </trkpt>
      <trkpt lat="45.04969" lon="5.37339">
        <ele>577.38702392578</ele>
        <time>2009-05-27T13:04:17Z</time>
      </trkpt>
      <trkpt lat="45.04928" lon="5.3733">
        <ele>581.08898925781</ele>
        <time>2009-05-27T13:04:28Z</time>
      </trkpt>
      <trkpt lat="45.04911" lon="5.37326">
        <ele>582.4169921875</ele>
        <time>2009-05-27T13:04:34Z</time>
      </trkpt>
      <trkpt lat="45.04914" lon="5.37331">
        <ele>582.60601806641</ele>
        <time>2009-05-27T13:04:39Z</time>
      </trkpt>
      <trkpt lat="45.04914" lon="5.37331">
        <ele>582.03302001953</ele>
        <time>2009-05-27T13:04:41Z</time>
      </trkpt>
      <trkpt lat="45.04932" lon="5.37329">
        <ele>581.55499267578</ele>
        <time>2009-05-27T13:05:43Z</time>
      </trkpt>
      <trkpt lat="45.05" lon="5.3734">
        <ele>574.03601074219</ele>
        <time>2009-05-27T13:05:55Z</time>
      </trkpt>
      <trkpt lat="45.05007" lon="5.37339">
        <ele>573.21899414062</ele>
        <time>2009-05-27T13:05:56Z</time>
      </trkpt>
      <trkpt lat="45.05032" lon="5.37341">
        <ele>571.72198486328</ele>
        <time>2009-05-27T13:05:59Z</time>
      </trkpt>
      <trkpt lat="45.05075" lon="5.37377">
        <ele>566.98101806641</ele>
        <time>2009-05-27T13:06:04Z</time>
      </trkpt>
      <trkpt lat="45.05082" lon="5.37385">
        <ele>566.67602539062</ele>
        <time>2009-05-27T13:06:05Z</time>
      </trkpt>
      <trkpt lat="45.05099" lon="5.37394">
        <ele>566.708984375</ele>
        <time>2009-05-27T13:06:08Z</time>
      </trkpt>
      <trkpt lat="45.051" lon="5.37394">
        <ele>566.70397949219</ele>
        <time>2009-05-27T13:06:09Z</time>
      </trkpt>
      <trkpt lat="45.051" lon="5.37395">
        <ele>567.17199707031</ele>
        <time>2009-05-27T13:06:10Z</time>
      </trkpt>
      <trkpt lat="45.05122" lon="5.3738">
        <ele>565.0009765625</ele>
        <time>2009-05-27T13:06:46Z</time>
      </trkpt>
      <trkpt lat="45.05132" lon="5.37375">
        <ele>565.49200439453</ele>
        <time>2009-05-27T13:06:48Z</time>
      </trkpt>
      <trkpt lat="45.0515" lon="5.37365">
        <ele>565.82501220703</ele>
        <time>2009-05-27T13:06:51Z</time>
      </trkpt>
      <trkpt lat="45.05176" lon="5.37316">
        <ele>562.71997070312</ele>
        <time>2009-05-27T13:06:57Z</time>
      </trkpt>
      <trkpt lat="45.0519" lon="5.37232">
        <ele>562.53802490234</ele>
        <time>2009-05-27T13:07:06Z</time>
      </trkpt>
      <trkpt lat="45.05209" lon="5.3718">
        <ele>559.69500732422</ele>
        <time>2009-05-27T13:07:12Z</time>
      </trkpt>
      <trkpt lat="45.05244" lon="5.37145">
        <ele>557.96398925781</ele>
        <time>2009-05-27T13:07:17Z</time>
      </trkpt>
      <trkpt lat="45.0526" lon="5.3713">
        <ele>557.16400146484</ele>
        <time>2009-05-27T13:07:19Z</time>
      </trkpt>
      <trkpt lat="45.05275" lon="5.37073">
        <ele>553.69702148438</ele>
        <time>2009-05-27T13:07:23Z</time>
      </trkpt>
      <trkpt lat="45.05273" lon="5.37058">
        <ele>553.17297363281</ele>
        <time>2009-05-27T13:07:24Z</time>
      </trkpt>
      <trkpt lat="45.05268" lon="5.37026">
        <ele>550.42102050781</ele>
        <time>2009-05-27T13:07:26Z</time>
      </trkpt>
      <trkpt lat="45.05259" lon="5.36961">
        <ele>547.25897216797</ele>
        <time>2009-05-27T13:07:30Z</time>
      </trkpt>
      <trkpt lat="45.05265" lon="5.36905">
        <ele>544.69598388672</ele>
        <time>2009-05-27T13:07:36Z</time>
      </trkpt>
      <trkpt lat="45.05278" lon="5.36878">
        <ele>542.32000732422</ele>
        <time>2009-05-27T13:07:40Z</time>
      </trkpt>
      <trkpt lat="45.05298" lon="5.36849">
        <ele>539.71697998047</ele>
        <time>2009-05-27T13:07:46Z</time>
      </trkpt>
      <trkpt lat="45.05327" lon="5.368">
        <ele>534.94702148438</ele>
        <time>2009-05-27T13:07:59Z</time>
      </trkpt>
      <trkpt lat="45.05329" lon="5.36791">
        <ele>534.11199951172</ele>
        <time>2009-05-27T13:08:03Z</time>
      </trkpt>
      <trkpt lat="45.05325" lon="5.36791">
        <ele>534.00500488281</ele>
        <time>2009-05-27T13:08:16Z</time>
      </trkpt>
      <trkpt lat="45.05337" lon="5.36779">
        <ele>531.94702148438</ele>
        <time>2009-05-27T13:09:07Z</time>
      </trkpt>
      <trkpt lat="45.05342" lon="5.3678">
        <ele>531.40301513672</ele>
        <time>2009-05-27T13:09:08Z</time>
      </trkpt>
      <trkpt lat="45.0537" lon="5.36823">
        <ele>528.65502929688</ele>
        <time>2009-05-27T13:09:16Z</time>
      </trkpt>
      <trkpt lat="45.05375" lon="5.36845">
        <ele>528.19799804688</ele>
        <time>2009-05-27T13:09:19Z</time>
      </trkpt>
      <trkpt lat="45.054" lon="5.36906">
        <ele>524.48400878906</ele>
        <time>2009-05-27T13:09:31Z</time>
      </trkpt>
      <trkpt lat="45.05429" lon="5.36946">
        <ele>522.21899414062</ele>
        <time>2009-05-27T13:09:42Z</time>
      </trkpt>
      <trkpt lat="45.05442" lon="5.36957">
        <ele>521.02899169922</ele>
        <time>2009-05-27T13:09:45Z</time>
      </trkpt>
      <trkpt lat="45.05473" lon="5.36963">
        <ele>519.01397705078</ele>
        <time>2009-05-27T13:09:50Z</time>
      </trkpt>
      <trkpt lat="45.05524" lon="5.3697">
        <ele>515.72100830078</ele>
        <time>2009-05-27T13:09:57Z</time>
      </trkpt>
      <trkpt lat="45.05543" lon="5.37006">
        <ele>513.89099121094</ele>
        <time>2009-05-27T13:10:01Z</time>
      </trkpt>
      <trkpt lat="45.05543" lon="5.37055">
        <ele>511.56698608398</ele>
        <time>2009-05-27T13:10:05Z</time>
      </trkpt>
      <trkpt lat="45.05528" lon="5.37119">
        <ele>508.50500488281</ele>
        <time>2009-05-27T13:10:10Z</time>
      </trkpt>
      <trkpt lat="45.05524" lon="5.37147">
        <ele>508.12200927734</ele>
        <time>2009-05-27T13:10:12Z</time>
      </trkpt>
      <trkpt lat="45.05531" lon="5.37211">
        <ele>508.41598510742</ele>
        <time>2009-05-27T13:10:18Z</time>
      </trkpt>
      <trkpt lat="45.05527" lon="5.37219">
        <ele>509.24899291992</ele>
        <time>2009-05-27T13:10:19Z</time>
      </trkpt>
      <trkpt lat="45.0552" lon="5.37232">
        <ele>510.1369934082</ele>
        <time>2009-05-27T13:10:21Z</time>
      </trkpt>
      <trkpt lat="45.05514" lon="5.37255">
        <ele>511.43399047852</ele>
        <time>2009-05-27T13:10:24Z</time>
      </trkpt>
      <trkpt lat="45.05519" lon="5.37275">
        <ele>513.23101806641</ele>
        <time>2009-05-27T13:10:27Z</time>
      </trkpt>
      <trkpt lat="45.05526" lon="5.37284">
        <ele>513.89501953125</ele>
        <time>2009-05-27T13:10:29Z</time>
      </trkpt>
      <trkpt lat="45.05532" lon="5.3729">
        <ele>514.86499023438</ele>
        <time>2009-05-27T13:10:31Z</time>
      </trkpt>
      <trkpt lat="45.05535" lon="5.37292">
        <ele>515.27099609375</ele>
        <time>2009-05-27T13:10:32Z</time>
      </trkpt>
      <trkpt lat="45.05544" lon="5.37298">
        <ele>516.09301757812</ele>
        <time>2009-05-27T13:10:35Z</time>
      </trkpt>
      <trkpt lat="45.05563" lon="5.37305">
        <ele>518.10198974609</ele>
        <time>2009-05-27T13:10:41Z</time>
      </trkpt>
      <trkpt lat="45.05586" lon="5.37309">
        <ele>520.39001464844</ele>
        <time>2009-05-27T13:10:49Z</time>
      </trkpt>
      <trkpt lat="45.05615" lon="5.37297">
        <ele>522.74700927734</ele>
        <time>2009-05-27T13:10:59Z</time>
      </trkpt>
      <trkpt lat="45.05638" lon="5.37311">
        <ele>525.02801513672</ele>
        <time>2009-05-27T13:11:09Z</time>
      </trkpt>
      <trkpt lat="45.05656" lon="5.3736">
        <ele>527.09698486328</ele>
        <time>2009-05-27T13:11:22Z</time>
      </trkpt>
      <trkpt lat="45.05685" lon="5.37399">
        <ele>528.89099121094</ele>
        <time>2009-05-27T13:11:33Z</time>
      </trkpt>
      <trkpt lat="45.05692" lon="5.37405">
        <ele>529.07202148438</ele>
        <time>2009-05-27T13:11:35Z</time>
      </trkpt>
      <trkpt lat="45.05727" lon="5.37391">
        <ele>529.4990234375</ele>
        <time>2009-05-27T13:11:44Z</time>
      </trkpt>
      <trkpt lat="45.05735" lon="5.37373">
        <ele>529.64697265625</ele>
        <time>2009-05-27T13:11:47Z</time>
      </trkpt>
      <trkpt lat="45.0574" lon="5.3736">
        <ele>529.28399658203</ele>
        <time>2009-05-27T13:11:49Z</time>
      </trkpt>
      <trkpt lat="45.05758" lon="5.37338">
        <ele>528.42602539062</ele>
        <time>2009-05-27T13:11:53Z</time>
      </trkpt>
      <trkpt lat="45.05775" lon="5.37326">
        <ele>526.92401123047</ele>
        <time>2009-05-27T13:11:56Z</time>
      </trkpt>
      <trkpt lat="45.05814" lon="5.37313">
        <ele>523.72698974609</ele>
        <time>2009-05-27T13:12:01Z</time>
      </trkpt>
      <trkpt lat="45.05841" lon="5.37312">
        <ele>522.23297119141</ele>
        <time>2009-05-27T13:12:04Z</time>
      </trkpt>
      <trkpt lat="45.05868" lon="5.37319">
        <ele>520.95300292969</ele>
        <time>2009-05-27T13:12:07Z</time>
      </trkpt>
      <trkpt lat="45.05885" lon="5.37329">
        <ele>519.54302978516</ele>
        <time>2009-05-27T13:12:09Z</time>
      </trkpt>
      <trkpt lat="45.05918" lon="5.37374">
        <ele>516.93597412109</ele>
        <time>2009-05-27T13:12:14Z</time>
      </trkpt>
      <trkpt lat="45.05928" lon="5.37395">
        <ele>514.81097412109</ele>
        <time>2009-05-27T13:12:16Z</time>
      </trkpt>
      <trkpt lat="45.05941" lon="5.37415">
        <ele>513.61999511719</ele>
        <time>2009-05-27T13:12:18Z</time>
      </trkpt>
      <trkpt lat="45.05989" lon="5.37462">
        <ele>509.94100952148</ele>
        <time>2009-05-27T13:12:24Z</time>
      </trkpt>
      <trkpt lat="45.06006" lon="5.37479">
        <ele>508.97198486328</ele>
        <time>2009-05-27T13:12:26Z</time>
      </trkpt>
      <trkpt lat="45.06025" lon="5.37492">
        <ele>507.79299926758</ele>
        <time>2009-05-27T13:12:28Z</time>
      </trkpt>
      <trkpt lat="45.06056" lon="5.37501">
        <ele>506.19500732422</ele>
        <time>2009-05-27T13:12:31Z</time>
      </trkpt>
      <trkpt lat="45.06067" lon="5.37504">
        <ele>505.44900512695</ele>
        <time>2009-05-27T13:12:32Z</time>
      </trkpt>
      <trkpt lat="45.06096" lon="5.37525">
        <ele>503.48199462891</ele>
        <time>2009-05-27T13:12:35Z</time>
      </trkpt>
      <trkpt lat="45.0612" lon="5.37561">
        <ele>501.24200439453</ele>
        <time>2009-05-27T13:12:38Z</time>
      </trkpt>
      <trkpt lat="45.06139" lon="5.37582">
        <ele>500.13101196289</ele>
        <time>2009-05-27T13:12:40Z</time>
      </trkpt>
      <trkpt lat="45.06157" lon="5.37603">
        <ele>499.55200195312</ele>
        <time>2009-05-27T13:12:42Z</time>
      </trkpt>
      <trkpt lat="45.06179" lon="5.37642">
        <ele>497.17599487305</ele>
        <time>2009-05-27T13:12:45Z</time>
      </trkpt>
      <trkpt lat="45.06194" lon="5.37669">
        <ele>495.93301391602</ele>
        <time>2009-05-27T13:12:47Z</time>
      </trkpt>
      <trkpt lat="45.06202" lon="5.3768">
        <ele>496.09600830078</ele>
        <time>2009-05-27T13:12:48Z</time>
      </trkpt>
      <trkpt lat="45.062" lon="5.3773">
        <ele>494.10900878906</ele>
        <time>2009-05-27T13:12:53Z</time>
      </trkpt>
      <trkpt lat="45.06189" lon="5.37749">
        <ele>493.05801391602</ele>
        <time>2009-05-27T13:12:55Z</time>
      </trkpt>
      <trkpt lat="45.06166" lon="5.37801">
        <ele>490.57501220703</ele>
        <time>2009-05-27T13:13:00Z</time>
      </trkpt>
      <trkpt lat="45.06162" lon="5.37812">
        <ele>490.12200927734</ele>
        <time>2009-05-27T13:13:01Z</time>
      </trkpt>
      <trkpt lat="45.06158" lon="5.37876">
        <ele>488.13900756836</ele>
        <time>2009-05-27T13:13:06Z</time>
      </trkpt>
      <trkpt lat="45.06182" lon="5.37969">
        <ele>486.16799926758</ele>
        <time>2009-05-27T13:13:14Z</time>
      </trkpt>
      <trkpt lat="45.06169" lon="5.38005">
        <ele>484.01699829102</ele>
        <time>2009-05-27T13:13:17Z</time>
      </trkpt>
      <trkpt lat="45.06162" lon="5.38015">
        <ele>482.93899536133</ele>
        <time>2009-05-27T13:13:18Z</time>
      </trkpt>
      <trkpt lat="45.06137" lon="5.38045">
        <ele>480.02899169922</ele>
        <time>2009-05-27T13:13:21Z</time>
      </trkpt>
      <trkpt lat="45.0612" lon="5.38099">
        <ele>477.60699462891</ele>
        <time>2009-05-27T13:13:25Z</time>
      </trkpt>
      <trkpt lat="45.06142" lon="5.3815">
        <ele>476.04098510742</ele>
        <time>2009-05-27T13:13:29Z</time>
      </trkpt>
      <trkpt lat="45.06215" lon="5.38238">
        <ele>473.13900756836</ele>
        <time>2009-05-27T13:13:38Z</time>
      </trkpt>
      <trkpt lat="45.06255" lon="5.38312">
        <ele>470.86599731445</ele>
        <time>2009-05-27T13:13:44Z</time>
      </trkpt>
      <trkpt lat="45.06293" lon="5.38346">
        <ele>468.75299072266</ele>
        <time>2009-05-27T13:13:48Z</time>
      </trkpt>
      <trkpt lat="45.06313" lon="5.38354">
        <ele>469.05801391602</ele>
        <time>2009-05-27T13:13:50Z</time>
      </trkpt>
      <trkpt lat="45.06334" lon="5.38396">
        <ele>467.78298950195</ele>
        <time>2009-05-27T13:13:55Z</time>
      </trkpt>
      <trkpt lat="45.06334" lon="5.38472">
        <ele>464.2919921875</ele>
        <time>2009-05-27T13:14:01Z</time>
      </trkpt>
      <trkpt lat="45.06321" lon="5.38537">
        <ele>460.57598876953</ele>
        <time>2009-05-27T13:14:06Z</time>
      </trkpt>
      <trkpt lat="45.063" lon="5.38588">
        <ele>457.49099731445</ele>
        <time>2009-05-27T13:14:10Z</time>
      </trkpt>
      <trkpt lat="45.06311" lon="5.38651">
        <ele>453.74600219727</ele>
        <time>2009-05-27T13:14:15Z</time>
      </trkpt>
      <trkpt lat="45.06319" lon="5.3866">
        <ele>452.92599487305</ele>
        <time>2009-05-27T13:14:16Z</time>
      </trkpt>
      <trkpt lat="45.06336" lon="5.38679">
        <ele>451.83200073242</ele>
        <time>2009-05-27T13:14:18Z</time>
      </trkpt>
      <trkpt lat="45.06353" lon="5.3877">
        <ele>447.88500976562</ele>
        <time>2009-05-27T13:14:25Z</time>
      </trkpt>
      <trkpt lat="45.06322" lon="5.38868">
        <ele>443.11499023438</ele>
        <time>2009-05-27T13:14:32Z</time>
      </trkpt>
      <trkpt lat="45.06302" lon="5.38884">
        <ele>441.69900512695</ele>
        <time>2009-05-27T13:14:34Z</time>
      </trkpt>
      <trkpt lat="45.06268" lon="5.3895">
        <ele>438.93499755859</ele>
        <time>2009-05-27T13:14:40Z</time>
      </trkpt>
      <trkpt lat="45.06265" lon="5.38958">
        <ele>438.93798828125</ele>
        <time>2009-05-27T13:14:41Z</time>
      </trkpt>
      <trkpt lat="45.06261" lon="5.38965">
        <ele>439.14999389648</ele>
        <time>2009-05-27T13:14:43Z</time>
      </trkpt>
      <trkpt lat="45.06261" lon="5.38967">
        <ele>439.0419921875</ele>
        <time>2009-05-27T13:14:44Z</time>
      </trkpt>
      <trkpt lat="45.06247" lon="5.38998">
        <ele>437.33200073242</ele>
        <time>2009-05-27T13:14:52Z</time>
      </trkpt>
      <trkpt lat="45.06244" lon="5.39007">
        <ele>436.84600830078</ele>
        <time>2009-05-27T13:14:53Z</time>
      </trkpt>
      <trkpt lat="45.06236" lon="5.39024">
        <ele>436.35000610352</ele>
        <time>2009-05-27T13:14:55Z</time>
      </trkpt>
      <trkpt lat="45.06219" lon="5.39064">
        <ele>435.31399536133</ele>
        <time>2009-05-27T13:14:59Z</time>
      </trkpt>
      <trkpt lat="45.062" lon="5.39091">
        <ele>433.89498901367</ele>
        <time>2009-05-27T13:15:02Z</time>
      </trkpt>
      <trkpt lat="45.06192" lon="5.39098">
        <ele>433.19799804688</ele>
        <time>2009-05-27T13:15:03Z</time>
      </trkpt>
      <trkpt lat="45.06145" lon="5.39153">
        <ele>429.71200561523</ele>
        <time>2009-05-27T13:15:09Z</time>
      </trkpt>
      <trkpt lat="45.06131" lon="5.39176">
        <ele>428.47299194336</ele>
        <time>2009-05-27T13:15:11Z</time>
      </trkpt>
      <trkpt lat="45.06116" lon="5.39197">
        <ele>427.61599731445</ele>
        <time>2009-05-27T13:15:13Z</time>
      </trkpt>
      <trkpt lat="45.06109" lon="5.39264">
        <ele>424.62799072266</ele>
        <time>2009-05-27T13:15:18Z</time>
      </trkpt>
      <trkpt lat="45.06113" lon="5.39277">
        <ele>424.46798706055</ele>
        <time>2009-05-27T13:15:19Z</time>
      </trkpt>
      <trkpt lat="45.06126" lon="5.39334">
        <ele>421.73300170898</ele>
        <time>2009-05-27T13:15:23Z</time>
      </trkpt>
      <trkpt lat="45.06138" lon="5.39391">
        <ele>419.66799926758</ele>
        <time>2009-05-27T13:15:27Z</time>
      </trkpt>
      <trkpt lat="45.06143" lon="5.3942">
        <ele>417.89700317383</ele>
        <time>2009-05-27T13:15:29Z</time>
      </trkpt>
      <trkpt lat="45.06141" lon="5.39479">
        <ele>416.20599365234</ele>
        <time>2009-05-27T13:15:33Z</time>
      </trkpt>
      <trkpt lat="45.06127" lon="5.39509">
        <ele>414.94299316406</ele>
        <time>2009-05-27T13:15:36Z</time>
      </trkpt>
      <trkpt lat="45.06119" lon="5.39515">
        <ele>414.08801269531</ele>
        <time>2009-05-27T13:15:37Z</time>
      </trkpt>
      <trkpt lat="45.06062" lon="5.39572">
        <ele>409.89199829102</ele>
        <time>2009-05-27T13:15:44Z</time>
      </trkpt>
      <trkpt lat="45.06042" lon="5.39584">
        <ele>408.71600341797</ele>
        <time>2009-05-27T13:15:46Z</time>
      </trkpt>
      <trkpt lat="45.06022" lon="5.39593">
        <ele>407.42199707031</ele>
        <time>2009-05-27T13:15:48Z</time>
      </trkpt>
      <trkpt lat="45.0599" lon="5.39594">
        <ele>405.12298583984</ele>
        <time>2009-05-27T13:15:51Z</time>
      </trkpt>
      <trkpt lat="45.05925" lon="5.39617">
        <ele>400.63198852539</ele>
        <time>2009-05-27T13:15:57Z</time>
      </trkpt>
      <trkpt lat="45.05848" lon="5.39696">
        <ele>394.48699951172</ele>
        <time>2009-05-27T13:16:05Z</time>
      </trkpt>
      <trkpt lat="45.05799" lon="5.39752">
        <ele>390.10699462891</ele>
        <time>2009-05-27T13:16:10Z</time>
      </trkpt>
      <trkpt lat="45.05775" lon="5.39825">
        <ele>387.27200317383</ele>
        <time>2009-05-27T13:16:16Z</time>
      </trkpt>
      <trkpt lat="45.05776" lon="5.39838">
        <ele>385.58898925781</ele>
        <time>2009-05-27T13:16:17Z</time>
      </trkpt>
      <trkpt lat="45.0578" lon="5.39867">
        <ele>383.48400878906</ele>
        <time>2009-05-27T13:16:19Z</time>
      </trkpt>
      <trkpt lat="45.05764" lon="5.3998">
        <ele>372.33599853516</ele>
        <time>2009-05-27T13:16:26Z</time>
      </trkpt>
      <trkpt lat="45.05753" lon="5.40043">
        <ele>368.27200317383</ele>
        <time>2009-05-27T13:16:30Z</time>
      </trkpt>
      <trkpt lat="45.05753" lon="5.4007">
        <ele>367.27600097656</ele>
        <time>2009-05-27T13:16:32Z</time>
      </trkpt>
      <trkpt lat="45.05764" lon="5.40111">
        <ele>364.94500732422</ele>
        <time>2009-05-27T13:16:36Z</time>
      </trkpt>
      <trkpt lat="45.05782" lon="5.40098">
        <ele>361.83401489258</ele>
        <time>2009-05-27T13:16:42Z</time>
      </trkpt>
      <trkpt lat="45.0578" lon="5.40078">
        <ele>360.25799560547</ele>
        <time>2009-05-27T13:16:44Z</time>
      </trkpt>
      <trkpt lat="45.05806" lon="5.40025">
        <ele>355.89099121094</ele>
        <time>2009-05-27T13:16:50Z</time>
      </trkpt>
      <trkpt lat="45.05833" lon="5.4001">
        <ele>353.67401123047</ele>
        <time>2009-05-27T13:16:53Z</time>
      </trkpt>
      <trkpt lat="45.05887" lon="5.39954">
        <ele>347.79098510742</ele>
        <time>2009-05-27T13:17:00Z</time>
      </trkpt>
      <trkpt lat="45.05932" lon="5.39888">
        <ele>340.8030090332</ele>
        <time>2009-05-27T13:17:07Z</time>
      </trkpt>
      <trkpt lat="45.05942" lon="5.39886">
        <ele>339.78900146484</ele>
        <time>2009-05-27T13:17:08Z</time>
      </trkpt>
      <trkpt lat="45.05973" lon="5.39885">
        <ele>336.63800048828</ele>
        <time>2009-05-27T13:17:11Z</time>
      </trkpt>
      <trkpt lat="45.0601" lon="5.39861">
        <ele>333.06799316406</ele>
        <time>2009-05-27T13:17:15Z</time>
      </trkpt>
      <trkpt lat="45.0608" lon="5.39813">
        <ele>324.88101196289</ele>
        <time>2009-05-27T13:17:22Z</time>
      </trkpt>
      <trkpt lat="45.0614" lon="5.39744">
        <ele>317.97100830078</ele>
        <time>2009-05-27T13:17:28Z</time>
      </trkpt>
      <trkpt lat="45.06253" lon="5.39667">
        <ele>306.3869934082</ele>
        <time>2009-05-27T13:17:37Z</time>
      </trkpt>
      <trkpt lat="45.06276" lon="5.39656">
        <ele>305.13800048828</ele>
        <time>2009-05-27T13:17:39Z</time>
      </trkpt>
      <trkpt lat="45.06319" lon="5.39616">
        <ele>299.85101318359</ele>
        <time>2009-05-27T13:17:44Z</time>
      </trkpt>
      <trkpt lat="45.06345" lon="5.39566">
        <ele>296.62200927734</ele>
        <time>2009-05-27T13:17:48Z</time>
      </trkpt>
      <trkpt lat="45.0639" lon="5.39521">
        <ele>290.93798828125</ele>
        <time>2009-05-27T13:17:54Z</time>
      </trkpt>
      <trkpt lat="45.06409" lon="5.39463">
        <ele>287.15600585938</ele>
        <time>2009-05-27T13:17:59Z</time>
      </trkpt>
      <trkpt lat="45.0641" lon="5.39455">
        <ele>286.81399536133</ele>
        <time>2009-05-27T13:18:00Z</time>
      </trkpt>
      <trkpt lat="45.06421" lon="5.39423">
        <ele>284.70599365234</ele>
        <time>2009-05-27T13:18:05Z</time>
      </trkpt>
      <trkpt lat="45.06427" lon="5.39402">
        <ele>283.43200683594</ele>
        <time>2009-05-27T13:18:08Z</time>
      </trkpt>
      <trkpt lat="45.06429" lon="5.3939">
        <ele>282.24899291992</ele>
        <time>2009-05-27T13:18:10Z</time>
      </trkpt>
      <trkpt lat="45.06467" lon="5.39298">
        <ele>274.67098999023</ele>
        <time>2009-05-27T13:18:19Z</time>
      </trkpt>
      <trkpt lat="45.06503" lon="5.39237">
        <ele>270.07800292969</ele>
        <time>2009-05-27T13:18:26Z</time>
      </trkpt>
      <trkpt lat="45.06506" lon="5.39232">
        <ele>269.78298950195</ele>
        <time>2009-05-27T13:18:27Z</time>
      </trkpt>
      <trkpt lat="45.06518" lon="5.39224">
        <ele>268.89099121094</ele>
        <time>2009-05-27T13:18:31Z</time>
      </trkpt>
      <trkpt lat="45.06541" lon="5.39243">
        <ele>269.26400756836</ele>
        <time>2009-05-27T13:18:41Z</time>
      </trkpt>
      <trkpt lat="45.06546" lon="5.39247">
        <ele>269.23699951172</ele>
        <time>2009-05-27T13:18:43Z</time>
      </trkpt>
      <trkpt lat="45.06576" lon="5.39264">
        <ele>269.89099121094</ele>
        <time>2009-05-27T13:18:56Z</time>
      </trkpt>
      <trkpt lat="45.06589" lon="5.39266">
        <ele>271.02899169922</ele>
        <time>2009-05-27T13:19:00Z</time>
      </trkpt>
      <trkpt lat="45.06606" lon="5.39268">
        <ele>272.08999633789</ele>
        <time>2009-05-27T13:19:04Z</time>
      </trkpt>
      <trkpt lat="45.0661" lon="5.39268">
        <ele>272.63198852539</ele>
        <time>2009-05-27T13:19:05Z</time>
      </trkpt>
      <trkpt lat="45.06619" lon="5.39269">
        <ele>273.55999755859</ele>
        <time>2009-05-27T13:19:07Z</time>
      </trkpt>
      <trkpt lat="45.0664" lon="5.39268">
        <ele>275.32998657227</ele>
        <time>2009-05-27T13:19:12Z</time>
      </trkpt>
      <trkpt lat="45.06663" lon="5.39265">
        <ele>277.11599731445</ele>
        <time>2009-05-27T13:19:18Z</time>
      </trkpt>
      <trkpt lat="45.06684" lon="5.39259">
        <ele>278.32501220703</ele>
        <time>2009-05-27T13:19:24Z</time>
      </trkpt>
      <trkpt lat="45.06704" lon="5.3924">
        <ele>279.19198608398</ele>
        <time>2009-05-27T13:19:31Z</time>
      </trkpt>
      <trkpt lat="45.06696" lon="5.39211">
        <ele>279.20700073242</ele>
        <time>2009-05-27T13:19:36Z</time>
      </trkpt>
      <trkpt lat="45.0669" lon="5.39184">
        <ele>279.76901245117</ele>
        <time>2009-05-27T13:19:40Z</time>
      </trkpt>
      <trkpt lat="45.06686" lon="5.39158">
        <ele>279.89801025391</ele>
        <time>2009-05-27T13:19:44Z</time>
      </trkpt>
      <trkpt lat="45.06683" lon="5.39132">
        <ele>281.28500366211</ele>
        <time>2009-05-27T13:19:48Z</time>
      </trkpt>
      <trkpt lat="45.06685" lon="5.39127">
        <ele>281.27801513672</ele>
        <time>2009-05-27T13:19:50Z</time>
      </trkpt>
      <trkpt lat="45.06688" lon="5.39137">
        <ele>281.56201171875</ele>
        <time>2009-05-27T13:19:58Z</time>
      </trkpt>
      <trkpt lat="45.06684" lon="5.39144">
        <ele>281.29400634766</ele>
        <time>2009-05-27T13:20:39Z</time>
      </trkpt>
      <trkpt lat="45.06684" lon="5.39142">
        <ele>281.22900390625</ele>
        <time>2009-05-27T13:20:40Z</time>
      </trkpt>
      <trkpt lat="45.06681" lon="5.39113">
        <ele>280.66500854492</ele>
        <time>2009-05-27T13:20:47Z</time>
      </trkpt>
      <trkpt lat="45.0667" lon="5.39088">
        <ele>280.58499145508</ele>
        <time>2009-05-27T13:20:51Z</time>
      </trkpt>
      <trkpt lat="45.06664" lon="5.39007">
        <ele>281.23300170898</ele>
        <time>2009-05-27T13:21:01Z</time>
      </trkpt>
      <trkpt lat="45.0667" lon="5.38983">
        <ele>282.42001342773</ele>
        <time>2009-05-27T13:21:05Z</time>
      </trkpt>
      <trkpt lat="45.06704" lon="5.38942">
        <ele>285.02398681641</ele>
        <time>2009-05-27T13:21:18Z</time>
      </trkpt>
      <trkpt lat="45.06741" lon="5.38932">
        <ele>286.59201049805</ele>
        <time>2009-05-27T13:21:28Z</time>
      </trkpt>
      <trkpt lat="45.06755" lon="5.38892">
        <ele>287.25100708008</ele>
        <time>2009-05-27T13:21:36Z</time>
      </trkpt>
      <trkpt lat="45.06755" lon="5.38886">
        <ele>287.49798583984</ele>
        <time>2009-05-27T13:21:37Z</time>
      </trkpt>
      <trkpt lat="45.06758" lon="5.38843">
        <ele>289.0419921875</ele>
        <time>2009-05-27T13:21:45Z</time>
      </trkpt>
      <trkpt lat="45.06763" lon="5.38823">
        <ele>290.07901000977</ele>
        <time>2009-05-27T13:21:49Z</time>
      </trkpt>
      <trkpt lat="45.0677" lon="5.38794">
        <ele>291.66299438477</ele>
        <time>2009-05-27T13:21:55Z</time>
      </trkpt>
      <trkpt lat="45.06796" lon="5.3874">
        <ele>294.92599487305</ele>
        <time>2009-05-27T13:22:08Z</time>
      </trkpt>
      <trkpt lat="45.06812" lon="5.38681">
        <ele>297.66799926758</ele>
        <time>2009-05-27T13:22:21Z</time>
      </trkpt>
      <trkpt lat="45.06828" lon="5.38606">
        <ele>301.54699707031</ele>
        <time>2009-05-27T13:22:37Z</time>
      </trkpt>
      <trkpt lat="45.06849" lon="5.38529">
        <ele>305.08099365234</ele>
        <time>2009-05-27T13:22:53Z</time>
      </trkpt>
      <trkpt lat="45.0687" lon="5.38485">
        <ele>307.92199707031</ele>
        <time>2009-05-27T13:23:04Z</time>
      </trkpt>
      <trkpt lat="45.06858" lon="5.38435">
        <ele>310.42098999023</ele>
        <time>2009-05-27T13:23:14Z</time>
      </trkpt>
      <trkpt lat="45.06861" lon="5.38368">
        <ele>314.56600952148</ele>
        <time>2009-05-27T13:23:28Z</time>
      </trkpt>
      <trkpt lat="45.06862" lon="5.38329">
        <ele>316.79800415039</ele>
        <time>2009-05-27T13:23:37Z</time>
      </trkpt>
      <trkpt lat="45.06848" lon="5.38265">
        <ele>320.10400390625</ele>
        <time>2009-05-27T13:23:51Z</time>
      </trkpt>
      <trkpt lat="45.06863" lon="5.38207">
        <ele>323.53601074219</ele>
        <time>2009-05-27T13:24:05Z</time>
      </trkpt>
      <trkpt lat="45.06866" lon="5.38199">
        <ele>324.08801269531</ele>
        <time>2009-05-27T13:24:07Z</time>
      </trkpt>
      <trkpt lat="45.06871" lon="5.38125">
        <ele>327.78698730469</ele>
        <time>2009-05-27T13:24:23Z</time>
      </trkpt>
      <trkpt lat="45.06876" lon="5.38033">
        <ele>332.37399291992</ele>
        <time>2009-05-27T13:24:42Z</time>
      </trkpt>
      <trkpt lat="45.06873" lon="5.37949">
        <ele>336.11401367188</ele>
        <time>2009-05-27T13:24:58Z</time>
      </trkpt>
      <trkpt lat="45.06881" lon="5.37924">
        <ele>337.86599731445</ele>
        <time>2009-05-27T13:25:03Z</time>
      </trkpt>
      <trkpt lat="45.06892" lon="5.379">
        <ele>339.38101196289</ele>
        <time>2009-05-27T13:25:08Z</time>
      </trkpt>
      <trkpt lat="45.06932" lon="5.3784">
        <ele>343.51998901367</ele>
        <time>2009-05-27T13:25:23Z</time>
      </trkpt>
      <trkpt lat="45.0695" lon="5.37807">
        <ele>345.74600219727</ele>
        <time>2009-05-27T13:25:31Z</time>
      </trkpt>
      <trkpt lat="45.06947" lon="5.37767">
        <ele>347.56900024414</ele>
        <time>2009-05-27T13:25:38Z</time>
      </trkpt>
      <trkpt lat="45.06945" lon="5.3771">
        <ele>350.65301513672</ele>
        <time>2009-05-27T13:25:50Z</time>
      </trkpt>
      <trkpt lat="45.06972" lon="5.37661">
        <ele>353.33401489258</ele>
        <time>2009-05-27T13:26:02Z</time>
      </trkpt>
      <trkpt lat="45.07" lon="5.37565">
        <ele>357.53399658203</ele>
        <time>2009-05-27T13:26:22Z</time>
      </trkpt>
      <trkpt lat="45.07" lon="5.37499">
        <ele>360.26699829102</ele>
        <time>2009-05-27T13:26:36Z</time>
      </trkpt>
      <trkpt lat="45.06994" lon="5.37408">
        <ele>362.73498535156</ele>
        <time>2009-05-27T13:26:53Z</time>
      </trkpt>
      <trkpt lat="45.07003" lon="5.3738">
        <ele>364.78900146484</ele>
        <time>2009-05-27T13:26:59Z</time>
      </trkpt>
      <trkpt lat="45.07026" lon="5.3736">
        <ele>365.70401000977</ele>
        <time>2009-05-27T13:27:06Z</time>
      </trkpt>
      <trkpt lat="45.0705" lon="5.37338">
        <ele>366.88800048828</ele>
        <time>2009-05-27T13:27:13Z</time>
      </trkpt>
      <trkpt lat="45.07061" lon="5.3733">
        <ele>366.96600341797</ele>
        <time>2009-05-27T13:27:16Z</time>
      </trkpt>
      <trkpt lat="45.07086" lon="5.37324">
        <ele>368.21701049805</ele>
        <time>2009-05-27T13:27:22Z</time>
      </trkpt>
      <trkpt lat="45.07095" lon="5.37323">
        <ele>367.97799682617</ele>
        <time>2009-05-27T13:27:24Z</time>
      </trkpt>
      <trkpt lat="45.07119" lon="5.37288">
        <ele>367.05200195312</ele>
        <time>2009-05-27T13:27:32Z</time>
      </trkpt>
      <trkpt lat="45.07114" lon="5.37281">
        <ele>366.68099975586</ele>
        <time>2009-05-27T13:27:33Z</time>
      </trkpt>
      <trkpt lat="45.07092" lon="5.37261">
        <ele>366.35900878906</ele>
        <time>2009-05-27T13:27:38Z</time>
      </trkpt>
      <trkpt lat="45.07086" lon="5.37256">
        <ele>366.13400268555</ele>
        <time>2009-05-27T13:27:40Z</time>
      </trkpt>
      <trkpt lat="45.07081" lon="5.37254">
        <ele>365.62100219727</ele>
        <time>2009-05-27T13:27:43Z</time>
      </trkpt>
      <trkpt lat="45.07076" lon="5.37255">
        <ele>365.10299682617</ele>
        <time>2009-05-27T13:27:50Z</time>
      </trkpt>
      <trkpt lat="45.07074" lon="5.37241">
        <ele>365.42300415039</ele>
        <time>2009-05-27T13:28:47Z</time>
      </trkpt>
      <trkpt lat="45.07072" lon="5.37237">
        <ele>365.66400146484</ele>
        <time>2009-05-27T13:28:48Z</time>
      </trkpt>
      <trkpt lat="45.07069" lon="5.3723">
        <ele>365.95901489258</ele>
        <time>2009-05-27T13:28:50Z</time>
      </trkpt>
      <trkpt lat="45.07066" lon="5.37227">
        <ele>366.04699707031</ele>
        <time>2009-05-27T13:28:51Z</time>
      </trkpt>
      <trkpt lat="45.0706" lon="5.37223">
        <ele>366.8219909668</ele>
        <time>2009-05-27T13:28:54Z</time>
      </trkpt>
      <trkpt lat="45.07029" lon="5.37197">
        <ele>369.5530090332</ele>
        <time>2009-05-27T13:29:07Z</time>
      </trkpt>
      <trkpt lat="45.07013" lon="5.37183">
        <ele>371.29501342773</ele>
        <time>2009-05-27T13:29:13Z</time>
      </trkpt>
      <trkpt lat="45.06996" lon="5.37163">
        <ele>373.39401245117</ele>
        <time>2009-05-27T13:29:20Z</time>
      </trkpt>
      <trkpt lat="45.06994" lon="5.37159">
        <ele>373.68600463867</ele>
        <time>2009-05-27T13:29:21Z</time>
      </trkpt>
      <trkpt lat="45.06982" lon="5.37121">
        <ele>376.03500366211</ele>
        <time>2009-05-27T13:29:31Z</time>
      </trkpt>
      <trkpt lat="45.06976" lon="5.37071">
        <ele>379.07901000977</ele>
        <time>2009-05-27T13:29:44Z</time>
      </trkpt>
      <trkpt lat="45.06981" lon="5.37024">
        <ele>381.80999755859</ele>
        <time>2009-05-27T13:29:56Z</time>
      </trkpt>
      <trkpt lat="45.07" lon="5.36975">
        <ele>384.39401245117</ele>
        <time>2009-05-27T13:30:10Z</time>
      </trkpt>
      <trkpt lat="45.0703" lon="5.36942">
        <ele>387.66000366211</ele>
        <time>2009-05-27T13:30:24Z</time>
      </trkpt>
      <trkpt lat="45.07059" lon="5.36916">
        <ele>391.44100952148</ele>
        <time>2009-05-27T13:30:36Z</time>
      </trkpt>
      <trkpt lat="45.07088" lon="5.36857">
        <ele>396.82400512695</ele>
        <time>2009-05-27T13:30:54Z</time>
      </trkpt>
      <trkpt lat="45.07093" lon="5.36807">
        <ele>400.65600585938</ele>
        <time>2009-05-27T13:31:07Z</time>
      </trkpt>
      <trkpt lat="45.07096" lon="5.36734">
        <ele>404.71798706055</ele>
        <time>2009-05-27T13:31:26Z</time>
      </trkpt>
      <trkpt lat="45.07096" lon="5.36726">
        <ele>405.44500732422</ele>
        <time>2009-05-27T13:31:28Z</time>
      </trkpt>
      <trkpt lat="45.07097" lon="5.36695">
        <ele>408.46099853516</ele>
        <time>2009-05-27T13:31:37Z</time>
      </trkpt>
      <trkpt lat="45.07102" lon="5.36635">
        <ele>411.59600830078</ele>
        <time>2009-05-27T13:31:53Z</time>
      </trkpt>
      <trkpt lat="45.07122" lon="5.36581">
        <ele>415.82400512695</ele>
        <time>2009-05-27T13:32:10Z</time>
      </trkpt>
      <trkpt lat="45.07177" lon="5.36557">
        <ele>418.08700561523</ele>
        <time>2009-05-27T13:32:30Z</time>
      </trkpt>
      <trkpt lat="45.07225" lon="5.36559">
        <ele>421.2799987793</ele>
        <time>2009-05-27T13:32:45Z</time>
      </trkpt>
      <trkpt lat="45.07238" lon="5.36561">
        <ele>422.73901367188</ele>
        <time>2009-05-27T13:32:49Z</time>
      </trkpt>
      <trkpt lat="45.07299" lon="5.36572">
        <ele>428.26599121094</ele>
        <time>2009-05-27T13:33:08Z</time>
      </trkpt>
      <trkpt lat="45.07357" lon="5.36569">
        <ele>432.30499267578</ele>
        <time>2009-05-27T13:33:26Z</time>
      </trkpt>
      <trkpt lat="45.07412" lon="5.36564">
        <ele>437.10400390625</ele>
        <time>2009-05-27T13:33:47Z</time>
      </trkpt>
      <trkpt lat="45.07466" lon="5.36578">
        <ele>442.07000732422</ele>
        <time>2009-05-27T13:34:07Z</time>
      </trkpt>
      <trkpt lat="45.0751" lon="5.36598">
        <ele>446</ele>
        <time>2009-05-27T13:34:24Z</time>
      </trkpt>
      <trkpt lat="45.07522" lon="5.36572">
        <ele>448.57998657227</ele>
        <time>2009-05-27T13:34:34Z</time>
      </trkpt>
      <trkpt lat="45.07522" lon="5.36569">
        <ele>448.76599121094</ele>
        <time>2009-05-27T13:34:35Z</time>
      </trkpt>
      <trkpt lat="45.0752" lon="5.36556">
        <ele>449.81698608398</ele>
        <time>2009-05-27T13:34:39Z</time>
      </trkpt>
      <trkpt lat="45.07517" lon="5.36531">
        <ele>451.37298583984</ele>
        <time>2009-05-27T13:34:46Z</time>
      </trkpt>
      <trkpt lat="45.07527" lon="5.36509">
        <ele>453.37701416016</ele>
        <time>2009-05-27T13:34:53Z</time>
      </trkpt>
      <trkpt lat="45.0756" lon="5.3646">
        <ele>456.60998535156</ele>
        <time>2009-05-27T13:35:09Z</time>
      </trkpt>
      <trkpt lat="45.07592" lon="5.36395">
        <ele>460.71600341797</ele>
        <time>2009-05-27T13:35:26Z</time>
      </trkpt>
      <trkpt lat="45.07618" lon="5.36362">
        <ele>463.41198730469</ele>
        <time>2009-05-27T13:35:37Z</time>
      </trkpt>
      <trkpt lat="45.07645" lon="5.36331">
        <ele>466.65798950195</ele>
        <time>2009-05-27T13:35:48Z</time>
      </trkpt>
      <trkpt lat="45.07653" lon="5.363">
        <ele>468.56298828125</ele>
        <time>2009-05-27T13:35:57Z</time>
      </trkpt>
      <trkpt lat="45.07619" lon="5.36295">
        <ele>470.74798583984</ele>
        <time>2009-05-27T13:36:08Z</time>
      </trkpt>
      <trkpt lat="45.07589" lon="5.36264">
        <ele>473.02301025391</ele>
        <time>2009-05-27T13:36:19Z</time>
      </trkpt>
      <trkpt lat="45.0756" lon="5.36233">
        <ele>476.30999755859</ele>
        <time>2009-05-27T13:36:31Z</time>
      </trkpt>
      <trkpt lat="45.07526" lon="5.36255">
        <ele>480.22900390625</ele>
        <time>2009-05-27T13:36:45Z</time>
      </trkpt>
      <trkpt lat="45.07487" lon="5.36292">
        <ele>485.57299804688</ele>
        <time>2009-05-27T13:37:01Z</time>
      </trkpt>
      <trkpt lat="45.07451" lon="5.3629">
        <ele>489.43798828125</ele>
        <time>2009-05-27T13:37:15Z</time>
      </trkpt>
      <trkpt lat="45.07424" lon="5.36269">
        <ele>492.35198974609</ele>
        <time>2009-05-27T13:37:27Z</time>
      </trkpt>
      <trkpt lat="45.07411" lon="5.36224">
        <ele>495.73001098633</ele>
        <time>2009-05-27T13:37:41Z</time>
      </trkpt>
      <trkpt lat="45.07394" lon="5.36159">
        <ele>499.80700683594</ele>
        <time>2009-05-27T13:38:00Z</time>
      </trkpt>
      <trkpt lat="45.07368" lon="5.36126">
        <ele>503.48599243164</ele>
        <time>2009-05-27T13:38:15Z</time>
      </trkpt>
      <trkpt lat="45.07337" lon="5.36089">
        <ele>507.41500854492</ele>
        <time>2009-05-27T13:38:31Z</time>
      </trkpt>
      <trkpt lat="45.07349" lon="5.36053">
        <ele>510.98300170898</ele>
        <time>2009-05-27T13:38:41Z</time>
      </trkpt>
      <trkpt lat="45.07388" lon="5.36005">
        <ele>515.72998046875</ele>
        <time>2009-05-27T13:38:57Z</time>
      </trkpt>
      <trkpt lat="45.07427" lon="5.35976">
        <ele>519.03497314453</ele>
        <time>2009-05-27T13:39:11Z</time>
      </trkpt>
      <trkpt lat="45.07484" lon="5.35956">
        <ele>524.35797119141</ele>
        <time>2009-05-27T13:39:31Z</time>
      </trkpt>
      <trkpt lat="45.0753" lon="5.35904">
        <ele>528.88702392578</ele>
        <time>2009-05-27T13:39:51Z</time>
      </trkpt>
      <trkpt lat="45.07548" lon="5.35839">
        <ele>533.26599121094</ele>
        <time>2009-05-27T13:40:08Z</time>
      </trkpt>
      <trkpt lat="45.0755" lon="5.35761">
        <ele>538.02502441406</ele>
        <time>2009-05-27T13:40:25Z</time>
      </trkpt>
      <trkpt lat="45.07538" lon="5.35693">
        <ele>541.86297607422</ele>
        <time>2009-05-27T13:40:41Z</time>
      </trkpt>
      <trkpt lat="45.07509" lon="5.35632">
        <ele>546.36798095703</ele>
        <time>2009-05-27T13:40:58Z</time>
      </trkpt>
      <trkpt lat="45.07521" lon="5.35582">
        <ele>550.16302490234</ele>
        <time>2009-05-27T13:41:11Z</time>
      </trkpt>
      <trkpt lat="45.07532" lon="5.35516">
        <ele>555.291015625</ele>
        <time>2009-05-27T13:41:27Z</time>
      </trkpt>
      <trkpt lat="45.07511" lon="5.35434">
        <ele>560.21197509766</ele>
        <time>2009-05-27T13:41:46Z</time>
      </trkpt>
      <trkpt lat="45.07509" lon="5.3541">
        <ele>561.79602050781</ele>
        <time>2009-05-27T13:41:54Z</time>
      </trkpt>
      <trkpt lat="45.07518" lon="5.35414">
        <ele>562.89599609375</ele>
        <time>2009-05-27T13:42:00Z</time>
      </trkpt>
      <trkpt lat="45.07523" lon="5.35427">
        <ele>563.85498046875</ele>
        <time>2009-05-27T13:42:05Z</time>
      </trkpt>
      <trkpt lat="45.07522" lon="5.35429">
        <ele>564.25402832031</ele>
        <time>2009-05-27T13:42:08Z</time>
      </trkpt>
      <trkpt lat="45.07524" lon="5.3542">
        <ele>563.71002197266</ele>
        <time>2009-05-27T13:42:14Z</time>
      </trkpt>
      <trkpt lat="45.07525" lon="5.35419">
        <ele>563.56799316406</ele>
        <time>2009-05-27T13:42:18Z</time>
      </trkpt>
      <trkpt lat="45.07526" lon="5.35426">
        <ele>563.61102294922</ele>
        <time>2009-05-27T13:43:32Z</time>
      </trkpt>
      <trkpt lat="45.07524" lon="5.35427">
        <ele>564.01599121094</ele>
        <time>2009-05-27T13:43:34Z</time>
      </trkpt>
      <trkpt lat="45.07529" lon="5.35444">
        <ele>564.90100097656</ele>
        <time>2009-05-27T13:43:42Z</time>
      </trkpt>
      <trkpt lat="45.07542" lon="5.35472">
        <ele>567.15301513672</ele>
        <time>2009-05-27T13:43:50Z</time>
      </trkpt>
      <trkpt lat="45.07549" lon="5.35488">
        <ele>568.53997802734</ele>
        <time>2009-05-27T13:43:55Z</time>
      </trkpt>
      <trkpt lat="45.07556" lon="5.35514">
        <ele>570.07897949219</ele>
        <time>2009-05-27T13:44:02Z</time>
      </trkpt>
      <trkpt lat="45.07566" lon="5.3559">
        <ele>575.30297851562</ele>
        <time>2009-05-27T13:44:21Z</time>
      </trkpt>
      <trkpt lat="45.07566" lon="5.35607">
        <ele>576.57501220703</ele>
        <time>2009-05-27T13:44:26Z</time>
      </trkpt>
      <trkpt lat="45.07571" lon="5.35637">
        <ele>578.46801757812</ele>
        <time>2009-05-27T13:44:34Z</time>
      </trkpt>
      <trkpt lat="45.07594" lon="5.35679">
        <ele>581.28997802734</ele>
        <time>2009-05-27T13:44:48Z</time>
      </trkpt>
      <trkpt lat="45.07612" lon="5.35745">
        <ele>586.42297363281</ele>
        <time>2009-05-27T13:45:06Z</time>
      </trkpt>
      <trkpt lat="45.07631" lon="5.3583">
        <ele>591.26397705078</ele>
        <time>2009-05-27T13:45:28Z</time>
      </trkpt>
      <trkpt lat="45.07637" lon="5.35907">
        <ele>595.72399902344</ele>
        <time>2009-05-27T13:45:47Z</time>
      </trkpt>
      <trkpt lat="45.07656" lon="5.35942">
        <ele>598.71301269531</ele>
        <time>2009-05-27T13:45:59Z</time>
      </trkpt>
      <trkpt lat="45.07706" lon="5.35985">
        <ele>603.79797363281</ele>
        <time>2009-05-27T13:46:19Z</time>
      </trkpt>
      <trkpt lat="45.07761" lon="5.35987">
        <ele>608.39697265625</ele>
        <time>2009-05-27T13:46:36Z</time>
      </trkpt>
      <trkpt lat="45.07795" lon="5.3602">
        <ele>611.87200927734</ele>
        <time>2009-05-27T13:46:50Z</time>
      </trkpt>
      <trkpt lat="45.07844" lon="5.36067">
        <ele>616.47802734375</ele>
        <time>2009-05-27T13:47:10Z</time>
      </trkpt>
      <trkpt lat="45.07895" lon="5.36083">
        <ele>620.07501220703</ele>
        <time>2009-05-27T13:47:27Z</time>
      </trkpt>
      <trkpt lat="45.07959" lon="5.36085">
        <ele>626.51300048828</ele>
        <time>2009-05-27T13:47:48Z</time>
      </trkpt>
      <trkpt lat="45.07985" lon="5.36102">
        <ele>629.99200439453</ele>
        <time>2009-05-27T13:47:58Z</time>
      </trkpt>
      <trkpt lat="45.08025" lon="5.36159">
        <ele>632.92199707031</ele>
        <time>2009-05-27T13:48:17Z</time>
      </trkpt>
      <trkpt lat="45.08048" lon="5.36222">
        <ele>636.416015625</ele>
        <time>2009-05-27T13:48:32Z</time>
      </trkpt>
      <trkpt lat="45.08051" lon="5.36286">
        <ele>639.86999511719</ele>
        <time>2009-05-27T13:48:45Z</time>
      </trkpt>
      <trkpt lat="45.08035" lon="5.36354">
        <ele>643.28302001953</ele>
        <time>2009-05-27T13:48:59Z</time>
      </trkpt>
      <trkpt lat="45.08032" lon="5.36418">
        <ele>648.43798828125</ele>
        <time>2009-05-27T13:49:12Z</time>
      </trkpt>
      <trkpt lat="45.08024" lon="5.36473">
        <ele>652.28997802734</ele>
        <time>2009-05-27T13:49:23Z</time>
      </trkpt>
      <trkpt lat="45.08028" lon="5.36538">
        <ele>656.76098632812</ele>
        <time>2009-05-27T13:49:37Z</time>
      </trkpt>
      <trkpt lat="45.08005" lon="5.36586">
        <ele>659.9580078125</ele>
        <time>2009-05-27T13:49:51Z</time>
      </trkpt>
      <trkpt lat="45.07974" lon="5.3663">
        <ele>664.9990234375</ele>
        <time>2009-05-27T13:50:08Z</time>
      </trkpt>
      <trkpt lat="45.07942" lon="5.3666">
        <ele>668.15899658203</ele>
        <time>2009-05-27T13:50:22Z</time>
      </trkpt>
      <trkpt lat="45.0792" lon="5.36708">
        <ele>671.14801025391</ele>
        <time>2009-05-27T13:50:37Z</time>
      </trkpt>
      <trkpt lat="45.07897" lon="5.36754">
        <ele>674.59100341797</ele>
        <time>2009-05-27T13:50:49Z</time>
      </trkpt>
      <trkpt lat="45.07861" lon="5.36818">
        <ele>680.65301513672</ele>
        <time>2009-05-27T13:51:08Z</time>
      </trkpt>
      <trkpt lat="45.07853" lon="5.36882">
        <ele>684.97100830078</ele>
        <time>2009-05-27T13:51:23Z</time>
      </trkpt>
      <trkpt lat="45.07873" lon="5.36935">
        <ele>689.12701416016</ele>
        <time>2009-05-27T13:51:37Z</time>
      </trkpt>
      <trkpt lat="45.07872" lon="5.37007">
        <ele>693.62799072266</ele>
        <time>2009-05-27T13:51:55Z</time>
      </trkpt>
      <trkpt lat="45.07852" lon="5.37062">
        <ele>697.19097900391</ele>
        <time>2009-05-27T13:52:10Z</time>
      </trkpt>
      <trkpt lat="45.07837" lon="5.37106">
        <ele>700.89801025391</ele>
        <time>2009-05-27T13:52:22Z</time>
      </trkpt>
      <trkpt lat="45.07867" lon="5.3716">
        <ele>705.71301269531</ele>
        <time>2009-05-27T13:52:36Z</time>
      </trkpt>
      <trkpt lat="45.07898" lon="5.37216">
        <ele>710.22399902344</ele>
        <time>2009-05-27T13:52:52Z</time>
      </trkpt>
      <trkpt lat="45.07919" lon="5.37278">
        <ele>715.06097412109</ele>
        <time>2009-05-27T13:53:10Z</time>
      </trkpt>
      <trkpt lat="45.07942" lon="5.3735">
        <ele>720.18701171875</ele>
        <time>2009-05-27T13:53:29Z</time>
      </trkpt>
      <trkpt lat="45.07947" lon="5.37387">
        <ele>722.73699951172</ele>
        <time>2009-05-27T13:53:37Z</time>
      </trkpt>
      <trkpt lat="45.07948" lon="5.37462">
        <ele>727.7080078125</ele>
        <time>2009-05-27T13:53:53Z</time>
      </trkpt>
      <trkpt lat="45.07935" lon="5.37538">
        <ele>732.83801269531</ele>
        <time>2009-05-27T13:54:09Z</time>
      </trkpt>
      <trkpt lat="45.07915" lon="5.37592">
        <ele>736.68798828125</ele>
        <time>2009-05-27T13:54:23Z</time>
      </trkpt>
      <trkpt lat="45.07882" lon="5.37635">
        <ele>740.62097167969</ele>
        <time>2009-05-27T13:54:40Z</time>
      </trkpt>
      <trkpt lat="45.07899" lon="5.37629">
        <ele>741.56597900391</ele>
        <time>2009-05-27T13:54:47Z</time>
      </trkpt>
      <trkpt lat="45.07947" lon="5.37574">
        <ele>746.07897949219</ele>
        <time>2009-05-27T13:55:04Z</time>
      </trkpt>
      <trkpt lat="45.0798" lon="5.37494">
        <ele>751.57397460938</ele>
        <time>2009-05-27T13:55:22Z</time>
      </trkpt>
      <trkpt lat="45.07989" lon="5.3743">
        <ele>756.13299560547</ele>
        <time>2009-05-27T13:55:38Z</time>
      </trkpt>
      <trkpt lat="45.07996" lon="5.3737">
        <ele>760.18701171875</ele>
        <time>2009-05-27T13:55:54Z</time>
      </trkpt>
      <trkpt lat="45.07997" lon="5.37324">
        <ele>763.30902099609</ele>
        <time>2009-05-27T13:56:06Z</time>
      </trkpt>
      <trkpt lat="45.07987" lon="5.3723">
        <ele>768.76202392578</ele>
        <time>2009-05-27T13:56:28Z</time>
      </trkpt>
      <trkpt lat="45.07978" lon="5.3716">
        <ele>773.125</ele>
        <time>2009-05-27T13:56:45Z</time>
      </trkpt>
      <trkpt lat="45.07956" lon="5.3711">
        <ele>777.16998291016</ele>
        <time>2009-05-27T13:56:58Z</time>
      </trkpt>
      <trkpt lat="45.07961" lon="5.37093">
        <ele>778.42297363281</ele>
        <time>2009-05-27T13:57:04Z</time>
      </trkpt>
      <trkpt lat="45.07991" lon="5.37184">
        <ele>782.95397949219</ele>
        <time>2009-05-27T13:57:24Z</time>
      </trkpt>
      <trkpt lat="45.08003" lon="5.37227">
        <ele>784.85198974609</ele>
        <time>2009-05-27T13:57:32Z</time>
      </trkpt>
      <trkpt lat="45.0801" lon="5.37261">
        <ele>786.02899169922</ele>
        <time>2009-05-27T13:57:38Z</time>
      </trkpt>
      <trkpt lat="45.08014" lon="5.37279">
        <ele>786.82000732422</ele>
        <time>2009-05-27T13:57:41Z</time>
      </trkpt>
      <trkpt lat="45.08017" lon="5.37296">
        <ele>787.541015625</ele>
        <time>2009-05-27T13:57:44Z</time>
      </trkpt>
      <trkpt lat="45.08028" lon="5.37384">
        <ele>791.11102294922</ele>
        <time>2009-05-27T13:57:58Z</time>
      </trkpt>
      <trkpt lat="45.08035" lon="5.37396">
        <ele>792.45098876953</ele>
        <time>2009-05-27T13:58:01Z</time>
      </trkpt>
      <trkpt lat="45.08038" lon="5.37418">
        <ele>794.60498046875</ele>
        <time>2009-05-27T13:58:05Z</time>
      </trkpt>
      <trkpt lat="45.08038" lon="5.37423">
        <ele>795.1259765625</ele>
        <time>2009-05-27T13:58:06Z</time>
      </trkpt>
      <trkpt lat="45.08035" lon="5.3745">
        <ele>797.24597167969</ele>
        <time>2009-05-27T13:58:11Z</time>
      </trkpt>
      <trkpt lat="45.08014" lon="5.37516">
        <ele>801.36499023438</ele>
        <time>2009-05-27T13:58:25Z</time>
      </trkpt>
      <trkpt lat="45.08028" lon="5.37576">
        <ele>804.99499511719</ele>
        <time>2009-05-27T13:58:36Z</time>
      </trkpt>
      <trkpt lat="45.08041" lon="5.37587">
        <ele>806.86499023438</ele>
        <time>2009-05-27T13:58:43Z</time>
      </trkpt>
      <trkpt lat="45.08026" lon="5.37625">
        <ele>809.27099609375</ele>
        <time>2009-05-27T13:58:51Z</time>
      </trkpt>
      <trkpt lat="45.08008" lon="5.37653">
        <ele>811.6669921875</ele>
        <time>2009-05-27T13:59:04Z</time>
      </trkpt>
      <trkpt lat="45.08004" lon="5.37661">
        <ele>812.40802001953</ele>
        <time>2009-05-27T13:59:08Z</time>
      </trkpt>
      <trkpt lat="45.07995" lon="5.37678">
        <ele>813.79498291016</ele>
        <time>2009-05-27T13:59:17Z</time>
      </trkpt>
      <trkpt lat="45.07998" lon="5.37709">
        <ele>815.99700927734</ele>
        <time>2009-05-27T13:59:30Z</time>
      </trkpt>
      <trkpt lat="45.08038" lon="5.37736">
        <ele>817.96398925781</ele>
        <time>2009-05-27T13:59:46Z</time>
      </trkpt>
      <trkpt lat="45.08061" lon="5.37779">
        <ele>818.91900634766</ele>
        <time>2009-05-27T13:59:57Z</time>
      </trkpt>
      <trkpt lat="45.08062" lon="5.37827">
        <ele>818.79901123047</ele>
        <time>2009-05-27T14:00:06Z</time>
      </trkpt>
      <trkpt lat="45.08066" lon="5.37833">
        <ele>818.21801757812</ele>
        <time>2009-05-27T14:00:36Z</time>
      </trkpt>
      <trkpt lat="45.08066" lon="5.37836">
        <ele>818.125</ele>
        <time>2009-05-27T14:00:37Z</time>
      </trkpt>
      <trkpt lat="45.08077" lon="5.37872">
        <ele>818.37902832031</ele>
        <time>2009-05-27T14:00:45Z</time>
      </trkpt>
      <trkpt lat="45.08088" lon="5.37884">
        <ele>818.01000976562</ele>
        <time>2009-05-27T14:00:49Z</time>
      </trkpt>
      <trkpt lat="45.08112" lon="5.37918">
        <ele>818.18200683594</ele>
        <time>2009-05-27T14:01:00Z</time>
      </trkpt>
      <trkpt lat="45.08116" lon="5.37933">
        <ele>818.14599609375</ele>
        <time>2009-05-27T14:01:03Z</time>
      </trkpt>
      <trkpt lat="45.08123" lon="5.37951">
        <ele>818.29998779297</ele>
        <time>2009-05-27T14:01:06Z</time>
      </trkpt>
      <trkpt lat="45.08143" lon="5.37976">
        <ele>818.82800292969</ele>
        <time>2009-05-27T14:01:12Z</time>
      </trkpt>
      <trkpt lat="45.08186" lon="5.38001">
        <ele>819.67602539062</ele>
        <time>2009-05-27T14:01:22Z</time>
      </trkpt>
      <trkpt lat="45.08194" lon="5.38007">
        <ele>819.39801025391</ele>
        <time>2009-05-27T14:01:24Z</time>
      </trkpt>
      <trkpt lat="45.08205" lon="5.3802">
        <ele>820.45599365234</ele>
        <time>2009-05-27T14:01:27Z</time>
      </trkpt>
      <trkpt lat="45.08224" lon="5.38055">
        <ele>820.47302246094</ele>
        <time>2009-05-27T14:01:34Z</time>
      </trkpt>
      <trkpt lat="45.08239" lon="5.38073">
        <ele>821.3740234375</ele>
        <time>2009-05-27T14:01:39Z</time>
      </trkpt>
      <trkpt lat="45.08264" lon="5.38084">
        <ele>820.98297119141</ele>
        <time>2009-05-27T14:01:46Z</time>
      </trkpt>
      <trkpt lat="45.08353" lon="5.38124">
        <ele>823.13897705078</ele>
        <time>2009-05-27T14:02:06Z</time>
      </trkpt>
      <trkpt lat="45.08427" lon="5.38155">
        <ele>824.91302490234</ele>
        <time>2009-05-27T14:02:22Z</time>
      </trkpt>
      <trkpt lat="45.08452" lon="5.38167">
        <ele>826.47601318359</ele>
        <time>2009-05-27T14:02:28Z</time>
      </trkpt>
      <trkpt lat="45.08516" lon="5.38192">
        <ele>829.06402587891</ele>
        <time>2009-05-27T14:02:44Z</time>
      </trkpt>
      <trkpt lat="45.08577" lon="5.38216">
        <ele>831.00799560547</ele>
        <time>2009-05-27T14:03:00Z</time>
      </trkpt>
      <trkpt lat="45.08646" lon="5.38228">
        <ele>834.33697509766</ele>
        <time>2009-05-27T14:03:17Z</time>
      </trkpt>
      <trkpt lat="45.0871" lon="5.38239">
        <ele>836.94201660156</ele>
        <time>2009-05-27T14:03:33Z</time>
      </trkpt>
      <trkpt lat="45.08777" lon="5.38252">
        <ele>839.15600585938</ele>
        <time>2009-05-27T14:03:49Z</time>
      </trkpt>
      <trkpt lat="45.0885" lon="5.3827">
        <ele>842.86401367188</ele>
        <time>2009-05-27T14:04:07Z</time>
      </trkpt>
      <trkpt lat="45.08923" lon="5.38263">
        <ele>846.2919921875</ele>
        <time>2009-05-27T14:04:24Z</time>
      </trkpt>
      <trkpt lat="45.08992" lon="5.38247">
        <ele>850.17602539062</ele>
        <time>2009-05-27T14:04:42Z</time>
      </trkpt>
      <trkpt lat="45.09016" lon="5.38236">
        <ele>851.65899658203</ele>
        <time>2009-05-27T14:04:48Z</time>
      </trkpt>
      <trkpt lat="45.09066" lon="5.3822">
        <ele>854.57702636719</ele>
        <time>2009-05-27T14:05:04Z</time>
      </trkpt>
      <trkpt lat="45.09097" lon="5.38233">
        <ele>855.30499267578</ele>
        <time>2009-05-27T14:05:13Z</time>
      </trkpt>
      <trkpt lat="45.09113" lon="5.38252">
        <ele>855.92797851562</ele>
        <time>2009-05-27T14:05:18Z</time>
      </trkpt>
      <trkpt lat="45.09123" lon="5.38255">
        <ele>857.48999023438</ele>
        <time>2009-05-27T14:05:22Z</time>
      </trkpt>
      <trkpt lat="45.09161" lon="5.38252">
        <ele>861.96600341797</ele>
        <time>2009-05-27T14:05:35Z</time>
      </trkpt>
      <trkpt lat="45.09175" lon="5.38256">
        <ele>863.84002685547</ele>
        <time>2009-05-27T14:05:40Z</time>
      </trkpt>
      <trkpt lat="45.09209" lon="5.38283">
        <ele>867.23498535156</ele>
        <time>2009-05-27T14:05:53Z</time>
      </trkpt>
      <trkpt lat="45.09239" lon="5.38321">
        <ele>871.21301269531</ele>
        <time>2009-05-27T14:06:06Z</time>
      </trkpt>
      <trkpt lat="45.09277" lon="5.38368">
        <ele>872.13897705078</ele>
        <time>2009-05-27T14:06:19Z</time>
      </trkpt>
      <trkpt lat="45.09301" lon="5.38399">
        <ele>873.27099609375</ele>
        <time>2009-05-27T14:06:26Z</time>
      </trkpt>
      <trkpt lat="45.09322" lon="5.38442">
        <ele>873.93298339844</ele>
        <time>2009-05-27T14:06:34Z</time>
      </trkpt>
      <trkpt lat="45.09349" lon="5.38477">
        <ele>875.37701416016</ele>
        <time>2009-05-27T14:06:42Z</time>
      </trkpt>
      <trkpt lat="45.09361" lon="5.38494">
        <ele>876.55401611328</ele>
        <time>2009-05-27T14:06:46Z</time>
      </trkpt>
      <trkpt lat="45.09368" lon="5.38514">
        <ele>877.36199951172</ele>
        <time>2009-05-27T14:06:50Z</time>
      </trkpt>
      <trkpt lat="45.09409" lon="5.38564">
        <ele>880.62799072266</ele>
        <time>2009-05-27T14:07:04Z</time>
      </trkpt>
      <trkpt lat="45.09451" lon="5.38579">
        <ele>883.04901123047</ele>
        <time>2009-05-27T14:07:15Z</time>
      </trkpt>
      <trkpt lat="45.09504" lon="5.38607">
        <ele>885.71997070312</ele>
        <time>2009-05-27T14:07:29Z</time>
      </trkpt>
      <trkpt lat="45.09554" lon="5.38647">
        <ele>889.84899902344</ele>
        <time>2009-05-27T14:07:43Z</time>
      </trkpt>
      <trkpt lat="45.09557" lon="5.38696">
        <ele>891.60998535156</ele>
        <time>2009-05-27T14:07:52Z</time>
      </trkpt>
      <trkpt lat="45.0955" lon="5.38712">
        <ele>891.9990234375</ele>
        <time>2009-05-27T14:07:55Z</time>
      </trkpt>
      <trkpt lat="45.09563" lon="5.38756">
        <ele>894.57702636719</ele>
        <time>2009-05-27T14:08:04Z</time>
      </trkpt>
      <trkpt lat="45.09585" lon="5.38755">
        <ele>895.57098388672</ele>
        <time>2009-05-27T14:08:09Z</time>
      </trkpt>
      <trkpt lat="45.09603" lon="5.38748">
        <ele>895.77301025391</ele>
        <time>2009-05-27T14:08:13Z</time>
      </trkpt>
      <trkpt lat="45.0964" lon="5.38762">
        <ele>896.99200439453</ele>
        <time>2009-05-27T14:08:21Z</time>
      </trkpt>
      <trkpt lat="45.09652" lon="5.38788">
        <ele>898.10400390625</ele>
        <time>2009-05-27T14:08:26Z</time>
      </trkpt>
      <trkpt lat="45.09655" lon="5.38799">
        <ele>898.33801269531</ele>
        <time>2009-05-27T14:08:28Z</time>
      </trkpt>
      <trkpt lat="45.09644" lon="5.38846">
        <ele>899.04699707031</ele>
        <time>2009-05-27T14:08:36Z</time>
      </trkpt>
      <trkpt lat="45.09649" lon="5.38873">
        <ele>900.10400390625</ele>
        <time>2009-05-27T14:08:41Z</time>
      </trkpt>
      <trkpt lat="45.09654" lon="5.38874">
        <ele>900.31201171875</ele>
        <time>2009-05-27T14:08:42Z</time>
      </trkpt>
      <trkpt lat="45.09726" lon="5.38898">
        <ele>903.36297607422</ele>
        <time>2009-05-27T14:08:57Z</time>
      </trkpt>
      <trkpt lat="45.09745" lon="5.38911">
        <ele>903.63598632812</ele>
        <time>2009-05-27T14:09:01Z</time>
      </trkpt>
      <trkpt lat="45.09767" lon="5.38935">
        <ele>904.62902832031</ele>
        <time>2009-05-27T14:09:06Z</time>
      </trkpt>
      <trkpt lat="45.09812" lon="5.38938">
        <ele>905.11199951172</ele>
        <time>2009-05-27T14:09:14Z</time>
      </trkpt>
      <trkpt lat="45.09834" lon="5.38921">
        <ele>905.92102050781</ele>
        <time>2009-05-27T14:09:18Z</time>
      </trkpt>
      <trkpt lat="45.09877" lon="5.38928">
        <ele>908.45001220703</ele>
        <time>2009-05-27T14:09:26Z</time>
      </trkpt>
      <trkpt lat="45.09917" lon="5.38982">
        <ele>910.41497802734</ele>
        <time>2009-05-27T14:09:36Z</time>
      </trkpt>
      <trkpt lat="45.09962" lon="5.3902">
        <ele>911.96099853516</ele>
        <time>2009-05-27T14:09:46Z</time>
      </trkpt>
      <trkpt lat="45.10006" lon="5.39013">
        <ele>913.29699707031</ele>
        <time>2009-05-27T14:09:55Z</time>
      </trkpt>
      <trkpt lat="45.1003" lon="5.38988">
        <ele>914.07800292969</ele>
        <time>2009-05-27T14:10:01Z</time>
      </trkpt>
      <trkpt lat="45.10052" lon="5.3896">
        <ele>914.56701660156</ele>
        <time>2009-05-27T14:10:07Z</time>
      </trkpt>
      <trkpt lat="45.10087" lon="5.3896">
        <ele>916.71502685547</ele>
        <time>2009-05-27T14:10:14Z</time>
      </trkpt>
      <trkpt lat="45.10105" lon="5.38976">
        <ele>917.03198242188</ele>
        <time>2009-05-27T14:10:18Z</time>
      </trkpt>
      <trkpt lat="45.10175" lon="5.39035">
        <ele>919.95098876953</ele>
        <time>2009-05-27T14:10:34Z</time>
      </trkpt>
      <trkpt lat="45.10205" lon="5.39059">
        <ele>921.44702148438</ele>
        <time>2009-05-27T14:10:41Z</time>
      </trkpt>
      <trkpt lat="45.10217" lon="5.39071">
        <ele>922.1259765625</ele>
        <time>2009-05-27T14:10:44Z</time>
      </trkpt>
      <trkpt lat="45.10229" lon="5.391">
        <ele>922.59497070312</ele>
        <time>2009-05-27T14:10:49Z</time>
      </trkpt>
      <trkpt lat="45.10231" lon="5.39127">
        <ele>923.00299072266</ele>
        <time>2009-05-27T14:10:53Z</time>
      </trkpt>
      <trkpt lat="45.10247" lon="5.39157">
        <ele>924.62200927734</ele>
        <time>2009-05-27T14:10:59Z</time>
      </trkpt>
      <trkpt lat="45.10302" lon="5.39183">
        <ele>926.92999267578</ele>
        <time>2009-05-27T14:11:11Z</time>
      </trkpt>
      <trkpt lat="45.1032" lon="5.39184">
        <ele>928.26000976562</ele>
        <time>2009-05-27T14:11:15Z</time>
      </trkpt>
      <trkpt lat="45.1039" lon="5.39169">
        <ele>931.44396972656</ele>
        <time>2009-05-27T14:11:32Z</time>
      </trkpt>
      <trkpt lat="45.10424" lon="5.39175">
        <ele>934.36901855469</ele>
        <time>2009-05-27T14:11:40Z</time>
      </trkpt>
      <trkpt lat="45.10443" lon="5.3919">
        <ele>934.35101318359</ele>
        <time>2009-05-27T14:11:45Z</time>
      </trkpt>
      <trkpt lat="45.10494" lon="5.39243">
        <ele>937.48602294922</ele>
        <time>2009-05-27T14:12:01Z</time>
      </trkpt>
      <trkpt lat="45.10508" lon="5.39256">
        <ele>938.74200439453</ele>
        <time>2009-05-27T14:12:05Z</time>
      </trkpt>
      <trkpt lat="45.10543" lon="5.39289">
        <ele>940.89398193359</ele>
        <time>2009-05-27T14:12:15Z</time>
      </trkpt>
      <trkpt lat="45.10555" lon="5.39304">
        <ele>941.1259765625</ele>
        <time>2009-05-27T14:12:19Z</time>
      </trkpt>
      <trkpt lat="45.10586" lon="5.39335">
        <ele>943.86297607422</ele>
        <time>2009-05-27T14:12:28Z</time>
      </trkpt>
      <trkpt lat="45.10638" lon="5.39354">
        <ele>946.55603027344</ele>
        <time>2009-05-27T14:12:41Z</time>
      </trkpt>
      <trkpt lat="45.10653" lon="5.39364">
        <ele>947.62701416016</ele>
        <time>2009-05-27T14:12:45Z</time>
      </trkpt>
      <trkpt lat="45.1069" lon="5.3942">
        <ele>950.708984375</ele>
        <time>2009-05-27T14:13:00Z</time>
      </trkpt>
      <trkpt lat="45.10711" lon="5.39454">
        <ele>952.73498535156</ele>
        <time>2009-05-27T14:13:10Z</time>
      </trkpt>
      <trkpt lat="45.10716" lon="5.39478">
        <ele>954.17102050781</ele>
        <time>2009-05-27T14:13:15Z</time>
      </trkpt>
      <trkpt lat="45.10727" lon="5.39515">
        <ele>955.75500488281</ele>
        <time>2009-05-27T14:13:23Z</time>
      </trkpt>
      <trkpt lat="45.10767" lon="5.39562">
        <ele>959.00500488281</ele>
        <time>2009-05-27T14:13:40Z</time>
      </trkpt>
      <trkpt lat="45.10784" lon="5.39616">
        <ele>962.21697998047</ele>
        <time>2009-05-27T14:13:53Z</time>
      </trkpt>
      <trkpt lat="45.10787" lon="5.39681">
        <ele>964.85198974609</ele>
        <time>2009-05-27T14:14:06Z</time>
      </trkpt>
      <trkpt lat="45.10823" lon="5.39708">
        <ele>967.60400390625</ele>
        <time>2009-05-27T14:14:18Z</time>
      </trkpt>
      <trkpt lat="45.10871" lon="5.39736">
        <ele>970.19396972656</ele>
        <time>2009-05-27T14:14:33Z</time>
      </trkpt>
      <trkpt lat="45.10929" lon="5.39736">
        <ele>973.96899414062</ele>
        <time>2009-05-27T14:14:49Z</time>
      </trkpt>
      <trkpt lat="45.10952" lon="5.39738">
        <ele>975.38201904297</ele>
        <time>2009-05-27T14:14:55Z</time>
      </trkpt>
      <trkpt lat="45.10967" lon="5.39754">
        <ele>976.53302001953</ele>
        <time>2009-05-27T14:15:00Z</time>
      </trkpt>
      <trkpt lat="45.1102" lon="5.39816">
        <ele>980.46997070312</ele>
        <time>2009-05-27T14:15:18Z</time>
      </trkpt>
      <trkpt lat="45.11071" lon="5.39836">
        <ele>983.71502685547</ele>
        <time>2009-05-27T14:15:32Z</time>
      </trkpt>
      <trkpt lat="45.11119" lon="5.39847">
        <ele>986.60198974609</ele>
        <time>2009-05-27T14:15:46Z</time>
      </trkpt>
      <trkpt lat="45.11157" lon="5.39874">
        <ele>989.36199951172</ele>
        <time>2009-05-27T14:15:58Z</time>
      </trkpt>
      <trkpt lat="45.11195" lon="5.39892">
        <ele>992.2919921875</ele>
        <time>2009-05-27T14:16:10Z</time>
      </trkpt>
      <trkpt lat="45.11245" lon="5.39893">
        <ele>995.77099609375</ele>
        <time>2009-05-27T14:16:25Z</time>
      </trkpt>
      <trkpt lat="45.11293" lon="5.39868">
        <ele>997.81799316406</ele>
        <time>2009-05-27T14:16:40Z</time>
      </trkpt>
      <trkpt lat="45.11338" lon="5.3985">
        <ele>1000.6049804688</ele>
        <time>2009-05-27T14:16:54Z</time>
      </trkpt>
      <trkpt lat="45.11367" lon="5.3985">
        <ele>1003.0540161133</ele>
        <time>2009-05-27T14:17:02Z</time>
      </trkpt>
      <trkpt lat="45.11404" lon="5.3987">
        <ele>1004.0889892578</ele>
        <time>2009-05-27T14:17:14Z</time>
      </trkpt>
      <trkpt lat="45.11442" lon="5.39906">
        <ele>1005.8510131836</ele>
        <time>2009-05-27T14:17:27Z</time>
      </trkpt>
      <trkpt lat="45.11478" lon="5.39927">
        <ele>1008.2199707031</ele>
        <time>2009-05-27T14:17:37Z</time>
      </trkpt>
      <trkpt lat="45.11503" lon="5.39949">
        <ele>1007.7109985352</ele>
        <time>2009-05-27T14:17:43Z</time>
      </trkpt>
      <trkpt lat="45.11515" lon="5.39968">
        <ele>1006.4459838867</ele>
        <time>2009-05-27T14:17:46Z</time>
      </trkpt>
      <trkpt lat="45.11524" lon="5.3998">
        <ele>1005.3699951172</ele>
        <time>2009-05-27T14:17:48Z</time>
      </trkpt>
      <trkpt lat="45.1155" lon="5.39994">
        <ele>1006.8280029297</ele>
        <time>2009-05-27T14:17:54Z</time>
      </trkpt>
      <trkpt lat="45.11561" lon="5.39991">
        <ele>1008.3579711914</ele>
        <time>2009-05-27T14:18:01Z</time>
      </trkpt>
      <trkpt lat="45.11558" lon="5.39969">
        <ele>1007.8989868164</ele>
        <time>2009-05-27T14:18:49Z</time>
      </trkpt>
      <trkpt lat="45.11559" lon="5.39943">
        <ele>1007.5650024414</ele>
        <time>2009-05-27T14:18:55Z</time>
      </trkpt>
      <trkpt lat="45.1156" lon="5.39875">
        <ele>1008.4680175781</ele>
        <time>2009-05-27T14:19:04Z</time>
      </trkpt>
      <trkpt lat="45.11578" lon="5.39828">
        <ele>1011.0150146484</ele>
        <time>2009-05-27T14:19:14Z</time>
      </trkpt>
      <trkpt lat="45.11591" lon="5.39809">
        <ele>1011.6370239258</ele>
        <time>2009-05-27T14:19:18Z</time>
      </trkpt>
      <trkpt lat="45.11604" lon="5.39791">
        <ele>1012.2810058594</ele>
        <time>2009-05-27T14:19:22Z</time>
      </trkpt>
      <trkpt lat="45.11618" lon="5.39771">
        <ele>1012.7080078125</ele>
        <time>2009-05-27T14:19:26Z</time>
      </trkpt>
      <trkpt lat="45.11629" lon="5.39737">
        <ele>1013.5900268555</ele>
        <time>2009-05-27T14:19:31Z</time>
      </trkpt>
      <trkpt lat="45.1163" lon="5.39717">
        <ele>1014.0479736328</ele>
        <time>2009-05-27T14:19:34Z</time>
      </trkpt>
      <trkpt lat="45.11631" lon="5.39692">
        <ele>1015.3460083008</ele>
        <time>2009-05-27T14:19:38Z</time>
      </trkpt>
      <trkpt lat="45.11632" lon="5.39638">
        <ele>1016.6409912109</ele>
        <time>2009-05-27T14:19:48Z</time>
      </trkpt>
      <trkpt lat="45.11641" lon="5.39592">
        <ele>1015.5540161133</ele>
        <time>2009-05-27T14:19:55Z</time>
      </trkpt>
      <trkpt lat="45.11642" lon="5.39524">
        <ele>1014.1760253906</ele>
        <time>2009-05-27T14:20:03Z</time>
      </trkpt>
      <trkpt lat="45.11624" lon="5.39403">
        <ele>1007.0479736328</ele>
        <time>2009-05-27T14:20:13Z</time>
      </trkpt>
      <trkpt lat="45.11613" lon="5.39327">
        <ele>1004.2550048828</ele>
        <time>2009-05-27T14:20:18Z</time>
      </trkpt>
      <trkpt lat="45.11602" lon="5.39235">
        <ele>1001.3469848633</ele>
        <time>2009-05-27T14:20:24Z</time>
      </trkpt>
      <trkpt lat="45.11598" lon="5.39185">
        <ele>997.54901123047</ele>
        <time>2009-05-27T14:20:27Z</time>
      </trkpt>
      <trkpt lat="45.11596" lon="5.3915">
        <ele>996.72998046875</ele>
        <time>2009-05-27T14:20:29Z</time>
      </trkpt>
      <trkpt lat="45.11596" lon="5.39097">
        <ele>994.42199707031</ele>
        <time>2009-05-27T14:20:32Z</time>
      </trkpt>
      <trkpt lat="45.11597" lon="5.39079">
        <ele>994.12200927734</ele>
        <time>2009-05-27T14:20:33Z</time>
      </trkpt>
      <trkpt lat="45.11623" lon="5.38956">
        <ele>986.92700195312</ele>
        <time>2009-05-27T14:20:40Z</time>
      </trkpt>
      <trkpt lat="45.11628" lon="5.389">
        <ele>984.21002197266</ele>
        <time>2009-05-27T14:20:43Z</time>
      </trkpt>
      <trkpt lat="45.11663" lon="5.38823">
        <ele>977.42498779297</ele>
        <time>2009-05-27T14:20:48Z</time>
      </trkpt>
      <trkpt lat="45.11679" lon="5.38749">
        <ele>971.01501464844</ele>
        <time>2009-05-27T14:20:52Z</time>
      </trkpt>
      <trkpt lat="45.11662" lon="5.38586">
        <ele>958.84100341797</ele>
        <time>2009-05-27T14:21:00Z</time>
      </trkpt>
      <trkpt lat="45.11664" lon="5.38563">
        <ele>958.36199951172</ele>
        <time>2009-05-27T14:21:02Z</time>
      </trkpt>
      <trkpt lat="45.11662" lon="5.38555">
        <ele>958.33599853516</ele>
        <time>2009-05-27T14:21:03Z</time>
      </trkpt>
      <trkpt lat="45.11658" lon="5.38554">
        <ele>957.80902099609</ele>
        <time>2009-05-27T14:21:04Z</time>
      </trkpt>
      <trkpt lat="45.11649" lon="5.38585">
        <ele>956.32501220703</ele>
        <time>2009-05-27T14:21:08Z</time>
      </trkpt>
      <trkpt lat="45.1165" lon="5.38606">
        <ele>955.16302490234</ele>
        <time>2009-05-27T14:21:10Z</time>
      </trkpt>
      <trkpt lat="45.11651" lon="5.38631">
        <ele>953.24298095703</ele>
        <time>2009-05-27T14:21:12Z</time>
      </trkpt>
      <trkpt lat="45.11629" lon="5.38702">
        <ele>946.21398925781</ele>
        <time>2009-05-27T14:21:17Z</time>
      </trkpt>
      <trkpt lat="45.11569" lon="5.38724">
        <ele>938.07702636719</ele>
        <time>2009-05-27T14:21:22Z</time>
      </trkpt>
      <trkpt lat="45.11558" lon="5.38714">
        <ele>935.88800048828</ele>
        <time>2009-05-27T14:21:23Z</time>
      </trkpt>
      <trkpt lat="45.11525" lon="5.38686">
        <ele>933.21197509766</ele>
        <time>2009-05-27T14:21:26Z</time>
      </trkpt>
      <trkpt lat="45.11501" lon="5.38722">
        <ele>929.64898681641</ele>
        <time>2009-05-27T14:21:31Z</time>
      </trkpt>
      <trkpt lat="45.11506" lon="5.38869">
        <ele>918.11297607422</ele>
        <time>2009-05-27T14:21:40Z</time>
      </trkpt>
      <trkpt lat="45.11507" lon="5.38879">
        <ele>917.93499755859</ele>
        <time>2009-05-27T14:21:41Z</time>
      </trkpt>
      <trkpt lat="45.11502" lon="5.38889">
        <ele>917.34997558594</ele>
        <time>2009-05-27T14:21:43Z</time>
      </trkpt>
      <trkpt lat="45.11494" lon="5.38875">
        <ele>915.31298828125</ele>
        <time>2009-05-27T14:21:45Z</time>
      </trkpt>
      <trkpt lat="45.11494" lon="5.38865">
        <ele>915.07098388672</ele>
        <time>2009-05-27T14:21:46Z</time>
      </trkpt>
      <trkpt lat="45.11471" lon="5.38748">
        <ele>905.53601074219</ele>
        <time>2009-05-27T14:21:55Z</time>
      </trkpt>
      <trkpt lat="45.11431" lon="5.38651">
        <ele>895.31402587891</ele>
        <time>2009-05-27T14:22:01Z</time>
      </trkpt>
      <trkpt lat="45.11383" lon="5.38519">
        <ele>884.26501464844</ele>
        <time>2009-05-27T14:22:08Z</time>
      </trkpt>
      <trkpt lat="45.11369" lon="5.38482">
        <ele>881.791015625</ele>
        <time>2009-05-27T14:22:10Z</time>
      </trkpt>
      <trkpt lat="45.11373" lon="5.38407">
        <ele>875.94299316406</ele>
        <time>2009-05-27T14:22:15Z</time>
      </trkpt>
      <trkpt lat="45.11385" lon="5.38375">
        <ele>872.80102539062</ele>
        <time>2009-05-27T14:22:17Z</time>
      </trkpt>
      <trkpt lat="45.114" lon="5.38313">
        <ele>869.19598388672</ele>
        <time>2009-05-27T14:22:21Z</time>
      </trkpt>
      <trkpt lat="45.11407" lon="5.38306">
        <ele>868.208984375</ele>
        <time>2009-05-27T14:22:22Z</time>
      </trkpt>
      <trkpt lat="45.11423" lon="5.38314">
        <ele>865.78601074219</ele>
        <time>2009-05-27T14:22:24Z</time>
      </trkpt>
      <trkpt lat="45.11455" lon="5.38276">
        <ele>859.5</ele>
        <time>2009-05-27T14:22:30Z</time>
      </trkpt>
      <trkpt lat="45.11459" lon="5.38247">
        <ele>855.01202392578</ele>
        <time>2009-05-27T14:22:32Z</time>
      </trkpt>
      <trkpt lat="45.11472" lon="5.3818">
        <ele>854.82098388672</ele>
        <time>2009-05-27T14:22:36Z</time>
      </trkpt>
      <trkpt lat="45.115" lon="5.38116">
        <ele>844.12799072266</ele>
        <time>2009-05-27T14:22:40Z</time>
      </trkpt>
      <trkpt lat="45.11523" lon="5.38092">
        <ele>839.79602050781</ele>
        <time>2009-05-27T14:22:42Z</time>
      </trkpt>
      <trkpt lat="45.11603" lon="5.3802">
        <ele>830.24798583984</ele>
        <time>2009-05-27T14:22:48Z</time>
      </trkpt>
      <trkpt lat="45.11654" lon="5.37935">
        <ele>825.86297607422</ele>
        <time>2009-05-27T14:22:54Z</time>
      </trkpt>
      <trkpt lat="45.11656" lon="5.37921">
        <ele>825.05200195312</ele>
        <time>2009-05-27T14:22:56Z</time>
      </trkpt>
      <trkpt lat="45.1163" lon="5.37934">
        <ele>822.05902099609</ele>
        <time>2009-05-27T14:23:00Z</time>
      </trkpt>
      <trkpt lat="45.11623" lon="5.37942">
        <ele>820.94702148438</ele>
        <time>2009-05-27T14:23:01Z</time>
      </trkpt>
      <trkpt lat="45.11614" lon="5.37948">
        <ele>820.35900878906</ele>
        <time>2009-05-27T14:23:02Z</time>
      </trkpt>
      <trkpt lat="45.11596" lon="5.3796">
        <ele>816.84802246094</ele>
        <time>2009-05-27T14:23:04Z</time>
      </trkpt>
      <trkpt lat="45.1155" lon="5.37935">
        <ele>810.11297607422</ele>
        <time>2009-05-27T14:23:10Z</time>
      </trkpt>
      <trkpt lat="45.11555" lon="5.37908">
        <ele>808.36901855469</ele>
        <time>2009-05-27T14:23:12Z</time>
      </trkpt>
      <trkpt lat="45.11563" lon="5.37882">
        <ele>806.73699951172</ele>
        <time>2009-05-27T14:23:14Z</time>
      </trkpt>
      <trkpt lat="45.11548" lon="5.37848">
        <ele>803.0009765625</ele>
        <time>2009-05-27T14:23:19Z</time>
      </trkpt>
      <trkpt lat="45.11534" lon="5.37868">
        <ele>801.72998046875</ele>
        <time>2009-05-27T14:23:21Z</time>
      </trkpt>
      <trkpt lat="45.11521" lon="5.37889">
        <ele>799.8740234375</ele>
        <time>2009-05-27T14:23:23Z</time>
      </trkpt>
      <trkpt lat="45.11449" lon="5.37934">
        <ele>791.86901855469</ele>
        <time>2009-05-27T14:23:30Z</time>
      </trkpt>
      <trkpt lat="45.1134" lon="5.37968">
        <ele>782.56896972656</ele>
        <time>2009-05-27T14:23:38Z</time>
      </trkpt>
      <trkpt lat="45.11315" lon="5.38031">
        <ele>776.60101318359</ele>
        <time>2009-05-27T14:23:43Z</time>
      </trkpt>
      <trkpt lat="45.11293" lon="5.3809">
        <ele>772.07299804688</ele>
        <time>2009-05-27T14:23:47Z</time>
      </trkpt>
      <trkpt lat="45.11284" lon="5.38122">
        <ele>770.03302001953</ele>
        <time>2009-05-27T14:23:49Z</time>
      </trkpt>
      <trkpt lat="45.11254" lon="5.38145">
        <ele>766.48400878906</ele>
        <time>2009-05-27T14:23:52Z</time>
      </trkpt>
      <trkpt lat="45.11226" lon="5.38205">
        <ele>761.55603027344</ele>
        <time>2009-05-27T14:23:56Z</time>
      </trkpt>
      <trkpt lat="45.11192" lon="5.38281">
        <ele>755.82299804688</ele>
        <time>2009-05-27T14:24:02Z</time>
      </trkpt>
      <trkpt lat="45.11159" lon="5.38265">
        <ele>752.52502441406</ele>
        <time>2009-05-27T14:24:05Z</time>
      </trkpt>
      <trkpt lat="45.11124" lon="5.38308">
        <ele>748.08697509766</ele>
        <time>2009-05-27T14:24:09Z</time>
      </trkpt>
      <trkpt lat="45.11126" lon="5.38342">
        <ele>747.02398681641</ele>
        <time>2009-05-27T14:24:11Z</time>
      </trkpt>
      <trkpt lat="45.11129" lon="5.38363">
        <ele>746.67700195312</ele>
        <time>2009-05-27T14:24:13Z</time>
      </trkpt>
      <trkpt lat="45.11127" lon="5.38368">
        <ele>746.21997070312</ele>
        <time>2009-05-27T14:24:14Z</time>
      </trkpt>
      <trkpt lat="45.11111" lon="5.3835">
        <ele>743.69201660156</ele>
        <time>2009-05-27T14:24:17Z</time>
      </trkpt>
      <trkpt lat="45.1111" lon="5.38338">
        <ele>742.86297607422</ele>
        <time>2009-05-27T14:24:18Z</time>
      </trkpt>
      <trkpt lat="45.11108" lon="5.38325">
        <ele>741.95202636719</ele>
        <time>2009-05-27T14:24:19Z</time>
      </trkpt>
      <trkpt lat="45.11104" lon="5.38297">
        <ele>740.21801757812</ele>
        <time>2009-05-27T14:24:21Z</time>
      </trkpt>
      <trkpt lat="45.11121" lon="5.38239">
        <ele>733.67700195312</ele>
        <time>2009-05-27T14:24:25Z</time>
      </trkpt>
      <trkpt lat="45.1117" lon="5.38184">
        <ele>727.04302978516</ele>
        <time>2009-05-27T14:24:30Z</time>
      </trkpt>
      <trkpt lat="45.11179" lon="5.38131">
        <ele>724.041015625</ele>
        <time>2009-05-27T14:24:33Z</time>
      </trkpt>
      <trkpt lat="45.1119" lon="5.38095">
        <ele>721.49200439453</ele>
        <time>2009-05-27T14:24:35Z</time>
      </trkpt>
      <trkpt lat="45.11206" lon="5.38062">
        <ele>718.03900146484</ele>
        <time>2009-05-27T14:24:37Z</time>
      </trkpt>
      <trkpt lat="45.11199" lon="5.37975">
        <ele>709.78802490234</ele>
        <time>2009-05-27T14:24:42Z</time>
      </trkpt>
      <trkpt lat="45.11158" lon="5.37937">
        <ele>704.97302246094</ele>
        <time>2009-05-27T14:24:45Z</time>
      </trkpt>
      <trkpt lat="45.11126" lon="5.37915">
        <ele>703.26702880859</ele>
        <time>2009-05-27T14:24:48Z</time>
      </trkpt>
      <trkpt lat="45.11119" lon="5.3791">
        <ele>702.98199462891</ele>
        <time>2009-05-27T14:24:49Z</time>
      </trkpt>
      <trkpt lat="45.11115" lon="5.37901">
        <ele>701.87200927734</ele>
        <time>2009-05-27T14:24:50Z</time>
      </trkpt>
      <trkpt lat="45.11136" lon="5.37869">
        <ele>697.93298339844</ele>
        <time>2009-05-27T14:24:53Z</time>
      </trkpt>
      <trkpt lat="45.11181" lon="5.37781">
        <ele>689.28302001953</ele>
        <time>2009-05-27T14:25:01Z</time>
      </trkpt>
      <trkpt lat="45.1127" lon="5.3776">
        <ele>679.41400146484</ele>
        <time>2009-05-27T14:25:08Z</time>
      </trkpt>
      <trkpt lat="45.11297" lon="5.37759">
        <ele>676.71502685547</ele>
        <time>2009-05-27T14:25:10Z</time>
      </trkpt>
      <trkpt lat="45.11367" lon="5.37717">
        <ele>668.97698974609</ele>
        <time>2009-05-27T14:25:16Z</time>
      </trkpt>
      <trkpt lat="45.11391" lon="5.37633">
        <ele>663.30700683594</ele>
        <time>2009-05-27T14:25:21Z</time>
      </trkpt>
      <trkpt lat="45.1138" lon="5.37594">
        <ele>659.05700683594</ele>
        <time>2009-05-27T14:25:23Z</time>
      </trkpt>
      <trkpt lat="45.11333" lon="5.37425">
        <ele>646.26300048828</ele>
        <time>2009-05-27T14:25:31Z</time>
      </trkpt>
      <trkpt lat="45.11321" lon="5.37383">
        <ele>643.68298339844</ele>
        <time>2009-05-27T14:25:33Z</time>
      </trkpt>
      <trkpt lat="45.1131" lon="5.37254">
        <ele>634.49597167969</ele>
        <time>2009-05-27T14:25:39Z</time>
      </trkpt>
      <trkpt lat="45.11322" lon="5.37189">
        <ele>629.96801757812</ele>
        <time>2009-05-27T14:25:42Z</time>
      </trkpt>
      <trkpt lat="45.11334" lon="5.3715">
        <ele>627.04699707031</ele>
        <time>2009-05-27T14:25:44Z</time>
      </trkpt>
      <trkpt lat="45.11332" lon="5.37053">
        <ele>619.19201660156</ele>
        <time>2009-05-27T14:25:49Z</time>
      </trkpt>
      <trkpt lat="45.11339" lon="5.37016">
        <ele>618.36901855469</ele>
        <time>2009-05-27T14:25:51Z</time>
      </trkpt>
      <trkpt lat="45.11347" lon="5.36995">
        <ele>619.23999023438</ele>
        <time>2009-05-27T14:25:53Z</time>
      </trkpt>
      <trkpt lat="45.11342" lon="5.36982">
        <ele>618.79400634766</ele>
        <time>2009-05-27T14:25:55Z</time>
      </trkpt>
      <trkpt lat="45.11328" lon="5.37008">
        <ele>616.32897949219</ele>
        <time>2009-05-27T14:25:59Z</time>
      </trkpt>
      <trkpt lat="45.11326" lon="5.3702">
        <ele>615.46899414062</ele>
        <time>2009-05-27T14:26:00Z</time>
      </trkpt>
      <trkpt lat="45.1132" lon="5.37043">
        <ele>614.40399169922</ele>
        <time>2009-05-27T14:26:02Z</time>
      </trkpt>
      <trkpt lat="45.11311" lon="5.37097">
        <ele>611.35998535156</ele>
        <time>2009-05-27T14:26:06Z</time>
      </trkpt>
      <trkpt lat="45.11284" lon="5.37194">
        <ele>604.94396972656</ele>
        <time>2009-05-27T14:26:13Z</time>
      </trkpt>
      <trkpt lat="45.11266" lon="5.37241">
        <ele>600.85198974609</ele>
        <time>2009-05-27T14:26:16Z</time>
      </trkpt>
      <trkpt lat="45.11259" lon="5.37289">
        <ele>599.72802734375</ele>
        <time>2009-05-27T14:26:19Z</time>
      </trkpt>
      <trkpt lat="45.11256" lon="5.37304">
        <ele>600.02197265625</ele>
        <time>2009-05-27T14:26:21Z</time>
      </trkpt>
      <trkpt lat="45.1125" lon="5.373">
        <ele>599.36999511719</ele>
        <time>2009-05-27T14:26:22Z</time>
      </trkpt>
      <trkpt lat="45.11248" lon="5.37283">
        <ele>598.31597900391</ele>
        <time>2009-05-27T14:26:24Z</time>
      </trkpt>
      <trkpt lat="45.11249" lon="5.37275">
        <ele>597.60498046875</ele>
        <time>2009-05-27T14:26:25Z</time>
      </trkpt>
      <trkpt lat="45.11253" lon="5.37254">
        <ele>596.93499755859</ele>
        <time>2009-05-27T14:26:27Z</time>
      </trkpt>
      <trkpt lat="45.11255" lon="5.37243">
        <ele>596.44500732422</ele>
        <time>2009-05-27T14:26:28Z</time>
      </trkpt>
      <trkpt lat="45.11265" lon="5.37207">
        <ele>594.52099609375</ele>
        <time>2009-05-27T14:26:31Z</time>
      </trkpt>
      <trkpt lat="45.11283" lon="5.37134">
        <ele>589.07598876953</ele>
        <time>2009-05-27T14:26:36Z</time>
      </trkpt>
      <trkpt lat="45.11282" lon="5.37031">
        <ele>583.11199951172</ele>
        <time>2009-05-27T14:26:42Z</time>
      </trkpt>
      <trkpt lat="45.11284" lon="5.37011">
        <ele>582.79498291016</ele>
        <time>2009-05-27T14:26:43Z</time>
      </trkpt>
      <trkpt lat="45.11284" lon="5.36844">
        <ele>570.80102539062</ele>
        <time>2009-05-27T14:26:52Z</time>
      </trkpt>
      <trkpt lat="45.11284" lon="5.36827">
        <ele>570.34002685547</ele>
        <time>2009-05-27T14:26:53Z</time>
      </trkpt>
      <trkpt lat="45.11311" lon="5.36793">
        <ele>565.02001953125</ele>
        <time>2009-05-27T14:26:58Z</time>
      </trkpt>
      <trkpt lat="45.1134" lon="5.3679">
        <ele>562.48699951172</ele>
        <time>2009-05-27T14:27:01Z</time>
      </trkpt>
      <trkpt lat="45.11372" lon="5.36775">
        <ele>559.96899414062</ele>
        <time>2009-05-27T14:27:04Z</time>
      </trkpt>
      <trkpt lat="45.11412" lon="5.36731">
        <ele>553.31597900391</ele>
        <time>2009-05-27T14:27:08Z</time>
      </trkpt>
      <trkpt lat="45.11476" lon="5.3668">
        <ele>544.73101806641</ele>
        <time>2009-05-27T14:27:14Z</time>
      </trkpt>
      <trkpt lat="45.11502" lon="5.36667">
        <ele>541.15698242188</ele>
        <time>2009-05-27T14:27:16Z</time>
      </trkpt>
      <trkpt lat="45.11559" lon="5.36666">
        <ele>535.19702148438</ele>
        <time>2009-05-27T14:27:20Z</time>
      </trkpt>
      <trkpt lat="45.11604" lon="5.36675">
        <ele>530.16998291016</ele>
        <time>2009-05-27T14:27:23Z</time>
      </trkpt>
      <trkpt lat="45.11662" lon="5.36705">
        <ele>523.40802001953</ele>
        <time>2009-05-27T14:27:27Z</time>
      </trkpt>
      <trkpt lat="45.11713" lon="5.36774">
        <ele>517.81597900391</ele>
        <time>2009-05-27T14:27:32Z</time>
      </trkpt>
      <trkpt lat="45.11721" lon="5.36794">
        <ele>517.35302734375</ele>
        <time>2009-05-27T14:27:34Z</time>
      </trkpt>
      <trkpt lat="45.11726" lon="5.36799">
        <ele>517.03302001953</ele>
        <time>2009-05-27T14:27:35Z</time>
      </trkpt>
      <trkpt lat="45.1173" lon="5.36789">
        <ele>516.83801269531</ele>
        <time>2009-05-27T14:27:37Z</time>
      </trkpt>
      <trkpt lat="45.11728" lon="5.36781">
        <ele>516.32397460938</ele>
        <time>2009-05-27T14:27:38Z</time>
      </trkpt>
      <trkpt lat="45.11721" lon="5.36765">
        <ele>514.59802246094</ele>
        <time>2009-05-27T14:27:40Z</time>
      </trkpt>
      <trkpt lat="45.11717" lon="5.36756">
        <ele>514.11297607422</ele>
        <time>2009-05-27T14:27:41Z</time>
      </trkpt>
      <trkpt lat="45.11709" lon="5.36723">
        <ele>510.89700317383</ele>
        <time>2009-05-27T14:27:44Z</time>
      </trkpt>
      <trkpt lat="45.11707" lon="5.36709">
        <ele>510.45700073242</ele>
        <time>2009-05-27T14:27:45Z</time>
      </trkpt>
      <trkpt lat="45.11704" lon="5.36694">
        <ele>508.96099853516</ele>
        <time>2009-05-27T14:27:46Z</time>
      </trkpt>
      <trkpt lat="45.11702" lon="5.36677">
        <ele>507.2919921875</ele>
        <time>2009-05-27T14:27:47Z</time>
      </trkpt>
      <trkpt lat="45.11643" lon="5.36604">
        <ele>498.94500732422</ele>
        <time>2009-05-27T14:27:53Z</time>
      </trkpt>
      <trkpt lat="45.11574" lon="5.36546">
        <ele>490.61499023438</ele>
        <time>2009-05-27T14:27:59Z</time>
      </trkpt>
      <trkpt lat="45.1151" lon="5.36588">
        <ele>483.56201171875</ele>
        <time>2009-05-27T14:28:04Z</time>
      </trkpt>
      <trkpt lat="45.11467" lon="5.36599">
        <ele>477.63101196289</ele>
        <time>2009-05-27T14:28:07Z</time>
      </trkpt>
      <trkpt lat="45.11422" lon="5.36595">
        <ele>472.30801391602</ele>
        <time>2009-05-27T14:28:10Z</time>
      </trkpt>
      <trkpt lat="45.11386" lon="5.36587">
        <ele>471.02801513672</ele>
        <time>2009-05-27T14:28:13Z</time>
      </trkpt>
      <trkpt lat="45.11388" lon="5.36563">
        <ele>469.03698730469</ele>
        <time>2009-05-27T14:28:17Z</time>
      </trkpt>
      <trkpt lat="45.11396" lon="5.36563">
        <ele>468.65701293945</ele>
        <time>2009-05-27T14:28:18Z</time>
      </trkpt>
      <trkpt lat="45.11413" lon="5.36568">
        <ele>466.50201416016</ele>
        <time>2009-05-27T14:28:20Z</time>
      </trkpt>
      <trkpt lat="45.11432" lon="5.36566">
        <ele>464.10900878906</ele>
        <time>2009-05-27T14:28:22Z</time>
      </trkpt>
      <trkpt lat="45.11462" lon="5.36554">
        <ele>460.57400512695</ele>
        <time>2009-05-27T14:28:25Z</time>
      </trkpt>
      <trkpt lat="45.11542" lon="5.36488">
        <ele>451.31500244141</ele>
        <time>2009-05-27T14:28:32Z</time>
      </trkpt>
      <trkpt lat="45.1155" lon="5.36473">
        <ele>449.09298706055</ele>
        <time>2009-05-27T14:28:33Z</time>
      </trkpt>
      <trkpt lat="45.11576" lon="5.36427">
        <ele>445.14099121094</ele>
        <time>2009-05-27T14:28:36Z</time>
      </trkpt>
      <trkpt lat="45.11607" lon="5.36387">
        <ele>440.73999023438</ele>
        <time>2009-05-27T14:28:39Z</time>
      </trkpt>
      <trkpt lat="45.1166" lon="5.3638">
        <ele>435.55899047852</ele>
        <time>2009-05-27T14:28:43Z</time>
      </trkpt>
      <trkpt lat="45.11729" lon="5.36402">
        <ele>427.53799438477</ele>
        <time>2009-05-27T14:28:48Z</time>
      </trkpt>
      <trkpt lat="45.11788" lon="5.36409">
        <ele>422.30700683594</ele>
        <time>2009-05-27T14:28:52Z</time>
      </trkpt>
      <trkpt lat="45.11907" lon="5.3645">
        <ele>409.94000244141</ele>
        <time>2009-05-27T14:29:00Z</time>
      </trkpt>
      <trkpt lat="45.11937" lon="5.3646">
        <ele>405.64300537109</ele>
        <time>2009-05-27T14:29:02Z</time>
      </trkpt>
      <trkpt lat="45.11971" lon="5.36492">
        <ele>401.83999633789</ele>
        <time>2009-05-27T14:29:05Z</time>
      </trkpt>
      <trkpt lat="45.1199" lon="5.36521">
        <ele>400.40798950195</ele>
        <time>2009-05-27T14:29:07Z</time>
      </trkpt>
      <trkpt lat="45.12035" lon="5.36588">
        <ele>396.69198608398</ele>
        <time>2009-05-27T14:29:12Z</time>
      </trkpt>
      <trkpt lat="45.12051" lon="5.36571">
        <ele>394.27099609375</ele>
        <time>2009-05-27T14:29:17Z</time>
      </trkpt>
      <trkpt lat="45.12045" lon="5.36527">
        <ele>392.42599487305</ele>
        <time>2009-05-27T14:29:21Z</time>
      </trkpt>
      <trkpt lat="45.12053" lon="5.36479">
        <ele>389.85400390625</ele>
        <time>2009-05-27T14:29:25Z</time>
      </trkpt>
      <trkpt lat="45.1206" lon="5.36455">
        <ele>388.74099731445</ele>
        <time>2009-05-27T14:29:27Z</time>
      </trkpt>
      <trkpt lat="45.12066" lon="5.36403">
        <ele>386.68899536133</ele>
        <time>2009-05-27T14:29:31Z</time>
      </trkpt>
      <trkpt lat="45.12063" lon="5.36332">
        <ele>384.10501098633</ele>
        <time>2009-05-27T14:29:36Z</time>
      </trkpt>
      <trkpt lat="45.12063" lon="5.36321">
        <ele>384.1780090332</ele>
        <time>2009-05-27T14:29:37Z</time>
      </trkpt>
      <trkpt lat="45.12062" lon="5.36312">
        <ele>383.56201171875</ele>
        <time>2009-05-27T14:29:38Z</time>
      </trkpt>
      <trkpt lat="45.12062" lon="5.36281">
        <ele>382.17498779297</ele>
        <time>2009-05-27T14:29:41Z</time>
      </trkpt>
      <trkpt lat="45.12061" lon="5.3627">
        <ele>382.16900634766</ele>
        <time>2009-05-27T14:29:42Z</time>
      </trkpt>
      <trkpt lat="45.12074" lon="5.36214">
        <ele>379.30099487305</ele>
        <time>2009-05-27T14:29:47Z</time>
      </trkpt>
      <trkpt lat="45.12096" lon="5.36177">
        <ele>378.21398925781</ele>
        <time>2009-05-27T14:29:51Z</time>
      </trkpt>
      <trkpt lat="45.12116" lon="5.36124">
        <ele>376.5830078125</ele>
        <time>2009-05-27T14:29:56Z</time>
      </trkpt>
      <trkpt lat="45.12119" lon="5.36098">
        <ele>375.27200317383</ele>
        <time>2009-05-27T14:29:58Z</time>
      </trkpt>
      <trkpt lat="45.12133" lon="5.36049">
        <ele>373.38198852539</ele>
        <time>2009-05-27T14:30:02Z</time>
      </trkpt>
      <trkpt lat="45.12157" lon="5.36007">
        <ele>371.84698486328</ele>
        <time>2009-05-27T14:30:06Z</time>
      </trkpt>
      <trkpt lat="45.12179" lon="5.3598">
        <ele>369.83401489258</ele>
        <time>2009-05-27T14:30:09Z</time>
      </trkpt>
      <trkpt lat="45.12227" lon="5.35954">
        <ele>367.51501464844</ele>
        <time>2009-05-27T14:30:14Z</time>
      </trkpt>
      <trkpt lat="45.12259" lon="5.3595">
        <ele>365.71600341797</ele>
        <time>2009-05-27T14:30:17Z</time>
      </trkpt>
      <trkpt lat="45.12336" lon="5.35939">
        <ele>362.16900634766</ele>
        <time>2009-05-27T14:30:24Z</time>
      </trkpt>
      <trkpt lat="45.12359" lon="5.35936">
        <ele>360.99499511719</ele>
        <time>2009-05-27T14:30:26Z</time>
      </trkpt>
      <trkpt lat="45.12436" lon="5.35923">
        <ele>356.67098999023</ele>
        <time>2009-05-27T14:30:33Z</time>
      </trkpt>
      <trkpt lat="45.12555" lon="5.35905">
        <ele>344.97900390625</ele>
        <time>2009-05-27T14:30:43Z</time>
      </trkpt>
      <trkpt lat="45.12591" lon="5.35883">
        <ele>343.07598876953</ele>
        <time>2009-05-27T14:30:46Z</time>
      </trkpt>
      <trkpt lat="45.12603" lon="5.3585">
        <ele>341.89599609375</ele>
        <time>2009-05-27T14:30:48Z</time>
      </trkpt>
      <trkpt lat="45.12619" lon="5.35798">
        <ele>338.14801025391</ele>
        <time>2009-05-27T14:30:51Z</time>
      </trkpt>
      <trkpt lat="45.12624" lon="5.35777">
        <ele>337.11099243164</ele>
        <time>2009-05-27T14:30:52Z</time>
      </trkpt>
      <trkpt lat="45.12645" lon="5.3571">
        <ele>331.66299438477</ele>
        <time>2009-05-27T14:30:56Z</time>
      </trkpt>
      <trkpt lat="45.1268" lon="5.35649">
        <ele>327.16400146484</ele>
        <time>2009-05-27T14:31:00Z</time>
      </trkpt>
      <trkpt lat="45.12707" lon="5.35579">
        <ele>322.98098754883</ele>
        <time>2009-05-27T14:31:06Z</time>
      </trkpt>
      <trkpt lat="45.12699" lon="5.35535">
        <ele>319.11898803711</ele>
        <time>2009-05-27T14:31:09Z</time>
      </trkpt>
      <trkpt lat="45.12683" lon="5.35476">
        <ele>316.3030090332</ele>
        <time>2009-05-27T14:31:13Z</time>
      </trkpt>
      <trkpt lat="45.12654" lon="5.35397">
        <ele>311.20498657227</ele>
        <time>2009-05-27T14:31:18Z</time>
      </trkpt>
      <trkpt lat="45.12606" lon="5.35336">
        <ele>305.67700195312</ele>
        <time>2009-05-27T14:31:23Z</time>
      </trkpt>
      <trkpt lat="45.12589" lon="5.35227">
        <ele>299.93399047852</ele>
        <time>2009-05-27T14:31:30Z</time>
      </trkpt>
      <trkpt lat="45.12563" lon="5.35196">
        <ele>296.42700195312</ele>
        <time>2009-05-27T14:31:33Z</time>
      </trkpt>
      <trkpt lat="45.12541" lon="5.35165">
        <ele>293.58599853516</ele>
        <time>2009-05-27T14:31:36Z</time>
      </trkpt>
      <trkpt lat="45.12548" lon="5.35125">
        <ele>290.95098876953</ele>
        <time>2009-05-27T14:31:39Z</time>
      </trkpt>
      <trkpt lat="45.12557" lon="5.3507">
        <ele>288.36099243164</ele>
        <time>2009-05-27T14:31:42Z</time>
      </trkpt>
      <trkpt lat="45.12541" lon="5.35002">
        <ele>284.01098632812</ele>
        <time>2009-05-27T14:31:46Z</time>
      </trkpt>
      <trkpt lat="45.12535" lon="5.34985">
        <ele>283.72698974609</ele>
        <time>2009-05-27T14:31:47Z</time>
      </trkpt>
      <trkpt lat="45.12528" lon="5.3493">
        <ele>280.1960144043</ele>
        <time>2009-05-27T14:31:50Z</time>
      </trkpt>
      <trkpt lat="45.12533" lon="5.34852">
        <ele>276.2080078125</ele>
        <time>2009-05-27T14:31:54Z</time>
      </trkpt>
      <trkpt lat="45.12528" lon="5.34793">
        <ele>272.19198608398</ele>
        <time>2009-05-27T14:31:57Z</time>
      </trkpt>
      <trkpt lat="45.12537" lon="5.34714">
        <ele>267.3869934082</ele>
        <time>2009-05-27T14:32:01Z</time>
      </trkpt>
      <trkpt lat="45.1254" lon="5.34629">
        <ele>262.66000366211</ele>
        <time>2009-05-27T14:32:05Z</time>
      </trkpt>
      <trkpt lat="45.12527" lon="5.34496">
        <ele>255.19999694824</ele>
        <time>2009-05-27T14:32:11Z</time>
      </trkpt>
      <trkpt lat="45.12464" lon="5.34333">
        <ele>243.61399841309</ele>
        <time>2009-05-27T14:32:19Z</time>
      </trkpt>
      <trkpt lat="45.12414" lon="5.34164">
        <ele>233.26400756836</ele>
        <time>2009-05-27T14:32:27Z</time>
      </trkpt>
      <trkpt lat="45.12411" lon="5.33999">
        <ele>226.15600585938</ele>
        <time>2009-05-27T14:32:34Z</time>
      </trkpt>
      <trkpt lat="45.12436" lon="5.33923">
        <ele>221.91600036621</ele>
        <time>2009-05-27T14:32:40Z</time>
      </trkpt>
      <trkpt lat="45.12445" lon="5.33918">
        <ele>221.61500549316</ele>
        <time>2009-05-27T14:32:41Z</time>
      </trkpt>
      <trkpt lat="45.12464" lon="5.33915">
        <ele>220.52799987793</ele>
        <time>2009-05-27T14:32:43Z</time>
      </trkpt>
      <trkpt lat="45.12495" lon="5.33929">
        <ele>217.52600097656</ele>
        <time>2009-05-27T14:32:47Z</time>
      </trkpt>
      <trkpt lat="45.125" lon="5.33931">
        <ele>217.52699279785</ele>
        <time>2009-05-27T14:32:48Z</time>
      </trkpt>
      <trkpt lat="45.12513" lon="5.33931">
        <ele>216.99499511719</ele>
        <time>2009-05-27T14:32:52Z</time>
      </trkpt>
      <trkpt lat="45.12519" lon="5.3391">
        <ele>216.15100097656</ele>
        <time>2009-05-27T14:32:56Z</time>
      </trkpt>
      <trkpt lat="45.12518" lon="5.33901">
        <ele>216.10099792481</ele>
        <time>2009-05-27T14:32:57Z</time>
      </trkpt>
      <trkpt lat="45.12517" lon="5.33891">
        <ele>215.91700744629</ele>
        <time>2009-05-27T14:32:58Z</time>
      </trkpt>
      <trkpt lat="45.1251" lon="5.3385">
        <ele>215.73399353027</ele>
        <time>2009-05-27T14:33:02Z</time>
      </trkpt>
      <trkpt lat="45.12505" lon="5.33827">
        <ele>215.02600097656</ele>
        <time>2009-05-27T14:33:04Z</time>
      </trkpt>
      <trkpt lat="45.12503" lon="5.33816">
        <ele>214.89500427246</ele>
        <time>2009-05-27T14:33:05Z</time>
      </trkpt>
      <trkpt lat="45.12497" lon="5.33781">
        <ele>214.59800720215</ele>
        <time>2009-05-27T14:33:08Z</time>
      </trkpt>
      <trkpt lat="45.12485" lon="5.33711">
        <ele>214.40600585938</ele>
        <time>2009-05-27T14:33:14Z</time>
      </trkpt>
      <trkpt lat="45.12502" lon="5.33694">
        <ele>214.18499755859</ele>
        <time>2009-05-27T14:33:20Z</time>
      </trkpt>
      <trkpt lat="45.12515" lon="5.33699">
        <ele>212.88499450684</ele>
        <time>2009-05-27T14:33:22Z</time>
      </trkpt>
      <trkpt lat="45.12548" lon="5.33702">
        <ele>210.5299987793</ele>
        <time>2009-05-27T14:33:26Z</time>
      </trkpt>
      <trkpt lat="45.12584" lon="5.33664">
        <ele>206.98500061035</ele>
        <time>2009-05-27T14:33:32Z</time>
      </trkpt>
      <trkpt lat="45.12575" lon="5.3364">
        <ele>206.02600097656</ele>
        <time>2009-05-27T14:33:34Z</time>
      </trkpt>
      <trkpt lat="45.12568" lon="5.33629">
        <ele>204.97599792481</ele>
        <time>2009-05-27T14:33:35Z</time>
      </trkpt>
      <trkpt lat="45.12547" lon="5.33594">
        <ele>201.95100402832</ele>
        <time>2009-05-27T14:33:38Z</time>
      </trkpt>
      <trkpt lat="45.12517" lon="5.33518">
        <ele>198.01300048828</ele>
        <time>2009-05-27T14:33:43Z</time>
      </trkpt>
      <trkpt lat="45.12513" lon="5.33485">
        <ele>195.72599792481</ele>
        <time>2009-05-27T14:33:45Z</time>
      </trkpt>
      <trkpt lat="45.12501" lon="5.33455">
        <ele>194.39199829102</ele>
        <time>2009-05-27T14:33:47Z</time>
      </trkpt>
      <trkpt lat="45.12486" lon="5.33425">
        <ele>191.75399780273</ele>
        <time>2009-05-27T14:33:49Z</time>
      </trkpt>
      <trkpt lat="45.12479" lon="5.3341">
        <ele>190.55700683594</ele>
        <time>2009-05-27T14:33:50Z</time>
      </trkpt>
      <trkpt lat="45.12469" lon="5.33353">
        <ele>187.69200134277</ele>
        <time>2009-05-27T14:33:53Z</time>
      </trkpt>
      <trkpt lat="45.1247" lon="5.33275">
        <ele>184.68299865723</ele>
        <time>2009-05-27T14:33:57Z</time>
      </trkpt>
      <trkpt lat="45.12439" lon="5.332">
        <ele>184.92700195312</ele>
        <time>2009-05-27T14:34:02Z</time>
      </trkpt>
      <trkpt lat="45.12407" lon="5.33161">
        <ele>188.06399536133</ele>
        <time>2009-05-27T14:34:06Z</time>
      </trkpt>
      <trkpt lat="45.12394" lon="5.33137">
        <ele>190.1190032959</ele>
        <time>2009-05-27T14:34:09Z</time>
      </trkpt>
      <trkpt lat="45.12399" lon="5.33093">
        <ele>192.06199645996</ele>
        <time>2009-05-27T14:34:14Z</time>
      </trkpt>
      <trkpt lat="45.12423" lon="5.33063">
        <ele>192.31799316406</ele>
        <time>2009-05-27T14:34:19Z</time>
      </trkpt>
      <trkpt lat="45.12481" lon="5.33025">
        <ele>193.66799926758</ele>
        <time>2009-05-27T14:34:28Z</time>
      </trkpt>
      <trkpt lat="45.12546" lon="5.32981">
        <ele>192.89199829102</ele>
        <time>2009-05-27T14:34:38Z</time>
      </trkpt>
      <trkpt lat="45.12553" lon="5.32976">
        <ele>192.60800170898</ele>
        <time>2009-05-27T14:34:39Z</time>
      </trkpt>
      <trkpt lat="45.12574" lon="5.32912">
        <ele>192.04299926758</ele>
        <time>2009-05-27T14:34:46Z</time>
      </trkpt>
      <trkpt lat="45.12564" lon="5.32877">
        <ele>192.09899902344</ele>
        <time>2009-05-27T14:34:49Z</time>
      </trkpt>
      <trkpt lat="45.12498" lon="5.32676">
        <ele>190.37800598144</ele>
        <time>2009-05-27T14:35:06Z</time>
      </trkpt>
      <trkpt lat="45.12434" lon="5.32459">
        <ele>187.58099365234</ele>
        <time>2009-05-27T14:35:22Z</time>
      </trkpt>
      <trkpt lat="45.12417" lon="5.32389">
        <ele>187.00900268555</ele>
        <time>2009-05-27T14:35:27Z</time>
      </trkpt>
      <trkpt lat="45.12422" lon="5.32319">
        <ele>187.82499694824</ele>
        <time>2009-05-27T14:35:32Z</time>
      </trkpt>
      <trkpt lat="45.12443" lon="5.32271">
        <ele>188.79800415039</ele>
        <time>2009-05-27T14:35:37Z</time>
      </trkpt>
      <trkpt lat="45.12429" lon="5.32222">
        <ele>189.64599609375</ele>
        <time>2009-05-27T14:35:44Z</time>
      </trkpt>
      <trkpt lat="45.12419" lon="5.32215">
        <ele>190.19999694824</ele>
        <time>2009-05-27T14:35:46Z</time>
      </trkpt>
      <trkpt lat="45.12405" lon="5.32202">
        <ele>190.40299987793</ele>
        <time>2009-05-27T14:35:49Z</time>
      </trkpt>
      <trkpt lat="45.12386" lon="5.32175">
        <ele>190.60600280762</ele>
        <time>2009-05-27T14:35:53Z</time>
      </trkpt>
      <trkpt lat="45.12374" lon="5.32143">
        <ele>190.55400085449</ele>
        <time>2009-05-27T14:35:57Z</time>
      </trkpt>
      <trkpt lat="45.12346" lon="5.32063">
        <ele>194.41799926758</ele>
        <time>2009-05-27T14:36:08Z</time>
      </trkpt>
      <trkpt lat="45.12343" lon="5.32051">
        <ele>195.62399291992</ele>
        <time>2009-05-27T14:36:10Z</time>
      </trkpt>
      <trkpt lat="45.12332" lon="5.32012">
        <ele>197.91600036621</ele>
        <time>2009-05-27T14:36:18Z</time>
      </trkpt>
      <trkpt lat="45.12328" lon="5.31995">
        <ele>198.61999511719</ele>
        <time>2009-05-27T14:36:21Z</time>
      </trkpt>
      <trkpt lat="45.12326" lon="5.31984">
        <ele>199.0119934082</ele>
        <time>2009-05-27T14:36:23Z</time>
      </trkpt>
      <trkpt lat="45.12307" lon="5.31905">
        <ele>202.33399963379</ele>
        <time>2009-05-27T14:36:35Z</time>
      </trkpt>
      <trkpt lat="45.12298" lon="5.31863">
        <ele>203.98699951172</ele>
        <time>2009-05-27T14:36:45Z</time>
      </trkpt>
      <trkpt lat="45.12283" lon="5.31779">
        <ele>207.38499450684</ele>
        <time>2009-05-27T14:36:59Z</time>
      </trkpt>
      <trkpt lat="45.12267" lon="5.31694">
        <ele>210.47500610352</ele>
        <time>2009-05-27T14:37:12Z</time>
      </trkpt>
      <trkpt lat="45.12265" lon="5.31674">
        <ele>211.41799926758</ele>
        <time>2009-05-27T14:37:15Z</time>
      </trkpt>
      <trkpt lat="45.12268" lon="5.31622">
        <ele>213.88999938965</ele>
        <time>2009-05-27T14:37:23Z</time>
      </trkpt>
      <trkpt lat="45.1227" lon="5.3159">
        <ele>214.93099975586</ele>
        <time>2009-05-27T14:37:28Z</time>
      </trkpt>
      <trkpt lat="45.12268" lon="5.3156">
        <ele>216.27499389648</ele>
        <time>2009-05-27T14:37:33Z</time>
      </trkpt>
      <trkpt lat="45.12257" lon="5.31489">
        <ele>219.24800109863</ele>
        <time>2009-05-27T14:37:45Z</time>
      </trkpt>
      <trkpt lat="45.12252" lon="5.31454">
        <ele>220.64199829102</ele>
        <time>2009-05-27T14:37:51Z</time>
      </trkpt>
      <trkpt lat="45.12252" lon="5.31352">
        <ele>224.59199523926</ele>
        <time>2009-05-27T14:38:06Z</time>
      </trkpt>
      <trkpt lat="45.12239" lon="5.31245">
        <ele>228.09399414062</ele>
        <time>2009-05-27T14:38:21Z</time>
      </trkpt>
      <trkpt lat="45.12232" lon="5.31194">
        <ele>230.4940032959</ele>
        <time>2009-05-27T14:38:28Z</time>
      </trkpt>
      <trkpt lat="45.1221" lon="5.31082">
        <ele>235.05099487305</ele>
        <time>2009-05-27T14:38:45Z</time>
      </trkpt>
      <trkpt lat="45.12191" lon="5.30995">
        <ele>238.91799926758</ele>
        <time>2009-05-27T14:38:59Z</time>
      </trkpt>
      <trkpt lat="45.12176" lon="5.30928">
        <ele>241.70300292969</ele>
        <time>2009-05-27T14:39:12Z</time>
      </trkpt>
      <trkpt lat="45.12156" lon="5.30825">
        <ele>245.89999389648</ele>
        <time>2009-05-27T14:39:29Z</time>
      </trkpt>
      <trkpt lat="45.12139" lon="5.30743">
        <ele>249.86399841309</ele>
        <time>2009-05-27T14:39:42Z</time>
      </trkpt>
      <trkpt lat="45.12127" lon="5.30659">
        <ele>253.35299682617</ele>
        <time>2009-05-27T14:39:57Z</time>
      </trkpt>
      <trkpt lat="45.12125" lon="5.30643">
        <ele>253.98100280762</ele>
        <time>2009-05-27T14:40:00Z</time>
      </trkpt>
      <trkpt lat="45.12112" lon="5.30585">
        <ele>256.87899780273</ele>
        <time>2009-05-27T14:40:11Z</time>
      </trkpt>
      <trkpt lat="45.12106" lon="5.30568">
        <ele>257.51000976562</ele>
        <time>2009-05-27T14:40:14Z</time>
      </trkpt>
      <trkpt lat="45.12104" lon="5.30557">
        <ele>257.79998779297</ele>
        <time>2009-05-27T14:40:16Z</time>
      </trkpt>
      <trkpt lat="45.12099" lon="5.30535">
        <ele>258.71301269531</ele>
        <time>2009-05-27T14:40:20Z</time>
      </trkpt>
      <trkpt lat="45.12093" lon="5.30513">
        <ele>259.6369934082</ele>
        <time>2009-05-27T14:40:24Z</time>
      </trkpt>
      <trkpt lat="45.12102" lon="5.3047">
        <ele>261.41000366211</ele>
        <time>2009-05-27T14:40:32Z</time>
      </trkpt>
      <trkpt lat="45.12111" lon="5.30457">
        <ele>262.11499023438</ele>
        <time>2009-05-27T14:40:35Z</time>
      </trkpt>
      <trkpt lat="45.12121" lon="5.30447">
        <ele>262.85299682617</ele>
        <time>2009-05-27T14:40:38Z</time>
      </trkpt>
      <trkpt lat="45.12155" lon="5.30438">
        <ele>265.00601196289</ele>
        <time>2009-05-27T14:40:47Z</time>
      </trkpt>
      <trkpt lat="45.12212" lon="5.30439">
        <ele>268.0830078125</ele>
        <time>2009-05-27T14:41:02Z</time>
      </trkpt>
      <trkpt lat="45.1227" lon="5.30423">
        <ele>270.89001464844</ele>
        <time>2009-05-27T14:41:17Z</time>
      </trkpt>
      <trkpt lat="45.12346" lon="5.30395">
        <ele>274.35998535156</ele>
        <time>2009-05-27T14:41:36Z</time>
      </trkpt>
      <trkpt lat="45.12354" lon="5.30392">
        <ele>274.8030090332</ele>
        <time>2009-05-27T14:41:38Z</time>
      </trkpt>
      <trkpt lat="45.12365" lon="5.30389">
        <ele>275.08499145508</ele>
        <time>2009-05-27T14:41:41Z</time>
      </trkpt>
      <trkpt lat="45.12389" lon="5.30401">
        <ele>275.59799194336</ele>
        <time>2009-05-27T14:41:47Z</time>
      </trkpt>
      <trkpt lat="45.12456" lon="5.30498">
        <ele>276.50601196289</ele>
        <time>2009-05-27T14:42:06Z</time>
      </trkpt>
      <trkpt lat="45.12493" lon="5.30553">
        <ele>276.97500610352</ele>
        <time>2009-05-27T14:42:15Z</time>
      </trkpt>
      <trkpt lat="45.12525" lon="5.30549">
        <ele>277.85900878906</ele>
        <time>2009-05-27T14:42:21Z</time>
      </trkpt>
      <trkpt lat="45.12529" lon="5.30543">
        <ele>277.95098876953</ele>
        <time>2009-05-27T14:42:22Z</time>
      </trkpt>
      <trkpt lat="45.12609" lon="5.30402">
        <ele>277.22399902344</ele>
        <time>2009-05-27T14:42:41Z</time>
      </trkpt>
      <trkpt lat="45.12647" lon="5.30326">
        <ele>276.60699462891</ele>
        <time>2009-05-27T14:42:51Z</time>
      </trkpt>
      <trkpt lat="45.1266" lon="5.3027">
        <ele>277.3630065918</ele>
        <time>2009-05-27T14:42:57Z</time>
      </trkpt>
      <trkpt lat="45.12674" lon="5.30239">
        <ele>278.32598876953</ele>
        <time>2009-05-27T14:43:01Z</time>
      </trkpt>
      <trkpt lat="45.12748" lon="5.30155">
        <ele>277.95098876953</ele>
        <time>2009-05-27T14:43:16Z</time>
      </trkpt>
      <trkpt lat="45.12841" lon="5.30116">
        <ele>275.25601196289</ele>
        <time>2009-05-27T14:43:28Z</time>
      </trkpt>
      <trkpt lat="45.12921" lon="5.30053">
        <ele>276.04400634766</ele>
        <time>2009-05-27T14:43:40Z</time>
      </trkpt>
      <trkpt lat="45.12995" lon="5.29983">
        <ele>277.09600830078</ele>
        <time>2009-05-27T14:43:54Z</time>
      </trkpt>
      <trkpt lat="45.13076" lon="5.29891">
        <ele>277.23999023438</ele>
        <time>2009-05-27T14:44:09Z</time>
      </trkpt>
      <trkpt lat="45.13127" lon="5.29827">
        <ele>277.10998535156</ele>
        <time>2009-05-27T14:44:20Z</time>
      </trkpt>
      <trkpt lat="45.13188" lon="5.29747">
        <ele>278.00100708008</ele>
        <time>2009-05-27T14:44:32Z</time>
      </trkpt>
      <trkpt lat="45.13285" lon="5.29635">
        <ele>277.62100219727</ele>
        <time>2009-05-27T14:44:50Z</time>
      </trkpt>
      <trkpt lat="45.13379" lon="5.29535">
        <ele>277.56900024414</ele>
        <time>2009-05-27T14:45:06Z</time>
      </trkpt>
      <trkpt lat="45.1345" lon="5.29453">
        <ele>278.26599121094</ele>
        <time>2009-05-27T14:45:20Z</time>
      </trkpt>
      <trkpt lat="45.13473" lon="5.29436">
        <ele>278.87799072266</ele>
        <time>2009-05-27T14:45:27Z</time>
      </trkpt>
      <trkpt lat="45.13477" lon="5.29433">
        <ele>278.63900756836</ele>
        <time>2009-05-27T14:45:28Z</time>
      </trkpt>
      <trkpt lat="45.1349" lon="5.29417">
        <ele>278.43301391602</ele>
        <time>2009-05-27T14:45:31Z</time>
      </trkpt>
      <trkpt lat="45.13553" lon="5.29343">
        <ele>278.72500610352</ele>
        <time>2009-05-27T14:45:45Z</time>
      </trkpt>
      <trkpt lat="45.13557" lon="5.29337">
        <ele>278.69500732422</ele>
        <time>2009-05-27T14:45:46Z</time>
      </trkpt>
      <trkpt lat="45.13609" lon="5.29282">
        <ele>278.99200439453</ele>
        <time>2009-05-27T14:45:57Z</time>
      </trkpt>
      <trkpt lat="45.13618" lon="5.29271">
        <ele>279.50500488281</ele>
        <time>2009-05-27T14:45:59Z</time>
      </trkpt>
      <trkpt lat="45.13642" lon="5.29248">
        <ele>279.22399902344</ele>
        <time>2009-05-27T14:46:05Z</time>
      </trkpt>
      <trkpt lat="45.13702" lon="5.2917">
        <ele>281.09899902344</ele>
        <time>2009-05-27T14:46:20Z</time>
      </trkpt>
      <trkpt lat="45.1377" lon="5.29076">
        <ele>282.30200195312</ele>
        <time>2009-05-27T14:46:36Z</time>
      </trkpt>
      <trkpt lat="45.13814" lon="5.29023">
        <ele>282.93600463867</ele>
        <time>2009-05-27T14:46:45Z</time>
      </trkpt>
      <trkpt lat="45.13896" lon="5.28949">
        <ele>284.95098876953</ele>
        <time>2009-05-27T14:47:01Z</time>
      </trkpt>
      <trkpt lat="45.13988" lon="5.28868">
        <ele>286.37100219727</ele>
        <time>2009-05-27T14:47:19Z</time>
      </trkpt>
      <trkpt lat="45.14051" lon="5.28827">
        <ele>287.97601318359</ele>
        <time>2009-05-27T14:47:31Z</time>
      </trkpt>
      <trkpt lat="45.14072" lon="5.28813">
        <ele>288.24099731445</ele>
        <time>2009-05-27T14:47:35Z</time>
      </trkpt>
      <trkpt lat="45.14115" lon="5.2878">
        <ele>288.43600463867</ele>
        <time>2009-05-27T14:47:44Z</time>
      </trkpt>
      <trkpt lat="45.14124" lon="5.28775">
        <ele>289.17098999023</ele>
        <time>2009-05-27T14:47:47Z</time>
      </trkpt>
      <trkpt lat="45.14126" lon="5.28772">
        <ele>289.04299926758</ele>
        <time>2009-05-27T14:48:22Z</time>
      </trkpt>
      <trkpt lat="45.14128" lon="5.28771">
        <ele>289.02499389648</ele>
        <time>2009-05-27T14:48:23Z</time>
      </trkpt>
      <trkpt lat="45.14135" lon="5.28772">
        <ele>289.06698608398</ele>
        <time>2009-05-27T14:48:26Z</time>
      </trkpt>
      <trkpt lat="45.14154" lon="5.28742">
        <ele>289.11999511719</ele>
        <time>2009-05-27T14:48:33Z</time>
      </trkpt>
      <trkpt lat="45.1416" lon="5.28732">
        <ele>289.36999511719</ele>
        <time>2009-05-27T14:48:35Z</time>
      </trkpt>
      <trkpt lat="45.14198" lon="5.28666">
        <ele>289.92199707031</ele>
        <time>2009-05-27T14:48:47Z</time>
      </trkpt>
      <trkpt lat="45.14223" lon="5.28599">
        <ele>290.52600097656</ele>
        <time>2009-05-27T14:48:56Z</time>
      </trkpt>
      <trkpt lat="45.14243" lon="5.28519">
        <ele>291.45199584961</ele>
        <time>2009-05-27T14:49:07Z</time>
      </trkpt>
      <trkpt lat="45.14281" lon="5.28425">
        <ele>290.66400146484</ele>
        <time>2009-05-27T14:49:18Z</time>
      </trkpt>
      <trkpt lat="45.14333" lon="5.28304">
        <ele>290.77600097656</ele>
        <time>2009-05-27T14:49:32Z</time>
      </trkpt>
      <trkpt lat="45.1434" lon="5.28289">
        <ele>291.09298706055</ele>
        <time>2009-05-27T14:49:34Z</time>
      </trkpt>
      <trkpt lat="45.14347" lon="5.28232">
        <ele>291.09600830078</ele>
        <time>2009-05-27T14:49:41Z</time>
      </trkpt>
      <trkpt lat="45.14356" lon="5.28158">
        <ele>289.96499633789</ele>
        <time>2009-05-27T14:49:48Z</time>
      </trkpt>
      <trkpt lat="45.14359" lon="5.28115">
        <ele>289.58099365234</ele>
        <time>2009-05-27T14:49:52Z</time>
      </trkpt>
      <trkpt lat="45.14424" lon="5.2799">
        <ele>290.22399902344</ele>
        <time>2009-05-27T14:50:07Z</time>
      </trkpt>
      <trkpt lat="45.14482" lon="5.2787">
        <ele>291.73699951172</ele>
        <time>2009-05-27T14:50:23Z</time>
      </trkpt>
      <trkpt lat="45.14526" lon="5.27757">
        <ele>293.82299804688</ele>
        <time>2009-05-27T14:50:37Z</time>
      </trkpt>
      <trkpt lat="45.14563" lon="5.27633">
        <ele>297.55700683594</ele>
        <time>2009-05-27T14:50:54Z</time>
      </trkpt>
      <trkpt lat="45.14586" lon="5.27589">
        <ele>298.84100341797</ele>
        <time>2009-05-27T14:51:01Z</time>
      </trkpt>
      <trkpt lat="45.14668" lon="5.27531">
        <ele>301.64599609375</ele>
        <time>2009-05-27T14:51:17Z</time>
      </trkpt>
      <trkpt lat="45.14751" lon="5.27479">
        <ele>303.33401489258</ele>
        <time>2009-05-27T14:51:33Z</time>
      </trkpt>
      <trkpt lat="45.14864" lon="5.27392">
        <ele>303.85598754883</ele>
        <time>2009-05-27T14:51:53Z</time>
      </trkpt>
      <trkpt lat="45.14957" lon="5.27298">
        <ele>305.25698852539</ele>
        <time>2009-05-27T14:52:10Z</time>
      </trkpt>
      <trkpt lat="45.15066" lon="5.27187">
        <ele>306.10501098633</ele>
        <time>2009-05-27T14:52:30Z</time>
      </trkpt>
      <trkpt lat="45.15174" lon="5.27074">
        <ele>306.93301391602</ele>
        <time>2009-05-27T14:52:50Z</time>
      </trkpt>
      <trkpt lat="45.15265" lon="5.26977">
        <ele>309.35000610352</ele>
        <time>2009-05-27T14:53:07Z</time>
      </trkpt>
      <trkpt lat="45.15369" lon="5.2687">
        <ele>311.10000610352</ele>
        <time>2009-05-27T14:53:26Z</time>
      </trkpt>
      <trkpt lat="45.1542" lon="5.26813">
        <ele>311.98400878906</ele>
        <time>2009-05-27T14:53:36Z</time>
      </trkpt>
      <trkpt lat="45.15477" lon="5.26687">
        <ele>312.75399780273</ele>
        <time>2009-05-27T14:53:51Z</time>
      </trkpt>
      <trkpt lat="45.15503" lon="5.26625">
        <ele>314.45599365234</ele>
        <time>2009-05-27T14:53:59Z</time>
      </trkpt>
      <trkpt lat="45.15514" lon="5.2659">
        <ele>315.48999023438</ele>
        <time>2009-05-27T14:54:04Z</time>
      </trkpt>
      <trkpt lat="45.15526" lon="5.26526">
        <ele>317.64898681641</ele>
        <time>2009-05-27T14:54:13Z</time>
      </trkpt>
      <trkpt lat="45.15533" lon="5.26477">
        <ele>319.76501464844</ele>
        <time>2009-05-27T14:54:20Z</time>
      </trkpt>
      <trkpt lat="45.15555" lon="5.26413">
        <ele>323.53399658203</ele>
        <time>2009-05-27T14:54:30Z</time>
      </trkpt>
      <trkpt lat="45.15561" lon="5.26401">
        <ele>324.45700073242</ele>
        <time>2009-05-27T14:54:32Z</time>
      </trkpt>
      <trkpt lat="45.1559" lon="5.26341">
        <ele>328.67999267578</ele>
        <time>2009-05-27T14:54:44Z</time>
      </trkpt>
      <trkpt lat="45.15607" lon="5.26296">
        <ele>332.10800170898</ele>
        <time>2009-05-27T14:54:55Z</time>
      </trkpt>
      <trkpt lat="45.1561" lon="5.26285">
        <ele>332.45199584961</ele>
        <time>2009-05-27T14:54:57Z</time>
      </trkpt>
      <trkpt lat="45.15613" lon="5.26258">
        <ele>333.84899902344</ele>
        <time>2009-05-27T14:55:02Z</time>
      </trkpt>
      <trkpt lat="45.1562" lon="5.26182">
        <ele>338.06698608398</ele>
        <time>2009-05-27T14:55:16Z</time>
      </trkpt>
      <trkpt lat="45.15629" lon="5.26099">
        <ele>342.7380065918</ele>
        <time>2009-05-27T14:55:34Z</time>
      </trkpt>
      <trkpt lat="45.1565" lon="5.2603">
        <ele>346.60101318359</ele>
        <time>2009-05-27T14:55:52Z</time>
      </trkpt>
      <trkpt lat="45.1566" lon="5.25997">
        <ele>347.72601318359</ele>
        <time>2009-05-27T14:56:02Z</time>
      </trkpt>
      <trkpt lat="45.15667" lon="5.25956">
        <ele>350.57400512695</ele>
        <time>2009-05-27T14:56:13Z</time>
      </trkpt>
      <trkpt lat="45.15655" lon="5.25922">
        <ele>352.88198852539</ele>
        <time>2009-05-27T14:56:23Z</time>
      </trkpt>
      <trkpt lat="45.15636" lon="5.25882">
        <ele>354.81698608398</ele>
        <time>2009-05-27T14:56:34Z</time>
      </trkpt>
      <trkpt lat="45.1562" lon="5.25843">
        <ele>357.21398925781</ele>
        <time>2009-05-27T14:56:44Z</time>
      </trkpt>
      <trkpt lat="45.15592" lon="5.25808">
        <ele>359.38000488281</ele>
        <time>2009-05-27T14:56:54Z</time>
      </trkpt>
      <trkpt lat="45.15551" lon="5.25765">
        <ele>362.23699951172</ele>
        <time>2009-05-27T14:57:07Z</time>
      </trkpt>
      <trkpt lat="45.15497" lon="5.25675">
        <ele>364.01400756836</ele>
        <time>2009-05-27T14:57:23Z</time>
      </trkpt>
      <trkpt lat="45.15466" lon="5.25623">
        <ele>362.27600097656</ele>
        <time>2009-05-27T14:57:30Z</time>
      </trkpt>
      <trkpt lat="45.1545" lon="5.25581">
        <ele>360.78799438477</ele>
        <time>2009-05-27T14:57:34Z</time>
      </trkpt>
      <trkpt lat="45.15442" lon="5.25542">
        <ele>359.45098876953</ele>
        <time>2009-05-27T14:57:37Z</time>
      </trkpt>
      <trkpt lat="45.15467" lon="5.25495">
        <ele>360.40399169922</ele>
        <time>2009-05-27T14:57:42Z</time>
      </trkpt>
      <trkpt lat="45.15495" lon="5.25486">
        <ele>361.24099731445</ele>
        <time>2009-05-27T14:57:46Z</time>
      </trkpt>
      <trkpt lat="45.15599" lon="5.25434">
        <ele>354.71600341797</ele>
        <time>2009-05-27T14:57:59Z</time>
      </trkpt>
      <trkpt lat="45.15668" lon="5.25417">
        <ele>352.82598876953</ele>
        <time>2009-05-27T14:58:06Z</time>
      </trkpt>
      <trkpt lat="45.15774" lon="5.2542">
        <ele>349.30499267578</ele>
        <time>2009-05-27T14:58:17Z</time>
      </trkpt>
      <trkpt lat="45.15815" lon="5.25432">
        <ele>348.0830078125</ele>
        <time>2009-05-27T14:58:22Z</time>
      </trkpt>
      <trkpt lat="45.15849" lon="5.25442">
        <ele>348.35598754883</ele>
        <time>2009-05-27T14:58:26Z</time>
      </trkpt>
      <trkpt lat="45.15884" lon="5.25445">
        <ele>348.21600341797</ele>
        <time>2009-05-27T14:58:30Z</time>
      </trkpt>
      <trkpt lat="45.15892" lon="5.25445">
        <ele>348.64801025391</ele>
        <time>2009-05-27T14:58:31Z</time>
      </trkpt>
      <trkpt lat="45.15927" lon="5.25429">
        <ele>350.36499023438</ele>
        <time>2009-05-27T14:58:37Z</time>
      </trkpt>
      <trkpt lat="45.15936" lon="5.25424">
        <ele>350.71600341797</ele>
        <time>2009-05-27T14:58:39Z</time>
      </trkpt>
      <trkpt lat="45.15979" lon="5.25394">
        <ele>353.28298950195</ele>
        <time>2009-05-27T14:58:50Z</time>
      </trkpt>
      <trkpt lat="45.15982" lon="5.25391">
        <ele>353.3039855957</ele>
        <time>2009-05-27T14:58:51Z</time>
      </trkpt>
      <trkpt lat="45.16006" lon="5.25366">
        <ele>354.38299560547</ele>
        <time>2009-05-27T14:58:58Z</time>
      </trkpt>
      <trkpt lat="45.16014" lon="5.2536">
        <ele>354.51998901367</ele>
        <time>2009-05-27T14:59:00Z</time>
      </trkpt>
      <trkpt lat="45.16051" lon="5.25327">
        <ele>357.01699829102</ele>
        <time>2009-05-27T14:59:10Z</time>
      </trkpt>
      <trkpt lat="45.16055" lon="5.25325">
        <ele>357.0299987793</ele>
        <time>2009-05-27T14:59:11Z</time>
      </trkpt>
      <trkpt lat="45.16079" lon="5.25312">
        <ele>358.41198730469</ele>
        <time>2009-05-27T14:59:17Z</time>
      </trkpt>
      <trkpt lat="45.16116" lon="5.25305">
        <ele>360.23400878906</ele>
        <time>2009-05-27T14:59:26Z</time>
      </trkpt>
      <trkpt lat="45.16124" lon="5.25304">
        <ele>360.3450012207</ele>
        <time>2009-05-27T14:59:28Z</time>
      </trkpt>
      <trkpt lat="45.16163" lon="5.25296">
        <ele>362.79098510742</ele>
        <time>2009-05-27T14:59:38Z</time>
      </trkpt>
      <trkpt lat="45.16216" lon="5.25271">
        <ele>365.21099853516</ele>
        <time>2009-05-27T14:59:52Z</time>
      </trkpt>
      <trkpt lat="45.16238" lon="5.25258">
        <ele>366.43200683594</ele>
        <time>2009-05-27T14:59:58Z</time>
      </trkpt>
      <trkpt lat="45.16303" lon="5.25224">
        <ele>366.75299072266</ele>
        <time>2009-05-27T15:00:14Z</time>
      </trkpt>
      <trkpt lat="45.1635" lon="5.252">
        <ele>367.30899047852</ele>
        <time>2009-05-27T15:00:24Z</time>
      </trkpt>
      <trkpt lat="45.16376" lon="5.25186">
        <ele>367.30899047852</ele>
        <time>2009-05-27T15:00:29Z</time>
      </trkpt>
      <trkpt lat="45.16459" lon="5.25109">
        <ele>367.39099121094</ele>
        <time>2009-05-27T15:00:45Z</time>
      </trkpt>
      <trkpt lat="45.16485" lon="5.25083">
        <ele>369.00201416016</ele>
        <time>2009-05-27T15:00:50Z</time>
      </trkpt>
      <trkpt lat="45.16522" lon="5.25028">
        <ele>368.19400024414</ele>
        <time>2009-05-27T15:00:58Z</time>
      </trkpt>
      <trkpt lat="45.16568" lon="5.24935">
        <ele>370.17199707031</ele>
        <time>2009-05-27T15:01:12Z</time>
      </trkpt>
      <trkpt lat="45.16574" lon="5.24924">
        <ele>370.03698730469</ele>
        <time>2009-05-27T15:01:14Z</time>
      </trkpt>
      <trkpt lat="45.1665" lon="5.2485">
        <ele>370.79098510742</ele>
        <time>2009-05-27T15:01:32Z</time>
      </trkpt>
      <trkpt lat="45.16707" lon="5.24795">
        <ele>371.98300170898</ele>
        <time>2009-05-27T15:01:45Z</time>
      </trkpt>
      <trkpt lat="45.16759" lon="5.24724">
        <ele>372.77200317383</ele>
        <time>2009-05-27T15:01:58Z</time>
      </trkpt>
      <trkpt lat="45.16837" lon="5.24628">
        <ele>374.66198730469</ele>
        <time>2009-05-27T15:02:16Z</time>
      </trkpt>
      <trkpt lat="45.16922" lon="5.24532">
        <ele>372.62899780273</ele>
        <time>2009-05-27T15:02:32Z</time>
      </trkpt>
      <trkpt lat="45.16938" lon="5.2451">
        <ele>372.42001342773</ele>
        <time>2009-05-27T15:02:35Z</time>
      </trkpt>
      <trkpt lat="45.16955" lon="5.24415">
        <ele>371.48199462891</ele>
        <time>2009-05-27T15:02:44Z</time>
      </trkpt>
      <trkpt lat="45.16936" lon="5.24366">
        <ele>371.16101074219</ele>
        <time>2009-05-27T15:02:49Z</time>
      </trkpt>
      <trkpt lat="45.16912" lon="5.24336">
        <ele>371.68899536133</ele>
        <time>2009-05-27T15:02:53Z</time>
      </trkpt>
      <trkpt lat="45.16882" lon="5.24317">
        <ele>371.2380065918</ele>
        <time>2009-05-27T15:02:57Z</time>
      </trkpt>
      <trkpt lat="45.16741" lon="5.24274">
        <ele>371.23300170898</ele>
        <time>2009-05-27T15:03:14Z</time>
      </trkpt>
      <trkpt lat="45.16588" lon="5.24222">
        <ele>370.71200561523</ele>
        <time>2009-05-27T15:03:32Z</time>
      </trkpt>
      <trkpt lat="45.16579" lon="5.24215">
        <ele>370.40100097656</ele>
        <time>2009-05-27T15:03:33Z</time>
      </trkpt>
      <trkpt lat="45.16543" lon="5.24142">
        <ele>369.07699584961</ele>
        <time>2009-05-27T15:03:40Z</time>
      </trkpt>
      <trkpt lat="45.165" lon="5.23928">
        <ele>364.89099121094</ele>
        <time>2009-05-27T15:03:56Z</time>
      </trkpt>
      <trkpt lat="45.16488" lon="5.2387">
        <ele>363.92001342773</ele>
        <time>2009-05-27T15:04:00Z</time>
      </trkpt>
      <trkpt lat="45.1649" lon="5.23812">
        <ele>362.66799926758</ele>
        <time>2009-05-27T15:04:04Z</time>
      </trkpt>
      <trkpt lat="45.16498" lon="5.23786">
        <ele>362.50100708008</ele>
        <time>2009-05-27T15:04:06Z</time>
      </trkpt>
      <trkpt lat="45.1655" lon="5.23718">
        <ele>361.68701171875</ele>
        <time>2009-05-27T15:04:14Z</time>
      </trkpt>
      <trkpt lat="45.16665" lon="5.23684">
        <ele>361.86199951172</ele>
        <time>2009-05-27T15:04:29Z</time>
      </trkpt>
      <trkpt lat="45.16788" lon="5.23654">
        <ele>361.64498901367</ele>
        <time>2009-05-27T15:04:45Z</time>
      </trkpt>
      <trkpt lat="45.16797" lon="5.23654">
        <ele>361.37899780273</ele>
        <time>2009-05-27T15:04:46Z</time>
      </trkpt>
      <trkpt lat="45.16895" lon="5.23694">
        <ele>359.21600341797</ele>
        <time>2009-05-27T15:04:58Z</time>
      </trkpt>
      <trkpt lat="45.16904" lon="5.23697">
        <ele>359.18798828125</ele>
        <time>2009-05-27T15:04:59Z</time>
      </trkpt>
      <trkpt lat="45.16954" lon="5.23688">
        <ele>357.91299438477</ele>
        <time>2009-05-27T15:05:05Z</time>
      </trkpt>
      <trkpt lat="45.16999" lon="5.23601">
        <ele>359.29699707031</ele>
        <time>2009-05-27T15:05:15Z</time>
      </trkpt>
      <trkpt lat="45.16983" lon="5.23517">
        <ele>360.85900878906</ele>
        <time>2009-05-27T15:05:25Z</time>
      </trkpt>
      <trkpt lat="45.1698" lon="5.23511">
        <ele>360.90798950195</ele>
        <time>2009-05-27T15:05:26Z</time>
      </trkpt>
      <trkpt lat="45.1697" lon="5.23499">
        <ele>361.51599121094</ele>
        <time>2009-05-27T15:05:28Z</time>
      </trkpt>
      <trkpt lat="45.16949" lon="5.2348">
        <ele>362.22100830078</ele>
        <time>2009-05-27T15:05:32Z</time>
      </trkpt>
      <trkpt lat="45.1692" lon="5.23469">
        <ele>362.70498657227</ele>
        <time>2009-05-27T15:05:37Z</time>
      </trkpt>
      <trkpt lat="45.16872" lon="5.23458">
        <ele>365.1789855957</ele>
        <time>2009-05-27T15:05:45Z</time>
      </trkpt>
      <trkpt lat="45.1686" lon="5.23451">
        <ele>365.82400512695</ele>
        <time>2009-05-27T15:05:47Z</time>
      </trkpt>
      <trkpt lat="45.16835" lon="5.23402">
        <ele>367.33200073242</ele>
        <time>2009-05-27T15:05:54Z</time>
      </trkpt>
      <trkpt lat="45.16837" lon="5.23356">
        <ele>367.80499267578</ele>
        <time>2009-05-27T15:06:00Z</time>
      </trkpt>
      <trkpt lat="45.16842" lon="5.23343">
        <ele>368.09201049805</ele>
        <time>2009-05-27T15:06:02Z</time>
      </trkpt>
      <trkpt lat="45.16858" lon="5.23314">
        <ele>368.74899291992</ele>
        <time>2009-05-27T15:06:07Z</time>
      </trkpt>
      <trkpt lat="45.16877" lon="5.23281">
        <ele>369.7799987793</ele>
        <time>2009-05-27T15:06:13Z</time>
      </trkpt>
      <trkpt lat="45.16922" lon="5.23197">
        <ele>372.21701049805</ele>
        <time>2009-05-27T15:06:28Z</time>
      </trkpt>
      <trkpt lat="45.16933" lon="5.23126">
        <ele>373.68399047852</ele>
        <time>2009-05-27T15:06:38Z</time>
      </trkpt>
      <trkpt lat="45.16926" lon="5.23058">
        <ele>374.49700927734</ele>
        <time>2009-05-27T15:06:47Z</time>
      </trkpt>
      <trkpt lat="45.16937" lon="5.2302">
        <ele>375.01400756836</ele>
        <time>2009-05-27T15:06:53Z</time>
      </trkpt>
      <trkpt lat="45.16991" lon="5.2296">
        <ele>373.38101196289</ele>
        <time>2009-05-27T15:07:04Z</time>
      </trkpt>
      <trkpt lat="45.1707" lon="5.22868">
        <ele>368.90399169922</ele>
        <time>2009-05-27T15:07:17Z</time>
      </trkpt>
      <trkpt lat="45.1709" lon="5.22822">
        <ele>367.22198486328</ele>
        <time>2009-05-27T15:07:21Z</time>
      </trkpt>
      <trkpt lat="45.171" lon="5.22782">
        <ele>365.35501098633</ele>
        <time>2009-05-27T15:07:24Z</time>
      </trkpt>
      <trkpt lat="45.17122" lon="5.22733">
        <ele>362.48599243164</ele>
        <time>2009-05-27T15:07:28Z</time>
      </trkpt>
      <trkpt lat="45.17168" lon="5.22633">
        <ele>358.00900268555</ele>
        <time>2009-05-27T15:07:36Z</time>
      </trkpt>
      <trkpt lat="45.17175" lon="5.22574">
        <ele>357.1789855957</ele>
        <time>2009-05-27T15:07:40Z</time>
      </trkpt>
      <trkpt lat="45.17191" lon="5.22486">
        <ele>352.47399902344</ele>
        <time>2009-05-27T15:07:46Z</time>
      </trkpt>
      <trkpt lat="45.17198" lon="5.22475">
        <ele>352.25201416016</ele>
        <time>2009-05-27T15:07:47Z</time>
      </trkpt>
      <trkpt lat="45.17256" lon="5.22399">
        <ele>350.95300292969</ele>
        <time>2009-05-27T15:07:55Z</time>
      </trkpt>
      <trkpt lat="45.17301" lon="5.22341">
        <ele>350.08700561523</ele>
        <time>2009-05-27T15:08:02Z</time>
      </trkpt>
      <trkpt lat="45.17319" lon="5.22318">
        <ele>351.1960144043</ele>
        <time>2009-05-27T15:08:05Z</time>
      </trkpt>
      <trkpt lat="45.17332" lon="5.22292">
        <ele>350.53201293945</ele>
        <time>2009-05-27T15:08:08Z</time>
      </trkpt>
      <trkpt lat="45.17347" lon="5.22249">
        <ele>350.10000610352</ele>
        <time>2009-05-27T15:08:13Z</time>
      </trkpt>
      <trkpt lat="45.17345" lon="5.22109">
        <ele>350.92498779297</ele>
        <time>2009-05-27T15:08:28Z</time>
      </trkpt>
      <trkpt lat="45.17342" lon="5.21989">
        <ele>351.20199584961</ele>
        <time>2009-05-27T15:08:41Z</time>
      </trkpt>
      <trkpt lat="45.1734" lon="5.21952">
        <ele>351.51699829102</ele>
        <time>2009-05-27T15:08:45Z</time>
      </trkpt>
      <trkpt lat="45.17345" lon="5.21862">
        <ele>353.19198608398</ele>
        <time>2009-05-27T15:08:55Z</time>
      </trkpt>
      <trkpt lat="45.17388" lon="5.21766">
        <ele>355.13400268555</ele>
        <time>2009-05-27T15:09:08Z</time>
      </trkpt>
      <trkpt lat="45.1744" lon="5.21657">
        <ele>357.60000610352</ele>
        <time>2009-05-27T15:09:23Z</time>
      </trkpt>
      <trkpt lat="45.17467" lon="5.21608">
        <ele>358.68399047852</ele>
        <time>2009-05-27T15:09:32Z</time>
      </trkpt>
      <trkpt lat="45.17487" lon="5.21562">
        <ele>357.90200805664</ele>
        <time>2009-05-27T15:09:40Z</time>
      </trkpt>
      <trkpt lat="45.17498" lon="5.21535">
        <ele>357.35198974609</ele>
        <time>2009-05-27T15:09:44Z</time>
      </trkpt>
      <trkpt lat="45.17507" lon="5.21522">
        <ele>356.73901367188</ele>
        <time>2009-05-27T15:09:46Z</time>
      </trkpt>
      <trkpt lat="45.17529" lon="5.21499">
        <ele>356.4280090332</ele>
        <time>2009-05-27T15:09:50Z</time>
      </trkpt>
      <trkpt lat="45.17599" lon="5.21454">
        <ele>354.4169921875</ele>
        <time>2009-05-27T15:10:00Z</time>
      </trkpt>
      <trkpt lat="45.17614" lon="5.21449">
        <ele>355.83801269531</ele>
        <time>2009-05-27T15:10:02Z</time>
      </trkpt>
      <trkpt lat="45.17627" lon="5.21452">
        <ele>357.22698974609</ele>
        <time>2009-05-27T15:10:04Z</time>
      </trkpt>
      <trkpt lat="45.17634" lon="5.21455">
        <ele>357.49899291992</ele>
        <time>2009-05-27T15:10:05Z</time>
      </trkpt>
      <trkpt lat="45.17648" lon="5.21461">
        <ele>357.92001342773</ele>
        <time>2009-05-27T15:10:07Z</time>
      </trkpt>
      <trkpt lat="45.17668" lon="5.21466">
        <ele>359.21099853516</ele>
        <time>2009-05-27T15:10:10Z</time>
      </trkpt>
      <trkpt lat="45.17706" lon="5.21454">
        <ele>360.51098632812</ele>
        <time>2009-05-27T15:10:17Z</time>
      </trkpt>
      <trkpt lat="45.17725" lon="5.2143">
        <ele>361.83999633789</ele>
        <time>2009-05-27T15:10:22Z</time>
      </trkpt>
      <trkpt lat="45.17758" lon="5.2139">
        <ele>362.20599365234</ele>
        <time>2009-05-27T15:10:30Z</time>
      </trkpt>
      <trkpt lat="45.17779" lon="5.21378">
        <ele>362.03698730469</ele>
        <time>2009-05-27T15:10:34Z</time>
      </trkpt>
      <trkpt lat="45.17871" lon="5.2136">
        <ele>364.00601196289</ele>
        <time>2009-05-27T15:10:49Z</time>
      </trkpt>
      <trkpt lat="45.17894" lon="5.21354">
        <ele>364.81399536133</ele>
        <time>2009-05-27T15:10:53Z</time>
      </trkpt>
      <trkpt lat="45.17915" lon="5.21358">
        <ele>366.26699829102</ele>
        <time>2009-05-27T15:10:57Z</time>
      </trkpt>
      <trkpt lat="45.17945" lon="5.21382">
        <ele>367.76400756836</ele>
        <time>2009-05-27T15:11:04Z</time>
      </trkpt>
      <trkpt lat="45.18018" lon="5.21433">
        <ele>370.82901000977</ele>
        <time>2009-05-27T15:11:20Z</time>
      </trkpt>
      <trkpt lat="45.18037" lon="5.21437">
        <ele>371.67300415039</ele>
        <time>2009-05-27T15:11:24Z</time>
      </trkpt>
      <trkpt lat="45.18095" lon="5.2143">
        <ele>374.23300170898</ele>
        <time>2009-05-27T15:11:36Z</time>
      </trkpt>
      <trkpt lat="45.18185" lon="5.21438">
        <ele>377.81100463867</ele>
        <time>2009-05-27T15:11:52Z</time>
      </trkpt>
      <trkpt lat="45.18219" lon="5.21443">
        <ele>380.66900634766</ele>
        <time>2009-05-27T15:11:59Z</time>
      </trkpt>
      <trkpt lat="45.1827" lon="5.21429">
        <ele>384.12799072266</ele>
        <time>2009-05-27T15:12:12Z</time>
      </trkpt>
      <trkpt lat="45.18336" lon="5.214">
        <ele>387.90701293945</ele>
        <time>2009-05-27T15:12:30Z</time>
      </trkpt>
      <trkpt lat="45.18405" lon="5.21361">
        <ele>392.7380065918</ele>
        <time>2009-05-27T15:12:49Z</time>
      </trkpt>
      <trkpt lat="45.18476" lon="5.21318">
        <ele>397.64498901367</ele>
        <time>2009-05-27T15:13:09Z</time>
      </trkpt>
      <trkpt lat="45.18541" lon="5.2128">
        <ele>402.51901245117</ele>
        <time>2009-05-27T15:13:27Z</time>
      </trkpt>
      <trkpt lat="45.18603" lon="5.21245">
        <ele>406.06298828125</ele>
        <time>2009-05-27T15:13:45Z</time>
      </trkpt>
      <trkpt lat="45.18679" lon="5.21199">
        <ele>411.04501342773</ele>
        <time>2009-05-27T15:14:08Z</time>
      </trkpt>
      <trkpt lat="45.18735" lon="5.21166">
        <ele>415.14099121094</ele>
        <time>2009-05-27T15:14:26Z</time>
      </trkpt>
      <trkpt lat="45.18794" lon="5.21148">
        <ele>419.19799804688</ele>
        <time>2009-05-27T15:14:43Z</time>
      </trkpt>
      <trkpt lat="45.18846" lon="5.21138">
        <ele>422.4880065918</ele>
        <time>2009-05-27T15:14:58Z</time>
      </trkpt>
      <trkpt lat="45.18864" lon="5.21132">
        <ele>423.64801025391</ele>
        <time>2009-05-27T15:15:03Z</time>
      </trkpt>
      <trkpt lat="45.18872" lon="5.2113">
        <ele>424.33200073242</ele>
        <time>2009-05-27T15:15:05Z</time>
      </trkpt>
      <trkpt lat="45.1888" lon="5.21127">
        <ele>424.89801025391</ele>
        <time>2009-05-27T15:15:07Z</time>
      </trkpt>
      <trkpt lat="45.1892" lon="5.21109">
        <ele>427.58401489258</ele>
        <time>2009-05-27T15:15:16Z</time>
      </trkpt>
      <trkpt lat="45.18958" lon="5.2109">
        <ele>430.05599975586</ele>
        <time>2009-05-27T15:15:25Z</time>
      </trkpt>
      <trkpt lat="45.18981" lon="5.2107">
        <ele>431.65701293945</ele>
        <time>2009-05-27T15:15:31Z</time>
      </trkpt>
      <trkpt lat="45.19044" lon="5.21004">
        <ele>436.76901245117</ele>
        <time>2009-05-27T15:15:49Z</time>
      </trkpt>
      <trkpt lat="45.19072" lon="5.20946">
        <ele>438.61801147461</ele>
        <time>2009-05-27T15:16:02Z</time>
      </trkpt>
      <trkpt lat="45.19111" lon="5.2085">
        <ele>440.74899291992</ele>
        <time>2009-05-27T15:16:20Z</time>
      </trkpt>
      <trkpt lat="45.19174" lon="5.20779">
        <ele>443.53900146484</ele>
        <time>2009-05-27T15:16:38Z</time>
      </trkpt>
      <trkpt lat="45.19221" lon="5.20732">
        <ele>446.38800048828</ele>
        <time>2009-05-27T15:16:52Z</time>
      </trkpt>
      <trkpt lat="45.19266" lon="5.20691">
        <ele>448.17401123047</ele>
        <time>2009-05-27T15:17:05Z</time>
      </trkpt>
      <trkpt lat="45.19327" lon="5.20665">
        <ele>450.62200927734</ele>
        <time>2009-05-27T15:17:22Z</time>
      </trkpt>
      <trkpt lat="45.19376" lon="5.20652">
        <ele>453.20999145508</ele>
        <time>2009-05-27T15:17:35Z</time>
      </trkpt>
      <trkpt lat="45.19458" lon="5.20623">
        <ele>457.13598632812</ele>
        <time>2009-05-27T15:17:55Z</time>
      </trkpt>
      <trkpt lat="45.19481" lon="5.20606">
        <ele>459.07598876953</ele>
        <time>2009-05-27T15:18:01Z</time>
      </trkpt>
      <trkpt lat="45.19529" lon="5.20534">
        <ele>463.52600097656</ele>
        <time>2009-05-27T15:18:19Z</time>
      </trkpt>
      <trkpt lat="45.19543" lon="5.20449">
        <ele>467.31298828125</ele>
        <time>2009-05-27T15:18:36Z</time>
      </trkpt>
      <trkpt lat="45.19552" lon="5.20361">
        <ele>471.43899536133</ele>
        <time>2009-05-27T15:18:54Z</time>
      </trkpt>
      <trkpt lat="45.19576" lon="5.20304">
        <ele>474.95599365234</ele>
        <time>2009-05-27T15:19:10Z</time>
      </trkpt>
      <trkpt lat="45.19606" lon="5.2025">
        <ele>478.4700012207</ele>
        <time>2009-05-27T15:19:25Z</time>
      </trkpt>
      <trkpt lat="45.19646" lon="5.20232">
        <ele>481.6669921875</ele>
        <time>2009-05-27T15:19:39Z</time>
      </trkpt>
      <trkpt lat="45.19676" lon="5.20205">
        <ele>483.90399169922</ele>
        <time>2009-05-27T15:19:51Z</time>
      </trkpt>
      <trkpt lat="45.19667" lon="5.20167">
        <ele>485.98599243164</ele>
        <time>2009-05-27T15:20:01Z</time>
      </trkpt>
      <trkpt lat="45.19641" lon="5.20117">
        <ele>488.25799560547</ele>
        <time>2009-05-27T15:20:14Z</time>
      </trkpt>
      <trkpt lat="45.19637" lon="5.20035">
        <ele>491.54400634766</ele>
        <time>2009-05-27T15:20:30Z</time>
      </trkpt>
      <trkpt lat="45.19638" lon="5.20006">
        <ele>493.28100585938</ele>
        <time>2009-05-27T15:20:36Z</time>
      </trkpt>
      <trkpt lat="45.19659" lon="5.2001">
        <ele>494.02700805664</ele>
        <time>2009-05-27T15:20:44Z</time>
      </trkpt>
      <trkpt lat="45.1969" lon="5.20072">
        <ele>497.23901367188</ele>
        <time>2009-05-27T15:20:59Z</time>
      </trkpt>
      <trkpt lat="45.19693" lon="5.20077">
        <ele>497.79901123047</ele>
        <time>2009-05-27T15:21:01Z</time>
      </trkpt>
      <trkpt lat="45.19693" lon="5.20071">
        <ele>497.3330078125</ele>
        <time>2009-05-27T15:21:07Z</time>
      </trkpt>
      <trkpt lat="45.19685" lon="5.20055">
        <ele>496.67999267578</ele>
        <time>2009-05-27T15:21:11Z</time>
      </trkpt>
      <trkpt lat="45.19667" lon="5.20019">
        <ele>495.01800537109</ele>
        <time>2009-05-27T15:21:17Z</time>
      </trkpt>
      <trkpt lat="45.19646" lon="5.19994">
        <ele>494.02700805664</ele>
        <time>2009-05-27T15:21:21Z</time>
      </trkpt>
      <trkpt lat="45.19637" lon="5.1997">
        <ele>493.39898681641</ele>
        <time>2009-05-27T15:21:25Z</time>
      </trkpt>
      <trkpt lat="45.19632" lon="5.1985">
        <ele>492.10198974609</ele>
        <time>2009-05-27T15:21:38Z</time>
      </trkpt>
      <trkpt lat="45.19613" lon="5.19696">
        <ele>489.57998657227</ele>
        <time>2009-05-27T15:21:53Z</time>
      </trkpt>
      <trkpt lat="45.19616" lon="5.19479">
        <ele>485.51400756836</ele>
        <time>2009-05-27T15:22:10Z</time>
      </trkpt>
      <trkpt lat="45.19619" lon="5.19278">
        <ele>482.32998657227</ele>
        <time>2009-05-27T15:22:26Z</time>
      </trkpt>
      <trkpt lat="45.19632" lon="5.19129">
        <ele>477.93600463867</ele>
        <time>2009-05-27T15:22:37Z</time>
      </trkpt>
      <trkpt lat="45.19646" lon="5.18903">
        <ele>472.8869934082</ele>
        <time>2009-05-27T15:22:53Z</time>
      </trkpt>
      <trkpt lat="45.19649" lon="5.18876">
        <ele>471.7080078125</ele>
        <time>2009-05-27T15:22:55Z</time>
      </trkpt>
      <trkpt lat="45.19655" lon="5.18852">
        <ele>471.08499145508</ele>
        <time>2009-05-27T15:22:57Z</time>
      </trkpt>
      <trkpt lat="45.19663" lon="5.18814">
        <ele>470.47399902344</ele>
        <time>2009-05-27T15:23:00Z</time>
      </trkpt>
      <trkpt lat="45.19665" lon="5.18759">
        <ele>468.92700195312</ele>
        <time>2009-05-27T15:23:04Z</time>
      </trkpt>
      <trkpt lat="45.19659" lon="5.18703">
        <ele>467.36099243164</ele>
        <time>2009-05-27T15:23:08Z</time>
      </trkpt>
      <trkpt lat="45.1966" lon="5.18506">
        <ele>464.05499267578</ele>
        <time>2009-05-27T15:23:22Z</time>
      </trkpt>
      <trkpt lat="45.19662" lon="5.1845">
        <ele>461.56799316406</ele>
        <time>2009-05-27T15:23:26Z</time>
      </trkpt>
      <trkpt lat="45.19663" lon="5.18436">
        <ele>461.12200927734</ele>
        <time>2009-05-27T15:23:27Z</time>
      </trkpt>
      <trkpt lat="45.19702" lon="5.18313">
        <ele>458.66299438477</ele>
        <time>2009-05-27T15:23:37Z</time>
      </trkpt>
      <trkpt lat="45.19723" lon="5.18185">
        <ele>455.28698730469</ele>
        <time>2009-05-27T15:23:46Z</time>
      </trkpt>
      <trkpt lat="45.19733" lon="5.18002">
        <ele>451.75500488281</ele>
        <time>2009-05-27T15:23:58Z</time>
      </trkpt>
      <trkpt lat="45.19731" lon="5.17941">
        <ele>450.27099609375</ele>
        <time>2009-05-27T15:24:02Z</time>
      </trkpt>
      <trkpt lat="45.19715" lon="5.17889">
        <ele>448.89599609375</ele>
        <time>2009-05-27T15:24:06Z</time>
      </trkpt>
      <trkpt lat="45.1971" lon="5.17848">
        <ele>447.35000610352</ele>
        <time>2009-05-27T15:24:09Z</time>
      </trkpt>
      <trkpt lat="45.19719" lon="5.17825">
        <ele>447.28399658203</ele>
        <time>2009-05-27T15:24:11Z</time>
      </trkpt>
      <trkpt lat="45.19756" lon="5.17681">
        <ele>445.96200561523</ele>
        <time>2009-05-27T15:24:23Z</time>
      </trkpt>
      <trkpt lat="45.1978" lon="5.17613">
        <ele>443.6969909668</ele>
        <time>2009-05-27T15:24:29Z</time>
      </trkpt>
      <trkpt lat="45.19782" lon="5.17506">
        <ele>442.62298583984</ele>
        <time>2009-05-27T15:24:38Z</time>
      </trkpt>
      <trkpt lat="45.19784" lon="5.17494">
        <ele>442.01098632812</ele>
        <time>2009-05-27T15:24:39Z</time>
      </trkpt>
      <trkpt lat="45.19832" lon="5.17352">
        <ele>439.62899780273</ele>
        <time>2009-05-27T15:24:52Z</time>
      </trkpt>
      <trkpt lat="45.19871" lon="5.17259">
        <ele>438.03100585938</ele>
        <time>2009-05-27T15:25:01Z</time>
      </trkpt>
      <trkpt lat="45.19881" lon="5.17191">
        <ele>438.08898925781</ele>
        <time>2009-05-27T15:25:07Z</time>
      </trkpt>
      <trkpt lat="45.19888" lon="5.17005">
        <ele>435.44900512695</ele>
        <time>2009-05-27T15:25:21Z</time>
      </trkpt>
      <trkpt lat="45.19893" lon="5.1685">
        <ele>433.16598510742</ele>
        <time>2009-05-27T15:25:33Z</time>
      </trkpt>
      <trkpt lat="45.19878" lon="5.16803">
        <ele>432.46798706055</ele>
        <time>2009-05-27T15:25:37Z</time>
      </trkpt>
      <trkpt lat="45.19809" lon="5.1663">
        <ele>429.69198608398</ele>
        <time>2009-05-27T15:25:52Z</time>
      </trkpt>
      <trkpt lat="45.19792" lon="5.16575">
        <ele>427.63198852539</ele>
        <time>2009-05-27T15:25:56Z</time>
      </trkpt>
      <trkpt lat="45.19788" lon="5.16512">
        <ele>425.37200927734</ele>
        <time>2009-05-27T15:26:00Z</time>
      </trkpt>
      <trkpt lat="45.19802" lon="5.16404">
        <ele>421.53500366211</ele>
        <time>2009-05-27T15:26:07Z</time>
      </trkpt>
      <trkpt lat="45.19806" lon="5.16357">
        <ele>420.05099487305</ele>
        <time>2009-05-27T15:26:10Z</time>
      </trkpt>
      <trkpt lat="45.19809" lon="5.16296">
        <ele>417.31900024414</ele>
        <time>2009-05-27T15:26:14Z</time>
      </trkpt>
      <trkpt lat="45.19817" lon="5.16255">
        <ele>417.80899047852</ele>
        <time>2009-05-27T15:26:17Z</time>
      </trkpt>
      <trkpt lat="45.19846" lon="5.16166">
        <ele>418.10998535156</ele>
        <time>2009-05-27T15:26:25Z</time>
      </trkpt>
      <trkpt lat="45.19864" lon="5.16118">
        <ele>419.28601074219</ele>
        <time>2009-05-27T15:26:30Z</time>
      </trkpt>
      <trkpt lat="45.19891" lon="5.16037">
        <ele>420.39700317383</ele>
        <time>2009-05-27T15:26:39Z</time>
      </trkpt>
      <trkpt lat="45.19899" lon="5.16003">
        <ele>421.06399536133</ele>
        <time>2009-05-27T15:26:43Z</time>
      </trkpt>
      <trkpt lat="45.19905" lon="5.15959">
        <ele>421.67401123047</ele>
        <time>2009-05-27T15:26:48Z</time>
      </trkpt>
      <trkpt lat="45.1991" lon="5.15848">
        <ele>422.73199462891</ele>
        <time>2009-05-27T15:27:01Z</time>
      </trkpt>
      <trkpt lat="45.19912" lon="5.15789">
        <ele>423.32299804688</ele>
        <time>2009-05-27T15:27:08Z</time>
      </trkpt>
      <trkpt lat="45.19912" lon="5.15772">
        <ele>423.53399658203</ele>
        <time>2009-05-27T15:27:10Z</time>
      </trkpt>
      <trkpt lat="45.19898" lon="5.15619">
        <ele>423.75900268555</ele>
        <time>2009-05-27T15:27:27Z</time>
      </trkpt>
      <trkpt lat="45.19866" lon="5.15483">
        <ele>423.41101074219</ele>
        <time>2009-05-27T15:27:41Z</time>
      </trkpt>
      <trkpt lat="45.1982" lon="5.15334">
        <ele>422.0419921875</ele>
        <time>2009-05-27T15:27:55Z</time>
      </trkpt>
      <trkpt lat="45.19781" lon="5.15205">
        <ele>421.06298828125</ele>
        <time>2009-05-27T15:28:07Z</time>
      </trkpt>
      <trkpt lat="45.19744" lon="5.1504">
        <ele>418.27200317383</ele>
        <time>2009-05-27T15:28:21Z</time>
      </trkpt>
      <trkpt lat="45.19732" lon="5.14835">
        <ele>415.26800537109</ele>
        <time>2009-05-27T15:28:36Z</time>
      </trkpt>
      <trkpt lat="45.19701" lon="5.14726">
        <ele>413.66500854492</ele>
        <time>2009-05-27T15:28:45Z</time>
      </trkpt>
      <trkpt lat="45.19685" lon="5.14711">
        <ele>412.65399169922</ele>
        <time>2009-05-27T15:28:47Z</time>
      </trkpt>
      <trkpt lat="45.1964" lon="5.14676">
        <ele>410.20401000977</ele>
        <time>2009-05-27T15:28:52Z</time>
      </trkpt>
      <trkpt lat="45.19623" lon="5.14659">
        <ele>410.02099609375</ele>
        <time>2009-05-27T15:28:54Z</time>
      </trkpt>
      <trkpt lat="45.19596" lon="5.1459">
        <ele>411.80599975586</ele>
        <time>2009-05-27T15:29:01Z</time>
      </trkpt>
      <trkpt lat="45.19595" lon="5.14547">
        <ele>412.41000366211</ele>
        <time>2009-05-27T15:29:05Z</time>
      </trkpt>
      <trkpt lat="45.19597" lon="5.14496">
        <ele>410.74301147461</ele>
        <time>2009-05-27T15:29:10Z</time>
      </trkpt>
      <trkpt lat="45.19593" lon="5.14465">
        <ele>410.75</ele>
        <time>2009-05-27T15:29:13Z</time>
      </trkpt>
      <trkpt lat="45.19567" lon="5.14409">
        <ele>408.67001342773</ele>
        <time>2009-05-27T15:29:19Z</time>
      </trkpt>
      <trkpt lat="45.19534" lon="5.14378">
        <ele>405.375</ele>
        <time>2009-05-27T15:29:23Z</time>
      </trkpt>
      <trkpt lat="45.19513" lon="5.14296">
        <ele>400.90100097656</ele>
        <time>2009-05-27T15:29:30Z</time>
      </trkpt>
      <trkpt lat="45.19522" lon="5.14277">
        <ele>401.73300170898</ele>
        <time>2009-05-27T15:29:32Z</time>
      </trkpt>
      <trkpt lat="45.1953" lon="5.14258">
        <ele>401.42999267578</ele>
        <time>2009-05-27T15:29:34Z</time>
      </trkpt>
      <trkpt lat="45.19538" lon="5.14225">
        <ele>403.27398681641</ele>
        <time>2009-05-27T15:29:38Z</time>
      </trkpt>
      <trkpt lat="45.19561" lon="5.14181">
        <ele>400.7200012207</ele>
        <time>2009-05-27T15:29:46Z</time>
      </trkpt>
      <trkpt lat="45.19629" lon="5.14127">
        <ele>391.05801391602</ele>
        <time>2009-05-27T15:29:54Z</time>
      </trkpt>
      <trkpt lat="45.19648" lon="5.14111">
        <ele>387.7619934082</ele>
        <time>2009-05-27T15:29:56Z</time>
      </trkpt>
      <trkpt lat="45.19701" lon="5.14066">
        <ele>382.27398681641</ele>
        <time>2009-05-27T15:30:02Z</time>
      </trkpt>
      <trkpt lat="45.19743" lon="5.14034">
        <ele>381.05499267578</ele>
        <time>2009-05-27T15:30:07Z</time>
      </trkpt>
      <trkpt lat="45.19775" lon="5.14004">
        <ele>383.25100708008</ele>
        <time>2009-05-27T15:30:12Z</time>
      </trkpt>
      <trkpt lat="45.19818" lon="5.13967">
        <ele>385.39099121094</ele>
        <time>2009-05-27T15:30:22Z</time>
      </trkpt>
      <trkpt lat="45.19844" lon="5.13948">
        <ele>387.45098876953</ele>
        <time>2009-05-27T15:30:29Z</time>
      </trkpt>
      <trkpt lat="45.19861" lon="5.13931">
        <ele>388.70999145508</ele>
        <time>2009-05-27T15:30:34Z</time>
      </trkpt>
      <trkpt lat="45.19858" lon="5.13908">
        <ele>389.35900878906</ele>
        <time>2009-05-27T15:30:38Z</time>
      </trkpt>
      <trkpt lat="45.19849" lon="5.13888">
        <ele>388.81500244141</ele>
        <time>2009-05-27T15:30:41Z</time>
      </trkpt>
      <trkpt lat="45.19839" lon="5.1387">
        <ele>388.87298583984</ele>
        <time>2009-05-27T15:30:44Z</time>
      </trkpt>
      <trkpt lat="45.19752" lon="5.13762">
        <ele>386.17199707031</ele>
        <time>2009-05-27T15:31:01Z</time>
      </trkpt>
      <trkpt lat="45.19711" lon="5.13667">
        <ele>384.13198852539</ele>
        <time>2009-05-27T15:31:12Z</time>
      </trkpt>
      <trkpt lat="45.19651" lon="5.13484">
        <ele>380.06600952148</ele>
        <time>2009-05-27T15:31:29Z</time>
      </trkpt>
      <trkpt lat="45.19647" lon="5.1342">
        <ele>378.77099609375</ele>
        <time>2009-05-27T15:31:34Z</time>
      </trkpt>
      <trkpt lat="45.19661" lon="5.13362">
        <ele>377.10501098633</ele>
        <time>2009-05-27T15:31:39Z</time>
      </trkpt>
      <trkpt lat="45.19715" lon="5.13187">
        <ele>372.5299987793</ele>
        <time>2009-05-27T15:31:53Z</time>
      </trkpt>
      <trkpt lat="45.19731" lon="5.13084">
        <ele>367.79901123047</ele>
        <time>2009-05-27T15:32:01Z</time>
      </trkpt>
      <trkpt lat="45.19743" lon="5.12994">
        <ele>365.87298583984</ele>
        <time>2009-05-27T15:32:08Z</time>
      </trkpt>
      <trkpt lat="45.19745" lon="5.1298">
        <ele>365.9049987793</ele>
        <time>2009-05-27T15:32:09Z</time>
      </trkpt>
      <trkpt lat="45.19733" lon="5.12832">
        <ele>362.88198852539</ele>
        <time>2009-05-27T15:32:20Z</time>
      </trkpt>
      <trkpt lat="45.19696" lon="5.12578">
        <ele>358.82400512695</ele>
        <time>2009-05-27T15:32:39Z</time>
      </trkpt>
      <trkpt lat="45.19684" lon="5.1251">
        <ele>357.48901367188</ele>
        <time>2009-05-27T15:32:44Z</time>
      </trkpt>
      <trkpt lat="45.19636" lon="5.12306">
        <ele>355.3030090332</ele>
        <time>2009-05-27T15:33:00Z</time>
      </trkpt>
      <trkpt lat="45.19585" lon="5.12093">
        <ele>353.66500854492</ele>
        <time>2009-05-27T15:33:17Z</time>
      </trkpt>
      <trkpt lat="45.19579" lon="5.12068">
        <ele>353.26000976562</ele>
        <time>2009-05-27T15:33:19Z</time>
      </trkpt>
      <trkpt lat="45.19593" lon="5.11994">
        <ele>353.94000244141</ele>
        <time>2009-05-27T15:33:26Z</time>
      </trkpt>
      <trkpt lat="45.19597" lon="5.11985">
        <ele>353.78298950195</ele>
        <time>2009-05-27T15:33:27Z</time>
      </trkpt>
      <trkpt lat="45.19601" lon="5.11871">
        <ele>357.33898925781</ele>
        <time>2009-05-27T15:33:38Z</time>
      </trkpt>
      <trkpt lat="45.196" lon="5.11863">
        <ele>357.29000854492</ele>
        <time>2009-05-27T15:33:39Z</time>
      </trkpt>
      <trkpt lat="45.19592" lon="5.11761">
        <ele>358.79598999023</ele>
        <time>2009-05-27T15:33:52Z</time>
      </trkpt>
      <trkpt lat="45.19589" lon="5.11735">
        <ele>359.9280090332</ele>
        <time>2009-05-27T15:33:57Z</time>
      </trkpt>
      <trkpt lat="45.19539" lon="5.11687">
        <ele>359.12899780273</ele>
        <time>2009-05-27T15:34:09Z</time>
      </trkpt>
      <trkpt lat="45.19513" lon="5.11647">
        <ele>358.32998657227</ele>
        <time>2009-05-27T15:34:14Z</time>
      </trkpt>
      <trkpt lat="45.19453" lon="5.1145">
        <ele>355.50299072266</ele>
        <time>2009-05-27T15:34:31Z</time>
      </trkpt>
      <trkpt lat="45.19388" lon="5.11233">
        <ele>352.04400634766</ele>
        <time>2009-05-27T15:34:48Z</time>
      </trkpt>
      <trkpt lat="45.19358" lon="5.11131">
        <ele>349.32299804688</ele>
        <time>2009-05-27T15:34:55Z</time>
      </trkpt>
      <trkpt lat="45.19341" lon="5.1107">
        <ele>347.14999389648</ele>
        <time>2009-05-27T15:34:59Z</time>
      </trkpt>
      <trkpt lat="45.19284" lon="5.10875">
        <ele>344.18701171875</ele>
        <time>2009-05-27T15:35:12Z</time>
      </trkpt>
      <trkpt lat="45.1926" lon="5.10788">
        <ele>341.5719909668</ele>
        <time>2009-05-27T15:35:18Z</time>
      </trkpt>
      <trkpt lat="45.19182" lon="5.1051">
        <ele>338.01998901367</ele>
        <time>2009-05-27T15:35:37Z</time>
      </trkpt>
      <trkpt lat="45.19155" lon="5.10413">
        <ele>336.6369934082</ele>
        <time>2009-05-27T15:35:44Z</time>
      </trkpt>
      <trkpt lat="45.19085" lon="5.10161">
        <ele>334.35699462891</ele>
        <time>2009-05-27T15:36:03Z</time>
      </trkpt>
      <trkpt lat="45.19008" lon="5.09884">
        <ele>331.76501464844</ele>
        <time>2009-05-27T15:36:24Z</time>
      </trkpt>
      <trkpt lat="45.18919" lon="5.09588">
        <ele>328.75399780273</ele>
        <time>2009-05-27T15:36:46Z</time>
      </trkpt>
      <trkpt lat="45.18844" lon="5.09363">
        <ele>327.44100952148</ele>
        <time>2009-05-27T15:37:04Z</time>
      </trkpt>
      <trkpt lat="45.1875" lon="5.09082">
        <ele>324.23300170898</ele>
        <time>2009-05-27T15:37:26Z</time>
      </trkpt>
      <trkpt lat="45.18666" lon="5.08832">
        <ele>320.69000244141</ele>
        <time>2009-05-27T15:37:46Z</time>
      </trkpt>
      <trkpt lat="45.18603" lon="5.08668">
        <ele>319.07400512695</ele>
        <time>2009-05-27T15:38:00Z</time>
      </trkpt>
      <trkpt lat="45.18492" lon="5.0851">
        <ele>316.70700073242</ele>
        <time>2009-05-27T15:38:16Z</time>
      </trkpt>
      <trkpt lat="45.18398" lon="5.08377">
        <ele>314.12399291992</ele>
        <time>2009-05-27T15:38:28Z</time>
      </trkpt>
      <trkpt lat="45.18364" lon="5.0833">
        <ele>312.55099487305</ele>
        <time>2009-05-27T15:38:32Z</time>
      </trkpt>
      <trkpt lat="45.18191" lon="5.08086">
        <ele>307.05700683594</ele>
        <time>2009-05-27T15:38:53Z</time>
      </trkpt>
      <trkpt lat="45.18015" lon="5.07837">
        <ele>303.29299926758</ele>
        <time>2009-05-27T15:39:16Z</time>
      </trkpt>
      <trkpt lat="45.17873" lon="5.07637">
        <ele>301.31600952148</ele>
        <time>2009-05-27T15:39:36Z</time>
      </trkpt>
      <trkpt lat="45.17733" lon="5.0744">
        <ele>298.85800170898</ele>
        <time>2009-05-27T15:39:57Z</time>
      </trkpt>
      <trkpt lat="45.17608" lon="5.07262">
        <ele>298.21301269531</ele>
        <time>2009-05-27T15:40:15Z</time>
      </trkpt>
      <trkpt lat="45.17553" lon="5.07186">
        <ele>297.40798950195</ele>
        <time>2009-05-27T15:40:25Z</time>
      </trkpt>
      <trkpt lat="45.17483" lon="5.07089">
        <ele>297.20001220703</ele>
        <time>2009-05-27T15:40:39Z</time>
      </trkpt>
      <trkpt lat="45.17472" lon="5.07075">
        <ele>296.9880065918</ele>
        <time>2009-05-27T15:40:41Z</time>
      </trkpt>
      <trkpt lat="45.1745" lon="5.07058">
        <ele>296.86401367188</ele>
        <time>2009-05-27T15:40:45Z</time>
      </trkpt>
      <trkpt lat="45.17409" lon="5.07035">
        <ele>295.12701416016</ele>
        <time>2009-05-27T15:40:51Z</time>
      </trkpt>
      <trkpt lat="45.1739" lon="5.07021">
        <ele>294.70700073242</ele>
        <time>2009-05-27T15:40:54Z</time>
      </trkpt>
      <trkpt lat="45.17377" lon="5.07012">
        <ele>294.41101074219</ele>
        <time>2009-05-27T15:40:56Z</time>
      </trkpt>
      <trkpt lat="45.17349" lon="5.07013">
        <ele>294.18099975586</ele>
        <time>2009-05-27T15:41:00Z</time>
      </trkpt>
      <trkpt lat="45.17324" lon="5.07003">
        <ele>294.49099731445</ele>
        <time>2009-05-27T15:41:04Z</time>
      </trkpt>
      <trkpt lat="45.17256" lon="5.06965">
        <ele>292.72900390625</ele>
        <time>2009-05-27T15:41:14Z</time>
      </trkpt>
      <trkpt lat="45.17191" lon="5.06944">
        <ele>291.72698974609</ele>
        <time>2009-05-27T15:41:21Z</time>
      </trkpt>
      <trkpt lat="45.17101" lon="5.0686">
        <ele>289.74798583984</ele>
        <time>2009-05-27T15:41:32Z</time>
      </trkpt>
      <trkpt lat="45.1697" lon="5.06726">
        <ele>288.16799926758</ele>
        <time>2009-05-27T15:41:49Z</time>
      </trkpt>
      <trkpt lat="45.16864" lon="5.06616">
        <ele>287.15200805664</ele>
        <time>2009-05-27T15:42:04Z</time>
      </trkpt>
      <trkpt lat="45.16763" lon="5.06499">
        <ele>287.17999267578</ele>
        <time>2009-05-27T15:42:19Z</time>
      </trkpt>
      <trkpt lat="45.16729" lon="5.06389">
        <ele>288.34399414062</ele>
        <time>2009-05-27T15:42:29Z</time>
      </trkpt>
      <trkpt lat="45.16693" lon="5.06201">
        <ele>290.68200683594</ele>
        <time>2009-05-27T15:42:48Z</time>
      </trkpt>
      <trkpt lat="45.16668" lon="5.0607">
        <ele>292.13900756836</ele>
        <time>2009-05-27T15:43:02Z</time>
      </trkpt>
      <trkpt lat="45.16637" lon="5.05971">
        <ele>292.21600341797</ele>
        <time>2009-05-27T15:43:13Z</time>
      </trkpt>
      <trkpt lat="45.16574" lon="5.05803">
        <ele>287.49398803711</ele>
        <time>2009-05-27T15:43:28Z</time>
      </trkpt>
      <trkpt lat="45.16557" lon="5.05754">
        <ele>286.29000854492</ele>
        <time>2009-05-27T15:43:32Z</time>
      </trkpt>
      <trkpt lat="45.16501" lon="5.05626">
        <ele>283.28698730469</ele>
        <time>2009-05-27T15:43:43Z</time>
      </trkpt>
      <trkpt lat="45.16402" lon="5.05441">
        <ele>279.81399536133</ele>
        <time>2009-05-27T15:44:00Z</time>
      </trkpt>
      <trkpt lat="45.16267" lon="5.05202">
        <ele>273.46798706055</ele>
        <time>2009-05-27T15:44:21Z</time>
      </trkpt>
      <trkpt lat="45.16209" lon="5.05043">
        <ele>271.14999389648</ele>
        <time>2009-05-27T15:44:34Z</time>
      </trkpt>
      <trkpt lat="45.1616" lon="5.04821">
        <ele>268.27899169922</ele>
        <time>2009-05-27T15:44:51Z</time>
      </trkpt>
      <trkpt lat="45.16166" lon="5.04598">
        <ele>266.8219909668</ele>
        <time>2009-05-27T15:45:08Z</time>
      </trkpt>
      <trkpt lat="45.16199" lon="5.04449">
        <ele>267.62298583984</ele>
        <time>2009-05-27T15:45:21Z</time>
      </trkpt>
      <trkpt lat="45.16237" lon="5.04292">
        <ele>265.83700561523</ele>
        <time>2009-05-27T15:45:36Z</time>
      </trkpt>
      <trkpt lat="45.16236" lon="5.04239">
        <ele>264.4700012207</ele>
        <time>2009-05-27T15:45:41Z</time>
      </trkpt>
      <trkpt lat="45.16196" lon="5.04025">
        <ele>265.88198852539</ele>
        <time>2009-05-27T15:46:00Z</time>
      </trkpt>
      <trkpt lat="45.16178" lon="5.03933">
        <ele>266.1369934082</ele>
        <time>2009-05-27T15:46:09Z</time>
      </trkpt>
      <trkpt lat="45.16182" lon="5.03897">
        <ele>266.90899658203</ele>
        <time>2009-05-27T15:46:13Z</time>
      </trkpt>
      <trkpt lat="45.16191" lon="5.03872">
        <ele>266.30999755859</ele>
        <time>2009-05-27T15:46:16Z</time>
      </trkpt>
      <trkpt lat="45.16196" lon="5.03834">
        <ele>267.10998535156</ele>
        <time>2009-05-27T15:46:20Z</time>
      </trkpt>
      <trkpt lat="45.16195" lon="5.03663">
        <ele>265.88598632812</ele>
        <time>2009-05-27T15:46:36Z</time>
      </trkpt>
      <trkpt lat="45.16178" lon="5.03503">
        <ele>266.23001098633</ele>
        <time>2009-05-27T15:46:50Z</time>
      </trkpt>
      <trkpt lat="45.16131" lon="5.03361">
        <ele>265.86199951172</ele>
        <time>2009-05-27T15:47:04Z</time>
      </trkpt>
      <trkpt lat="45.16042" lon="5.03204">
        <ele>265.15301513672</ele>
        <time>2009-05-27T15:47:22Z</time>
      </trkpt>
      <trkpt lat="45.15959" lon="5.03065">
        <ele>262.98001098633</ele>
        <time>2009-05-27T15:47:38Z</time>
      </trkpt>
      <trkpt lat="45.15834" lon="5.02899">
        <ele>260.22900390625</ele>
        <time>2009-05-27T15:47:57Z</time>
      </trkpt>
      <trkpt lat="45.15689" lon="5.02758">
        <ele>257.23300170898</ele>
        <time>2009-05-27T15:48:14Z</time>
      </trkpt>
      <trkpt lat="45.15551" lon="5.02604">
        <ele>254.62300109863</ele>
        <time>2009-05-27T15:48:32Z</time>
      </trkpt>
      <trkpt lat="45.15422" lon="5.02426">
        <ele>252.81199645996</ele>
        <time>2009-05-27T15:48:50Z</time>
      </trkpt>
      <trkpt lat="45.15314" lon="5.02305">
        <ele>251.79400634766</ele>
        <time>2009-05-27T15:49:04Z</time>
      </trkpt>
      <trkpt lat="45.15228" lon="5.02152">
        <ele>252.23500061035</ele>
        <time>2009-05-27T15:49:19Z</time>
      </trkpt>
      <trkpt lat="45.15192" lon="5.02096">
        <ele>251.18200683594</ele>
        <time>2009-05-27T15:49:25Z</time>
      </trkpt>
      <trkpt lat="45.15154" lon="5.02037">
        <ele>251.44000244141</ele>
        <time>2009-05-27T15:49:32Z</time>
      </trkpt>
      <trkpt lat="45.15046" lon="5.01882">
        <ele>251.75399780273</ele>
        <time>2009-05-27T15:49:49Z</time>
      </trkpt>
      <trkpt lat="45.14956" lon="5.01756">
        <ele>250.45599365234</ele>
        <time>2009-05-27T15:50:03Z</time>
      </trkpt>
      <trkpt lat="45.14872" lon="5.01647">
        <ele>250.10899353027</ele>
        <time>2009-05-27T15:50:16Z</time>
      </trkpt>
      <trkpt lat="45.14828" lon="5.01598">
        <ele>251.70700073242</ele>
        <time>2009-05-27T15:50:24Z</time>
      </trkpt>
      <trkpt lat="45.14821" lon="5.01548">
        <ele>253.79200744629</ele>
        <time>2009-05-27T15:50:30Z</time>
      </trkpt>
      <trkpt lat="45.14827" lon="5.01491">
        <ele>257.33099365234</ele>
        <time>2009-05-27T15:50:42Z</time>
      </trkpt>
      <trkpt lat="45.14832" lon="5.01444">
        <ele>260.8630065918</ele>
        <time>2009-05-27T15:50:53Z</time>
      </trkpt>
      <trkpt lat="45.14856" lon="5.01418">
        <ele>262.66000366211</ele>
        <time>2009-05-27T15:51:02Z</time>
      </trkpt>
      <trkpt lat="45.1487" lon="5.01411">
        <ele>262.98400878906</ele>
        <time>2009-05-27T15:51:06Z</time>
      </trkpt>
      <trkpt lat="45.14887" lon="5.01402">
        <ele>263.81298828125</ele>
        <time>2009-05-27T15:51:10Z</time>
      </trkpt>
      <trkpt lat="45.14903" lon="5.01394">
        <ele>263.59600830078</ele>
        <time>2009-05-27T15:51:14Z</time>
      </trkpt>
      <trkpt lat="45.14945" lon="5.01348">
        <ele>261.71200561523</ele>
        <time>2009-05-27T15:51:23Z</time>
      </trkpt>
      <trkpt lat="45.14999" lon="5.01279">
        <ele>258.04901123047</ele>
        <time>2009-05-27T15:51:32Z</time>
      </trkpt>
      <trkpt lat="45.15013" lon="5.01262">
        <ele>257.33801269531</ele>
        <time>2009-05-27T15:51:34Z</time>
      </trkpt>
      <trkpt lat="45.15034" lon="5.01234">
        <ele>256.04800415039</ele>
        <time>2009-05-27T15:51:37Z</time>
      </trkpt>
      <trkpt lat="45.15093" lon="5.0119">
        <ele>253.26600646973</ele>
        <time>2009-05-27T15:51:44Z</time>
      </trkpt>
      <trkpt lat="45.15111" lon="5.01182">
        <ele>253.33999633789</ele>
        <time>2009-05-27T15:51:46Z</time>
      </trkpt>
      <trkpt lat="45.15167" lon="5.01162">
        <ele>253.37899780273</ele>
        <time>2009-05-27T15:51:53Z</time>
      </trkpt>
      <trkpt lat="45.15247" lon="5.01169">
        <ele>253.11000061035</ele>
        <time>2009-05-27T15:52:05Z</time>
      </trkpt>
      <trkpt lat="45.15321" lon="5.01183">
        <ele>254.37699890137</ele>
        <time>2009-05-27T15:52:17Z</time>
      </trkpt>
      <trkpt lat="45.15435" lon="5.01186">
        <ele>254.66700744629</ele>
        <time>2009-05-27T15:52:34Z</time>
      </trkpt>
      <trkpt lat="45.15545" lon="5.01189">
        <ele>255.09100341797</ele>
        <time>2009-05-27T15:52:51Z</time>
      </trkpt>
      <trkpt lat="45.15691" lon="5.01188">
        <ele>256.77600097656</ele>
        <time>2009-05-27T15:53:14Z</time>
      </trkpt>
      <trkpt lat="45.15697" lon="5.01188">
        <ele>256.99099731445</ele>
        <time>2009-05-27T15:53:15Z</time>
      </trkpt>
      <trkpt lat="45.1579" lon="5.01188">
        <ele>257.91598510742</ele>
        <time>2009-05-27T15:53:31Z</time>
      </trkpt>
      <trkpt lat="45.15886" lon="5.01179">
        <ele>258.42498779297</ele>
        <time>2009-05-27T15:53:47Z</time>
      </trkpt>
      <trkpt lat="45.16002" lon="5.01143">
        <ele>258.76800537109</ele>
        <time>2009-05-27T15:54:07Z</time>
      </trkpt>
      <trkpt lat="45.16113" lon="5.01107">
        <ele>259.81500244141</ele>
        <time>2009-05-27T15:54:27Z</time>
      </trkpt>
      <trkpt lat="45.16206" lon="5.01078">
        <ele>260.4460144043</ele>
        <time>2009-05-27T15:54:46Z</time>
      </trkpt>
      <trkpt lat="45.16235" lon="5.01069">
        <ele>260.85800170898</ele>
        <time>2009-05-27T15:54:52Z</time>
      </trkpt>
      <trkpt lat="45.16307" lon="5.01046">
        <ele>262.01300048828</ele>
        <time>2009-05-27T15:55:07Z</time>
      </trkpt>
      <trkpt lat="45.16415" lon="5.01012">
        <ele>263.43399047852</ele>
        <time>2009-05-27T15:55:29Z</time>
      </trkpt>
      <trkpt lat="45.16497" lon="5.00986">
        <ele>264.46099853516</ele>
        <time>2009-05-27T15:55:45Z</time>
      </trkpt>
      <trkpt lat="45.16581" lon="5.00959">
        <ele>265.08999633789</ele>
        <time>2009-05-27T15:56:01Z</time>
      </trkpt>
      <trkpt lat="45.16691" lon="5.00924">
        <ele>267.12899780273</ele>
        <time>2009-05-27T15:56:21Z</time>
      </trkpt>
      <trkpt lat="45.16748" lon="5.00905">
        <ele>268.77301025391</ele>
        <time>2009-05-27T15:56:33Z</time>
      </trkpt>
      <trkpt lat="45.1678" lon="5.00867">
        <ele>269.875</ele>
        <time>2009-05-27T15:56:42Z</time>
      </trkpt>
      <trkpt lat="45.16828" lon="5.00784">
        <ele>269.96798706055</ele>
        <time>2009-05-27T15:56:58Z</time>
      </trkpt>
      <trkpt lat="45.16844" lon="5.00764">
        <ele>269.90798950195</ele>
        <time>2009-05-27T15:57:03Z</time>
      </trkpt>
      <trkpt lat="45.16898" lon="5.007">
        <ele>272.47500610352</ele>
        <time>2009-05-27T15:57:19Z</time>
      </trkpt>
      <trkpt lat="45.16934" lon="5.00661">
        <ele>273.34698486328</ele>
        <time>2009-05-27T15:57:32Z</time>
      </trkpt>
      <trkpt lat="45.16974" lon="5.00644">
        <ele>273.79098510742</ele>
        <time>2009-05-27T15:57:42Z</time>
      </trkpt>
      <trkpt lat="45.17036" lon="5.00616">
        <ele>275.9700012207</ele>
        <time>2009-05-27T15:57:58Z</time>
      </trkpt>
      <trkpt lat="45.17053" lon="5.00608">
        <ele>276.34100341797</ele>
        <time>2009-05-27T15:58:02Z</time>
      </trkpt>
      <trkpt lat="45.17063" lon="5.00601">
        <ele>277.71398925781</ele>
        <time>2009-05-27T15:58:05Z</time>
      </trkpt>
      <trkpt lat="45.1712" lon="5.00537">
        <ele>279.65100097656</ele>
        <time>2009-05-27T15:58:24Z</time>
      </trkpt>
      <trkpt lat="45.17167" lon="5.00487">
        <ele>281.49499511719</ele>
        <time>2009-05-27T15:58:39Z</time>
      </trkpt>
      <trkpt lat="45.17204" lon="5.00431">
        <ele>282.73999023438</ele>
        <time>2009-05-27T15:58:53Z</time>
      </trkpt>
      <trkpt lat="45.17232" lon="5.00371">
        <ele>284.28799438477</ele>
        <time>2009-05-27T15:59:07Z</time>
      </trkpt>
      <trkpt lat="45.17256" lon="5.00334">
        <ele>284.75100708008</ele>
        <time>2009-05-27T15:59:16Z</time>
      </trkpt>
      <trkpt lat="45.1727" lon="5.0032">
        <ele>285.24200439453</ele>
        <time>2009-05-27T15:59:20Z</time>
      </trkpt>
      <trkpt lat="45.17333" lon="5.00282">
        <ele>287.47900390625</ele>
        <time>2009-05-27T15:59:38Z</time>
      </trkpt>
      <trkpt lat="45.17382" lon="5.00271">
        <ele>291.89898681641</ele>
        <time>2009-05-27T15:59:54Z</time>
      </trkpt>
      <trkpt lat="45.17406" lon="5.00268">
        <ele>293.14700317383</ele>
        <time>2009-05-27T16:00:02Z</time>
      </trkpt>
      <trkpt lat="45.17445" lon="5.00264">
        <ele>297.14199829102</ele>
        <time>2009-05-27T16:00:16Z</time>
      </trkpt>
      <trkpt lat="45.17464" lon="5.00261">
        <ele>299.5830078125</ele>
        <time>2009-05-27T16:00:24Z</time>
      </trkpt>
      <trkpt lat="45.17493" lon="5.00258">
        <ele>304.24200439453</ele>
        <time>2009-05-27T16:00:38Z</time>
      </trkpt>
      <trkpt lat="45.17521" lon="5.00258">
        <ele>308.41198730469</ele>
        <time>2009-05-27T16:00:53Z</time>
      </trkpt>
      <trkpt lat="45.17551" lon="5.00258">
        <ele>311.35598754883</ele>
        <time>2009-05-27T16:01:06Z</time>
      </trkpt>
      <trkpt lat="45.1757" lon="5.00258">
        <ele>314.70199584961</ele>
        <time>2009-05-27T16:01:15Z</time>
      </trkpt>
      <trkpt lat="45.17591" lon="5.00254">
        <ele>317.26901245117</ele>
        <time>2009-05-27T16:01:26Z</time>
      </trkpt>
      <trkpt lat="45.17595" lon="5.00253">
        <ele>318.17300415039</ele>
        <time>2009-05-27T16:01:28Z</time>
      </trkpt>
      <trkpt lat="45.17621" lon="5.0023">
        <ele>322.0950012207</ele>
        <time>2009-05-27T16:01:42Z</time>
      </trkpt>
      <trkpt lat="45.17639" lon="5.00195">
        <ele>324.4700012207</ele>
        <time>2009-05-27T16:01:55Z</time>
      </trkpt>
      <trkpt lat="45.17656" lon="5.00136">
        <ele>327.98699951172</ele>
        <time>2009-05-27T16:02:12Z</time>
      </trkpt>
      <trkpt lat="45.17681" lon="5.00096">
        <ele>330.06900024414</ele>
        <time>2009-05-27T16:02:26Z</time>
      </trkpt>
      <trkpt lat="45.17727" lon="5.00084">
        <ele>333.49200439453</ele>
        <time>2009-05-27T16:02:43Z</time>
      </trkpt>
      <trkpt lat="45.17764" lon="5.00093">
        <ele>335.00900268555</ele>
        <time>2009-05-27T16:02:54Z</time>
      </trkpt>
      <trkpt lat="45.17768" lon="5.00094">
        <ele>334.80801391602</ele>
        <time>2009-05-27T16:02:55Z</time>
      </trkpt>
      <trkpt lat="45.17817" lon="5.00075">
        <ele>337.04400634766</ele>
        <time>2009-05-27T16:03:08Z</time>
      </trkpt>
      <trkpt lat="45.17821" lon="5.00072">
        <ele>336.94299316406</ele>
        <time>2009-05-27T16:03:09Z</time>
      </trkpt>
      <trkpt lat="45.17839" lon="5.00046">
        <ele>337.10299682617</ele>
        <time>2009-05-27T16:03:15Z</time>
      </trkpt>
      <trkpt lat="45.17887" lon="4.99974">
        <ele>339.01000976562</ele>
        <time>2009-05-27T16:03:30Z</time>
      </trkpt>
      <trkpt lat="45.17913" lon="4.99921">
        <ele>342.70498657227</ele>
        <time>2009-05-27T16:03:43Z</time>
      </trkpt>
      <trkpt lat="45.17939" lon="4.99889">
        <ele>345.92300415039</ele>
        <time>2009-05-27T16:03:55Z</time>
      </trkpt>
      <trkpt lat="45.17969" lon="4.99861">
        <ele>348.19198608398</ele>
        <time>2009-05-27T16:04:05Z</time>
      </trkpt>
      <trkpt lat="45.17976" lon="4.99847">
        <ele>349.23400878906</ele>
        <time>2009-05-27T16:04:08Z</time>
      </trkpt>
      <trkpt lat="45.17985" lon="4.9983">
        <ele>350.80099487305</ele>
        <time>2009-05-27T16:04:13Z</time>
      </trkpt>
      <trkpt lat="45.17994" lon="4.99754">
        <ele>354.39801025391</ele>
        <time>2009-05-27T16:04:29Z</time>
      </trkpt>
      <trkpt lat="45.17989" lon="4.99689">
        <ele>360.19400024414</ele>
        <time>2009-05-27T16:04:45Z</time>
      </trkpt>
      <trkpt lat="45.17997" lon="4.9965">
        <ele>365.35900878906</ele>
        <time>2009-05-27T16:05:00Z</time>
      </trkpt>
      <trkpt lat="45.18005" lon="4.99614">
        <ele>368.88500976562</ele>
        <time>2009-05-27T16:05:15Z</time>
      </trkpt>
      <trkpt lat="45.1801" lon="4.99587">
        <ele>371.71499633789</ele>
        <time>2009-05-27T16:05:25Z</time>
      </trkpt>
      <trkpt lat="45.18013" lon="4.99572">
        <ele>373.25900268555</ele>
        <time>2009-05-27T16:05:30Z</time>
      </trkpt>
      <trkpt lat="45.18027" lon="4.99575">
        <ele>374.125</ele>
        <time>2009-05-27T16:05:38Z</time>
      </trkpt>
      <trkpt lat="45.18065" lon="4.99575">
        <ele>373.66299438477</ele>
        <time>2009-05-27T16:05:49Z</time>
      </trkpt>
      <trkpt lat="45.18081" lon="4.99561">
        <ele>372.46301269531</ele>
        <time>2009-05-27T16:05:53Z</time>
      </trkpt>
      <trkpt lat="45.18096" lon="4.99541">
        <ele>371.88800048828</ele>
        <time>2009-05-27T16:05:57Z</time>
      </trkpt>
      <trkpt lat="45.18105" lon="4.99531">
        <ele>371.57000732422</ele>
        <time>2009-05-27T16:05:59Z</time>
      </trkpt>
      <trkpt lat="45.18129" lon="4.99515">
        <ele>371.28900146484</ele>
        <time>2009-05-27T16:06:04Z</time>
      </trkpt>
      <trkpt lat="45.1815" lon="4.99513">
        <ele>371.47799682617</ele>
        <time>2009-05-27T16:06:08Z</time>
      </trkpt>
      <trkpt lat="45.18161" lon="4.99513">
        <ele>371.83599853516</ele>
        <time>2009-05-27T16:06:10Z</time>
      </trkpt>
      <trkpt lat="45.18172" lon="4.99512">
        <ele>371.94198608398</ele>
        <time>2009-05-27T16:06:12Z</time>
      </trkpt>
      <trkpt lat="45.18264" lon="4.99504">
        <ele>373.67700195312</ele>
        <time>2009-05-27T16:06:28Z</time>
      </trkpt>
      <trkpt lat="45.18317" lon="4.99553">
        <ele>375.25201416016</ele>
        <time>2009-05-27T16:06:38Z</time>
      </trkpt>
      <trkpt lat="45.1836" lon="4.99631">
        <ele>378.18798828125</ele>
        <time>2009-05-27T16:06:51Z</time>
      </trkpt>
      <trkpt lat="45.18372" lon="4.99643">
        <ele>378.70498657227</ele>
        <time>2009-05-27T16:06:54Z</time>
      </trkpt>
      <trkpt lat="45.18401" lon="4.99658">
        <ele>379.34399414062</ele>
        <time>2009-05-27T16:07:03Z</time>
      </trkpt>
      <trkpt lat="45.18401" lon="4.99648">
        <ele>380.21200561523</ele>
        <time>2009-05-27T16:07:10Z</time>
      </trkpt>
      <trkpt lat="45.18399" lon="4.99647">
        <ele>380.38598632812</ele>
        <time>2009-05-27T16:07:11Z</time>
      </trkpt>
      <trkpt lat="45.18375" lon="4.99626">
        <ele>384.07901000977</ele>
        <time>2009-05-27T16:07:23Z</time>
      </trkpt>
      <trkpt lat="45.1837" lon="4.99615">
        <ele>385.64401245117</ele>
        <time>2009-05-27T16:07:27Z</time>
      </trkpt>
      <trkpt lat="45.18365" lon="4.99596">
        <ele>388.26998901367</ele>
        <time>2009-05-27T16:07:33Z</time>
      </trkpt>
      <trkpt lat="45.1837" lon="4.99582">
        <ele>390.92098999023</ele>
        <time>2009-05-27T16:07:39Z</time>
      </trkpt>
      <trkpt lat="45.18375" lon="4.99581">
        <ele>392.17498779297</ele>
        <time>2009-05-27T16:07:42Z</time>
      </trkpt>
      <trkpt lat="45.18399" lon="4.9957">
        <ele>395.7619934082</ele>
        <time>2009-05-27T16:08:00Z</time>
      </trkpt>
      <trkpt lat="45.1842" lon="4.99561">
        <ele>398.35400390625</ele>
        <time>2009-05-27T16:08:12Z</time>
      </trkpt>
      <trkpt lat="45.18439" lon="4.99552">
        <ele>400.67700195312</ele>
        <time>2009-05-27T16:08:23Z</time>
      </trkpt>
      <trkpt lat="45.18444" lon="4.99556">
        <ele>401.85198974609</ele>
        <time>2009-05-27T16:08:35Z</time>
      </trkpt>
      <trkpt lat="45.18446" lon="4.99545">
        <ele>402.53399658203</ele>
        <time>2009-05-27T16:08:52Z</time>
      </trkpt>
      <trkpt lat="45.18447" lon="4.99544">
        <ele>402.88000488281</ele>
        <time>2009-05-27T16:08:53Z</time>
      </trkpt>
      <trkpt lat="45.18453" lon="4.99541">
        <ele>403.95498657227</ele>
        <time>2009-05-27T16:08:57Z</time>
      </trkpt>
      <trkpt lat="45.18483" lon="4.9952">
        <ele>407.31600952148</ele>
        <time>2009-05-27T16:09:12Z</time>
      </trkpt>
      <trkpt lat="45.18529" lon="4.99484">
        <ele>411.07998657227</ele>
        <time>2009-05-27T16:09:29Z</time>
      </trkpt>
      <trkpt lat="45.18547" lon="4.99453">
        <ele>414.48599243164</ele>
        <time>2009-05-27T16:09:40Z</time>
      </trkpt>
      <trkpt lat="45.18555" lon="4.99434">
        <ele>416.95098876953</ele>
        <time>2009-05-27T16:09:46Z</time>
      </trkpt>
      <trkpt lat="45.18562" lon="4.99403">
        <ele>421.44900512695</ele>
        <time>2009-05-27T16:09:58Z</time>
      </trkpt>
      <trkpt lat="45.18573" lon="4.99366">
        <ele>426.39898681641</ele>
        <time>2009-05-27T16:10:15Z</time>
      </trkpt>
      <trkpt lat="45.18586" lon="4.9934">
        <ele>430.48498535156</ele>
        <time>2009-05-27T16:10:30Z</time>
      </trkpt>
      <trkpt lat="45.18599" lon="4.99316">
        <ele>434.48901367188</ele>
        <time>2009-05-27T16:10:43Z</time>
      </trkpt>
      <trkpt lat="45.186" lon="4.99315">
        <ele>434.86499023438</ele>
        <time>2009-05-27T16:10:44Z</time>
      </trkpt>
      <trkpt lat="45.186" lon="4.99302">
        <ele>436.28698730469</ele>
        <time>2009-05-27T16:10:51Z</time>
      </trkpt>
      <trkpt lat="45.18561" lon="4.99305">
        <ele>436.09399414062</ele>
        <time>2009-05-27T16:11:06Z</time>
      </trkpt>
      <trkpt lat="45.18529" lon="4.9931">
        <ele>436.29998779297</ele>
        <time>2009-05-27T16:11:14Z</time>
      </trkpt>
      <trkpt lat="45.18505" lon="4.99313">
        <ele>436.72299194336</ele>
        <time>2009-05-27T16:11:19Z</time>
      </trkpt>
      <trkpt lat="45.18456" lon="4.99307">
        <ele>438.15701293945</ele>
        <time>2009-05-27T16:11:31Z</time>
      </trkpt>
      <trkpt lat="45.18429" lon="4.99298">
        <ele>438.16900634766</ele>
        <time>2009-05-27T16:11:37Z</time>
      </trkpt>
      <trkpt lat="45.1838" lon="4.99269">
        <ele>436.35000610352</ele>
        <time>2009-05-27T16:11:46Z</time>
      </trkpt>
      <trkpt lat="45.18342" lon="4.99253">
        <ele>433.56100463867</ele>
        <time>2009-05-27T16:11:51Z</time>
      </trkpt>
      <trkpt lat="45.18249" lon="4.99209">
        <ele>432.89498901367</ele>
        <time>2009-05-27T16:12:02Z</time>
      </trkpt>
      <trkpt lat="45.18167" lon="4.99151">
        <ele>435.94500732422</ele>
        <time>2009-05-27T16:12:14Z</time>
      </trkpt>
      <trkpt lat="45.1814" lon="4.99144">
        <ele>436.64199829102</ele>
        <time>2009-05-27T16:12:18Z</time>
      </trkpt>
      <trkpt lat="45.18076" lon="4.9914">
        <ele>435.8869934082</ele>
        <time>2009-05-27T16:12:27Z</time>
      </trkpt>
      <trkpt lat="45.18017" lon="4.9912">
        <ele>432.16500854492</ele>
        <time>2009-05-27T16:12:34Z</time>
      </trkpt>
      <trkpt lat="45.17961" lon="4.99111">
        <ele>430.79699707031</ele>
        <time>2009-05-27T16:12:40Z</time>
      </trkpt>
      <trkpt lat="45.17924" lon="4.99107">
        <ele>430.37100219727</ele>
        <time>2009-05-27T16:12:44Z</time>
      </trkpt>
      <trkpt lat="45.17878" lon="4.991">
        <ele>429.15701293945</ele>
        <time>2009-05-27T16:12:49Z</time>
      </trkpt>
      <trkpt lat="45.17774" lon="4.99086">
        <ele>417.8630065918</ele>
        <time>2009-05-27T16:12:58Z</time>
      </trkpt>
      <trkpt lat="45.17746" lon="4.99087">
        <ele>415.80599975586</ele>
        <time>2009-05-27T16:13:00Z</time>
      </trkpt>
      <trkpt lat="45.17734" lon="4.99087">
        <ele>415.73599243164</ele>
        <time>2009-05-27T16:13:01Z</time>
      </trkpt>
      <trkpt lat="45.17674" lon="4.99071">
        <ele>408.99899291992</ele>
        <time>2009-05-27T16:13:07Z</time>
      </trkpt>
      <trkpt lat="45.1762" lon="4.99089">
        <ele>401.4280090332</ele>
        <time>2009-05-27T16:13:12Z</time>
      </trkpt>
      <trkpt lat="45.17596" lon="4.99107">
        <ele>399.42300415039</ele>
        <time>2009-05-27T16:13:15Z</time>
      </trkpt>
      <trkpt lat="45.17586" lon="4.99114">
        <ele>398.05700683594</ele>
        <time>2009-05-27T16:13:17Z</time>
      </trkpt>
      <trkpt lat="45.17582" lon="4.99117">
        <ele>397.50201416016</ele>
        <time>2009-05-27T16:13:18Z</time>
      </trkpt>
      <trkpt lat="45.17576" lon="4.99119">
        <ele>397.34799194336</ele>
        <time>2009-05-27T16:13:19Z</time>
      </trkpt>
      <trkpt lat="45.17504" lon="4.99145">
        <ele>393.62701416016</ele>
        <time>2009-05-27T16:13:29Z</time>
      </trkpt>
      <trkpt lat="45.1741" lon="4.99177">
        <ele>389.0719909668</ele>
        <time>2009-05-27T16:13:40Z</time>
      </trkpt>
      <trkpt lat="45.17358" lon="4.99173">
        <ele>382.75900268555</ele>
        <time>2009-05-27T16:13:45Z</time>
      </trkpt>
      <trkpt lat="45.17338" lon="4.99153">
        <ele>381.33999633789</ele>
        <time>2009-05-27T16:13:47Z</time>
      </trkpt>
      <trkpt lat="45.1732" lon="4.99129">
        <ele>380.60800170898</ele>
        <time>2009-05-27T16:13:49Z</time>
      </trkpt>
      <trkpt lat="45.17278" lon="4.99098">
        <ele>380.42498779297</ele>
        <time>2009-05-27T16:13:53Z</time>
      </trkpt>
      <trkpt lat="45.17233" lon="4.99092">
        <ele>378.3039855957</ele>
        <time>2009-05-27T16:13:57Z</time>
      </trkpt>
      <trkpt lat="45.17188" lon="4.99108">
        <ele>376</ele>
        <time>2009-05-27T16:14:01Z</time>
      </trkpt>
      <trkpt lat="45.17158" lon="4.99131">
        <ele>374.45199584961</ele>
        <time>2009-05-27T16:14:04Z</time>
      </trkpt>
      <trkpt lat="45.17139" lon="4.99148">
        <ele>372.85101318359</ele>
        <time>2009-05-27T16:14:06Z</time>
      </trkpt>
      <trkpt lat="45.17119" lon="4.99163">
        <ele>371.99398803711</ele>
        <time>2009-05-27T16:14:08Z</time>
      </trkpt>
      <trkpt lat="45.16967" lon="4.99228">
        <ele>367.96600341797</ele>
        <time>2009-05-27T16:14:22Z</time>
      </trkpt>
      <trkpt lat="45.16905" lon="4.99252">
        <ele>367.48400878906</ele>
        <time>2009-05-27T16:14:28Z</time>
      </trkpt>
      <trkpt lat="45.16857" lon="4.9924">
        <ele>364.62799072266</ele>
        <time>2009-05-27T16:14:33Z</time>
      </trkpt>
      <trkpt lat="45.16813" lon="4.99196">
        <ele>361.27200317383</ele>
        <time>2009-05-27T16:14:38Z</time>
      </trkpt>
      <trkpt lat="45.16752" lon="4.99195">
        <ele>358.02099609375</ele>
        <time>2009-05-27T16:14:44Z</time>
      </trkpt>
      <trkpt lat="45.16717" lon="4.99171">
        <ele>355.19799804688</ele>
        <time>2009-05-27T16:14:48Z</time>
      </trkpt>
      <trkpt lat="45.16701" lon="4.99152">
        <ele>354.27099609375</ele>
        <time>2009-05-27T16:14:50Z</time>
      </trkpt>
      <trkpt lat="45.1666" lon="4.99166">
        <ele>351.78100585938</ele>
        <time>2009-05-27T16:14:54Z</time>
      </trkpt>
      <trkpt lat="45.16609" lon="4.99138">
        <ele>348.35198974609</ele>
        <time>2009-05-27T16:14:59Z</time>
      </trkpt>
      <trkpt lat="45.16559" lon="4.99106">
        <ele>344.51699829102</ele>
        <time>2009-05-27T16:15:04Z</time>
      </trkpt>
      <trkpt lat="45.16393" lon="4.99144">
        <ele>333.72500610352</ele>
        <time>2009-05-27T16:15:17Z</time>
      </trkpt>
      <trkpt lat="45.16201" lon="4.99208">
        <ele>323.29901123047</ele>
        <time>2009-05-27T16:15:31Z</time>
      </trkpt>
      <trkpt lat="45.1616" lon="4.99212">
        <ele>322.36401367188</ele>
        <time>2009-05-27T16:15:34Z</time>
      </trkpt>
      <trkpt lat="45.16116" lon="4.99162">
        <ele>318.10299682617</ele>
        <time>2009-05-27T16:15:39Z</time>
      </trkpt>
      <trkpt lat="45.16064" lon="4.99147">
        <ele>318.17001342773</ele>
        <time>2009-05-27T16:15:44Z</time>
      </trkpt>
      <trkpt lat="45.15985" lon="4.99166">
        <ele>319.31600952148</ele>
        <time>2009-05-27T16:15:52Z</time>
      </trkpt>
      <trkpt lat="45.15976" lon="4.99169">
        <ele>319.35000610352</ele>
        <time>2009-05-27T16:15:53Z</time>
      </trkpt>
      <trkpt lat="45.15924" lon="4.99195">
        <ele>319.98199462891</ele>
        <time>2009-05-27T16:15:59Z</time>
      </trkpt>
      <trkpt lat="45.15828" lon="4.99215">
        <ele>320.35900878906</ele>
        <time>2009-05-27T16:16:10Z</time>
      </trkpt>
      <trkpt lat="45.15762" lon="4.99225">
        <ele>321.04098510742</ele>
        <time>2009-05-27T16:16:18Z</time>
      </trkpt>
      <trkpt lat="45.15712" lon="4.99238">
        <ele>321.05700683594</ele>
        <time>2009-05-27T16:16:24Z</time>
      </trkpt>
      <trkpt lat="45.15641" lon="4.9926">
        <ele>321.51699829102</ele>
        <time>2009-05-27T16:16:33Z</time>
      </trkpt>
      <trkpt lat="45.15626" lon="4.99266">
        <ele>320.57800292969</ele>
        <time>2009-05-27T16:16:35Z</time>
      </trkpt>
      <trkpt lat="45.15593" lon="4.99299">
        <ele>320.96600341797</ele>
        <time>2009-05-27T16:16:40Z</time>
      </trkpt>
      <trkpt lat="45.15496" lon="4.99375">
        <ele>318.9880065918</ele>
        <time>2009-05-27T16:16:53Z</time>
      </trkpt>
      <trkpt lat="45.1548" lon="4.99388">
        <ele>317.92001342773</ele>
        <time>2009-05-27T16:16:55Z</time>
      </trkpt>
      <trkpt lat="45.15425" lon="4.9947">
        <ele>312.7080078125</ele>
        <time>2009-05-27T16:17:03Z</time>
      </trkpt>
      <trkpt lat="45.15404" lon="4.99482">
        <ele>311.04400634766</ele>
        <time>2009-05-27T16:17:05Z</time>
      </trkpt>
      <trkpt lat="45.15361" lon="4.99529">
        <ele>308.40600585938</ele>
        <time>2009-05-27T16:17:10Z</time>
      </trkpt>
      <trkpt lat="45.15359" lon="4.99543">
        <ele>308.14801025391</ele>
        <time>2009-05-27T16:17:11Z</time>
      </trkpt>
      <trkpt lat="45.1534" lon="4.99613">
        <ele>306.17001342773</ele>
        <time>2009-05-27T16:17:16Z</time>
      </trkpt>
      <trkpt lat="45.15335" lon="4.99624">
        <ele>305.80599975586</ele>
        <time>2009-05-27T16:17:17Z</time>
      </trkpt>
      <trkpt lat="45.15276" lon="4.9967">
        <ele>301.70901489258</ele>
        <time>2009-05-27T16:17:23Z</time>
      </trkpt>
      <trkpt lat="45.15253" lon="4.99677">
        <ele>300.18200683594</ele>
        <time>2009-05-27T16:17:25Z</time>
      </trkpt>
      <trkpt lat="45.1519" lon="4.99637">
        <ele>297.13101196289</ele>
        <time>2009-05-27T16:17:32Z</time>
      </trkpt>
      <trkpt lat="45.15194" lon="4.99604">
        <ele>296.14999389648</ele>
        <time>2009-05-27T16:17:34Z</time>
      </trkpt>
      <trkpt lat="45.15184" lon="4.99541">
        <ele>293.74600219727</ele>
        <time>2009-05-27T16:17:38Z</time>
      </trkpt>
      <trkpt lat="45.15157" lon="4.9949">
        <ele>290.6369934082</ele>
        <time>2009-05-27T16:17:42Z</time>
      </trkpt>
      <trkpt lat="45.15076" lon="4.99417">
        <ele>285.08599853516</ele>
        <time>2009-05-27T16:17:50Z</time>
      </trkpt>
      <trkpt lat="45.15003" lon="4.99347">
        <ele>278.82000732422</ele>
        <time>2009-05-27T16:17:57Z</time>
      </trkpt>
      <trkpt lat="45.14992" lon="4.99338">
        <ele>278.52200317383</ele>
        <time>2009-05-27T16:17:58Z</time>
      </trkpt>
      <trkpt lat="45.1489" lon="4.99277">
        <ele>273.91101074219</ele>
        <time>2009-05-27T16:18:07Z</time>
      </trkpt>
      <trkpt lat="45.14801" lon="4.99217">
        <ele>269.17498779297</ele>
        <time>2009-05-27T16:18:15Z</time>
      </trkpt>
      <trkpt lat="45.14736" lon="4.99175">
        <ele>267.29800415039</ele>
        <time>2009-05-27T16:18:21Z</time>
      </trkpt>
      <trkpt lat="45.14621" lon="4.99161">
        <ele>267.58200073242</ele>
        <time>2009-05-27T16:18:32Z</time>
      </trkpt>
      <trkpt lat="45.14466" lon="4.99141">
        <ele>264.87100219727</ele>
        <time>2009-05-27T16:18:47Z</time>
      </trkpt>
      <trkpt lat="45.14418" lon="4.99121">
        <ele>264.93200683594</ele>
        <time>2009-05-27T16:18:52Z</time>
      </trkpt>
      <trkpt lat="45.14309" lon="4.99124">
        <ele>267.79998779297</ele>
        <time>2009-05-27T16:19:05Z</time>
      </trkpt>
      <trkpt lat="45.14238" lon="4.99128">
        <ele>269.86801147461</ele>
        <time>2009-05-27T16:19:15Z</time>
      </trkpt>
      <trkpt lat="45.14198" lon="4.99119">
        <ele>271.22799682617</ele>
        <time>2009-05-27T16:19:21Z</time>
      </trkpt>
      <trkpt lat="45.14165" lon="4.99101">
        <ele>272.70199584961</ele>
        <time>2009-05-27T16:19:27Z</time>
      </trkpt>
      <trkpt lat="45.1414" lon="4.9909">
        <ele>273.00399780273</ele>
        <time>2009-05-27T16:19:32Z</time>
      </trkpt>
      <trkpt lat="45.14023" lon="4.99082">
        <ele>274.56298828125</ele>
        <time>2009-05-27T16:19:52Z</time>
      </trkpt>
      <trkpt lat="45.13913" lon="4.99082">
        <ele>275.04598999023</ele>
        <time>2009-05-27T16:20:09Z</time>
      </trkpt>
      <trkpt lat="45.13811" lon="4.99133">
        <ele>275.99600219727</ele>
        <time>2009-05-27T16:20:25Z</time>
      </trkpt>
      <trkpt lat="45.13697" lon="4.99201">
        <ele>276.79098510742</ele>
        <time>2009-05-27T16:20:43Z</time>
      </trkpt>
      <trkpt lat="45.1362" lon="4.99223">
        <ele>277.34698486328</ele>
        <time>2009-05-27T16:20:53Z</time>
      </trkpt>
      <trkpt lat="45.13533" lon="4.99178">
        <ele>276.79098510742</ele>
        <time>2009-05-27T16:21:05Z</time>
      </trkpt>
      <trkpt lat="45.13435" lon="4.9909">
        <ele>272.71701049805</ele>
        <time>2009-05-27T16:21:18Z</time>
      </trkpt>
      <trkpt lat="45.13409" lon="4.99066">
        <ele>270.93399047852</ele>
        <time>2009-05-27T16:21:21Z</time>
      </trkpt>
      <trkpt lat="45.13319" lon="4.98992">
        <ele>264.26501464844</ele>
        <time>2009-05-27T16:21:30Z</time>
      </trkpt>
      <trkpt lat="45.13271" lon="4.98967">
        <ele>260.73699951172</ele>
        <time>2009-05-27T16:21:34Z</time>
      </trkpt>
      <trkpt lat="45.13181" lon="4.9893">
        <ele>255.72599792481</ele>
        <time>2009-05-27T16:21:41Z</time>
      </trkpt>
      <trkpt lat="45.13022" lon="4.98871">
        <ele>249.01400756836</ele>
        <time>2009-05-27T16:21:53Z</time>
      </trkpt>
      <trkpt lat="45.12983" lon="4.98857">
        <ele>247.55000305176</ele>
        <time>2009-05-27T16:21:56Z</time>
      </trkpt>
      <trkpt lat="45.12904" lon="4.98835">
        <ele>245.71800231934</ele>
        <time>2009-05-27T16:22:02Z</time>
      </trkpt>
      <trkpt lat="45.12864" lon="4.98824">
        <ele>244.33599853516</ele>
        <time>2009-05-27T16:22:05Z</time>
      </trkpt>
      <trkpt lat="45.12785" lon="4.98798">
        <ele>240.59100341797</ele>
        <time>2009-05-27T16:22:11Z</time>
      </trkpt>
      <trkpt lat="45.12772" lon="4.98791">
        <ele>238.91700744629</ele>
        <time>2009-05-27T16:22:12Z</time>
      </trkpt>
      <trkpt lat="45.12708" lon="4.98715">
        <ele>232.87399291992</ele>
        <time>2009-05-27T16:22:18Z</time>
      </trkpt>
      <trkpt lat="45.12682" lon="4.98667">
        <ele>228.62100219727</ele>
        <time>2009-05-27T16:22:21Z</time>
      </trkpt>
      <trkpt lat="45.1266" lon="4.98642">
        <ele>227.44500732422</ele>
        <time>2009-05-27T16:22:23Z</time>
      </trkpt>
      <trkpt lat="45.12545" lon="4.98575">
        <ele>216.30400085449</ele>
        <time>2009-05-27T16:22:31Z</time>
      </trkpt>
      <trkpt lat="45.12514" lon="4.98559">
        <ele>214.89599609375</ele>
        <time>2009-05-27T16:22:33Z</time>
      </trkpt>
      <trkpt lat="45.12469" lon="4.98553">
        <ele>212.04299926758</ele>
        <time>2009-05-27T16:22:36Z</time>
      </trkpt>
      <trkpt lat="45.12416" lon="4.98504">
        <ele>208.67500305176</ele>
        <time>2009-05-27T16:22:42Z</time>
      </trkpt>
      <trkpt lat="45.12405" lon="4.98469">
        <ele>208.09300231934</ele>
        <time>2009-05-27T16:22:45Z</time>
      </trkpt>
      <trkpt lat="45.12399" lon="4.98443">
        <ele>208.41499328613</ele>
        <time>2009-05-27T16:22:48Z</time>
      </trkpt>
      <trkpt lat="45.12391" lon="4.9842">
        <ele>207.57200622559</ele>
        <time>2009-05-27T16:22:51Z</time>
      </trkpt>
      <trkpt lat="45.12376" lon="4.98365">
        <ele>207.37199401856</ele>
        <time>2009-05-27T16:23:01Z</time>
      </trkpt>
      <trkpt lat="45.12376" lon="4.98364">
        <ele>207.52099609375</ele>
        <time>2009-05-27T16:23:02Z</time>
      </trkpt>
      <trkpt lat="45.12366" lon="4.98362">
        <ele>207.04299926758</ele>
        <time>2009-05-27T16:23:11Z</time>
      </trkpt>
      <trkpt lat="45.12357" lon="4.98371">
        <ele>206.92399597168</ele>
        <time>2009-05-27T16:23:14Z</time>
      </trkpt>
      <trkpt lat="45.12345" lon="4.98395">
        <ele>206.15699768066</ele>
        <time>2009-05-27T16:23:18Z</time>
      </trkpt>
      <trkpt lat="45.12312" lon="4.98421">
        <ele>205.90800476074</ele>
        <time>2009-05-27T16:23:25Z</time>
      </trkpt>
      <trkpt lat="45.12195" lon="4.98417">
        <ele>204.63800048828</ele>
        <time>2009-05-27T16:23:41Z</time>
      </trkpt>
      <trkpt lat="45.12169" lon="4.98408">
        <ele>203.97900390625</ele>
        <time>2009-05-27T16:23:45Z</time>
      </trkpt>
      <trkpt lat="45.12093" lon="4.98408">
        <ele>204.4640045166</ele>
        <time>2009-05-27T16:23:56Z</time>
      </trkpt>
      <trkpt lat="45.12064" lon="4.98407">
        <ele>204.7799987793</ele>
        <time>2009-05-27T16:24:00Z</time>
      </trkpt>
      <trkpt lat="45.12051" lon="4.98361">
        <ele>204.04299926758</ele>
        <time>2009-05-27T16:24:05Z</time>
      </trkpt>
      <trkpt lat="45.12068" lon="4.9827">
        <ele>202.41400146484</ele>
        <time>2009-05-27T16:24:12Z</time>
      </trkpt>
      <trkpt lat="45.12071" lon="4.98229">
        <ele>202.44000244141</ele>
        <time>2009-05-27T16:24:15Z</time>
      </trkpt>
      <trkpt lat="45.12056" lon="4.98089">
        <ele>201.11700439453</ele>
        <time>2009-05-27T16:24:25Z</time>
      </trkpt>
      <trkpt lat="45.1203" lon="4.97989">
        <ele>199.74299621582</ele>
        <time>2009-05-27T16:24:32Z</time>
      </trkpt>
      <trkpt lat="45.12006" lon="4.97887">
        <ele>199.35800170898</ele>
        <time>2009-05-27T16:24:39Z</time>
      </trkpt>
      <trkpt lat="45.11974" lon="4.97705">
        <ele>197.95100402832</ele>
        <time>2009-05-27T16:24:51Z</time>
      </trkpt>
      <trkpt lat="45.11923" lon="4.97411">
        <ele>195.72200012207</ele>
        <time>2009-05-27T16:25:11Z</time>
      </trkpt>
      <trkpt lat="45.11885" lon="4.97196">
        <ele>195.34399414062</ele>
        <time>2009-05-27T16:25:28Z</time>
      </trkpt>
      <trkpt lat="45.11884" lon="4.97189">
        <ele>195.43099975586</ele>
        <time>2009-05-27T16:25:30Z</time>
      </trkpt>
      <trkpt lat="45.11882" lon="4.97172">
        <ele>195.64399719238</ele>
        <time>2009-05-27T16:25:33Z</time>
      </trkpt>
      <trkpt lat="45.11879" lon="4.97155">
        <ele>195.43400573731</ele>
        <time>2009-05-27T16:25:35Z</time>
      </trkpt>
      <trkpt lat="45.11898" lon="4.9708">
        <ele>197.28700256348</ele>
        <time>2009-05-27T16:25:43Z</time>
      </trkpt>
      <trkpt lat="45.11886" lon="4.97051">
        <ele>197.92900085449</ele>
        <time>2009-05-27T16:25:47Z</time>
      </trkpt>
      <trkpt lat="45.11873" lon="4.9704">
        <ele>197.62800598144</ele>
        <time>2009-05-27T16:25:49Z</time>
      </trkpt>
      <trkpt lat="45.1177" lon="4.96892">
        <ele>196.76499938965</ele>
        <time>2009-05-27T16:26:06Z</time>
      </trkpt>
      <trkpt lat="45.11753" lon="4.96828">
        <ele>196.5119934082</ele>
        <time>2009-05-27T16:26:12Z</time>
      </trkpt>
      <trkpt lat="45.11717" lon="4.96802">
        <ele>196.69999694824</ele>
        <time>2009-05-27T16:26:17Z</time>
      </trkpt>
      <trkpt lat="45.1171" lon="4.96794">
        <ele>196.58500671387</ele>
        <time>2009-05-27T16:26:18Z</time>
      </trkpt>
      <trkpt lat="45.11681" lon="4.96747">
        <ele>195.56100463867</ele>
        <time>2009-05-27T16:26:23Z</time>
      </trkpt>
      <trkpt lat="45.11624" lon="4.96616">
        <ele>194.84700012207</ele>
        <time>2009-05-27T16:26:35Z</time>
      </trkpt>
      <trkpt lat="45.11601" lon="4.96555">
        <ele>194.47099304199</ele>
        <time>2009-05-27T16:26:41Z</time>
      </trkpt>
      <trkpt lat="45.1158" lon="4.96502">
        <ele>195.43699645996</ele>
        <time>2009-05-27T16:26:47Z</time>
      </trkpt>
      <trkpt lat="45.11577" lon="4.96469">
        <ele>196.00999450684</ele>
        <time>2009-05-27T16:26:51Z</time>
      </trkpt>
      <trkpt lat="45.11578" lon="4.96455">
        <ele>195.61000061035</ele>
        <time>2009-05-27T16:26:53Z</time>
      </trkpt>
      <trkpt lat="45.11573" lon="4.96444">
        <ele>196.1190032959</ele>
        <time>2009-05-27T16:26:59Z</time>
      </trkpt>
      <trkpt lat="45.11562" lon="4.9645">
        <ele>196.07200622559</ele>
        <time>2009-05-27T16:27:33Z</time>
      </trkpt>
      <trkpt lat="45.11558" lon="4.96427">
        <ele>196.74600219727</ele>
        <time>2009-05-27T16:27:41Z</time>
      </trkpt>
      <trkpt lat="45.11563" lon="4.96428">
        <ele>197.15699768066</ele>
        <time>2009-05-27T16:27:47Z</time>
      </trkpt>
      <trkpt lat="45.11564" lon="4.96429">
        <ele>197.05099487305</ele>
        <time>2009-05-27T16:27:50Z</time>
      </trkpt>
      <trkpt lat="45.11564" lon="4.9643">
        <ele>196.91700744629</ele>
        <time>2009-05-27T16:27:54Z</time>
      </trkpt>
      <trkpt lat="45.11569" lon="4.96429">
        <ele>197.34300231934</ele>
        <time>2009-05-27T16:28:20Z</time>
      </trkpt>
      <trkpt lat="45.1157" lon="4.96429">
        <ele>197.30900573731</ele>
        <time>2009-05-27T16:28:24Z</time>
      </trkpt>
    </trkseg>
  </trk>
</gpx>